Date StartTime U_cm/s V_cm/s W_cm/s Ustd_cm/s Vstd_cm/s Wstd_cm/s Uvar_(cm/s)^2 Vvar_(cm/s)^2 Wvar_(cm/s)^2 KE_(m/s)^2 TurbulentKE_(m/s)^2 HorizWindSpeed_cm/s FrictionSpeec_cm/s DragCoef SpeedOfSound_m/s SonicTemperature_C Pressure_mb 
01/24/2015  00:00:00      -90.160      -40.336      -10.155       19.046       17.884        9.187      362.760      319.853       84.392        0.531        0.038       98.771        7.847        0.006      333.575        2.980      873.958
01/24/2015  00:01:00     -116.332      -33.208      -24.109        7.268        9.026        9.161       52.831       81.466       83.918        0.772        0.011      120.979        3.836        0.001      333.577        2.982      873.951
01/24/2015  00:02:00      -99.682      -33.925      -16.866       11.564        9.944       10.360      133.732       98.892      107.326        0.586        0.017      105.296        5.540        0.003      333.451        2.774      873.943
01/24/2015  00:03:00     -109.322      -32.727      -17.000        9.049        9.217        8.007       81.893       84.961       64.107        0.677        0.012      114.115        3.900        0.001      333.497        2.849      873.929
01/24/2015  00:04:00     -113.849      -40.641      -19.771        7.554        7.847        7.405       57.058       61.569       54.831        0.759        0.009      120.885        3.613        0.001      333.452        2.775      873.918
01/24/2015  00:05:00      -97.542      -47.740      -13.554       11.294       14.329       14.111      127.552      205.316      199.127        0.625        0.027      108.598        5.589        0.003      333.388        2.669      873.904
01/24/2015  00:06:00      -85.347      -47.613      -14.312       23.345       29.202       15.012      545.012      852.773      225.352        0.569        0.081       97.730       12.843        0.017      333.346        2.600      873.897
01/24/2015  00:07:00      -86.235      -43.308      -14.637       28.855       24.679       16.661      832.617      609.054      277.601        0.562        0.086       96.499       12.971        0.018      333.239        2.421      873.894
01/24/2015  00:08:00      -99.194      -21.060      -19.351       23.808       25.891       15.858      566.816      670.349      251.475        0.607        0.074      101.405       12.608        0.015      333.170        2.309      873.874
01/24/2015  00:09:00      -90.539      -38.530      -12.974       23.836       19.109       15.071      568.148      365.151      227.133        0.551        0.058       98.396       13.945        0.020      333.153        2.281      873.859
01/24/2015  00:10:00     -101.796      -56.950      -16.797       17.328       17.247       12.472      300.275      297.446      155.558        0.732        0.038      116.644        7.139        0.004      333.191        2.344      873.841
01/24/2015  00:11:00     -121.745      -43.926      -20.586       22.131       22.526       12.145      489.761      507.419      147.494        0.916        0.057      129.427        9.659        0.006      333.160        2.292      873.825
01/24/2015  00:12:00     -110.426      -58.750      -13.849       16.523       29.592       20.422      273.002      875.669      417.075        0.870        0.078      125.082       10.002        0.006      333.157        2.288      873.833
01/24/2015  00:13:00     -135.212      -37.501      -21.494       14.132       14.879       11.653      199.706      221.380      135.802        1.035        0.028      140.316        8.220        0.003      333.140        2.261      873.829
01/24/2015  00:14:00     -126.774      -66.724       -8.079       19.094       13.677       14.278      364.565      187.049      203.853        1.067        0.038      143.261        9.317        0.004      333.135        2.252      873.820
01/24/2015  00:15:00     -112.127      -51.260      -15.470       13.209       16.552       10.686      174.475      273.969      114.191        0.800        0.028      123.288        4.188        0.001      333.208        2.373      873.816
01/24/2015  00:16:00     -131.060      -68.765      -13.779       14.766       18.901       11.735      218.047      357.257      137.707        1.140        0.036      148.005        9.425        0.004      333.272        2.478      873.819
01/24/2015  00:17:00      -98.308      -62.992       -5.109       48.758       31.559       21.466     2377.380      995.946      460.777        0.875        0.192      116.758       22.581        0.037      333.137        2.254      873.815
01/24/2015  00:18:00      -95.691      -77.086       -2.979       51.013       28.852       22.295     2602.302      832.436      497.047        0.952        0.197      122.878       21.323        0.030      333.050        2.110      873.810
01/24/2015  00:19:00      -99.107      -50.370        5.150       41.794       33.399       27.458     1746.725     1115.507      753.938        0.800        0.181      111.173       18.937        0.029      333.038        2.091      873.803
01/24/2015  00:20:00     -163.245      -73.464      -14.926       29.219       25.058       21.609      853.724      627.884      466.955        1.711        0.097      179.014       17.122        0.009      333.087        2.171      873.788
01/24/2015  00:21:00     -120.188      -71.890       -8.489       24.992       27.019       19.139      624.592      730.001      366.289        1.070        0.086      140.048       10.512        0.006      333.052        2.115      873.768
01/24/2015  00:22:00      -79.519      -39.405        2.651       44.928       26.058       17.203     2018.566      679.023      295.948        0.544        0.150       88.746       20.045        0.051      332.974        1.985      873.757
01/24/2015  00:23:00      -40.051      -25.767        2.487       36.680       18.645       16.730     1345.445      347.644      279.889        0.212        0.099       47.624       17.801        0.140      332.989        2.010      873.762
01/24/2015  00:24:00      -85.182      -41.968       -6.938       24.399       19.060       10.441      595.301      363.277      109.011        0.507        0.053       94.959        9.529        0.010      333.015        2.055      873.762
01/24/2015  00:25:00     -101.819      -55.528       -5.640       23.644       29.280       16.871      559.053      857.297      284.639        0.759        0.085      115.976       11.884        0.011      333.091        2.178      873.759
01/24/2015  00:26:00     -100.091      -51.398       -3.719       33.098       31.622       18.596     1095.465      999.945      345.795        0.756        0.122      112.516       16.048        0.020      333.066        2.137      873.739
01/24/2015  00:27:00     -100.967      -58.865       -0.492       24.097       18.018       19.199      580.674      324.635      368.592        0.747        0.064      116.874       17.116        0.021      333.101        2.195      873.727
01/24/2015  00:28:00     -116.171      -58.468       -5.708       20.090       14.777       12.628      403.596      218.368      159.457        0.886        0.039      130.055        8.397        0.004      333.160        2.294      873.711
01/24/2015  00:29:00     -125.189      -48.579        0.553       30.108       24.133       18.108      906.468      582.403      327.907        0.992        0.091      134.284       11.384        0.007      333.190        2.342      873.675
01/24/2015  00:30:00     -108.871      -46.153       -0.589       32.155       31.408       21.125     1033.950      986.486      446.246        0.822        0.123      118.249       20.681        0.031      333.190        2.342      873.648
01/24/2015  00:31:00      -97.151      -44.190       -4.819       20.220       18.782       13.307      408.860      352.762      177.078        0.618        0.047      106.729        6.546        0.004      333.198        2.356      873.630
01/24/2015  00:32:00      -67.902      -31.373        3.953       25.969       20.514       14.788      674.391      420.814      218.687        0.346        0.066       74.799        9.420        0.016      333.022        2.066      873.624
01/24/2015  00:33:00     -110.567      -55.368        0.302       31.910       21.380       15.210     1018.252      457.083      231.340        0.850        0.085      123.656       16.286        0.017      333.107        2.206      873.613
01/24/2015  00:34:00      -94.679      -45.671        5.497       36.482       30.955       16.274     1330.915      958.205      264.838        0.682        0.128      105.119       15.951        0.023      333.099        2.192      873.591
01/24/2015  00:35:00      -55.213      -24.783       -1.563       36.449       25.598       16.003     1328.494      655.264      256.084        0.295        0.112       60.520       21.445        0.126      333.123        2.232      873.574
01/24/2015  00:36:00      -97.054      -38.806       -6.169       14.670       10.852        8.257      215.201      117.770       68.176        0.568        0.020      104.524        5.605        0.003      333.226        2.402      873.562
01/24/2015  00:37:00     -111.987      -40.906       -1.567       21.220       17.769       12.372      450.274      315.735      153.062        0.757        0.046      119.224       12.562        0.011      333.241        2.427      873.551
01/24/2015  00:38:00      -53.996        1.077       -0.650       25.132       14.800       11.251      631.631      219.031      126.579        0.195        0.049       54.007        7.510        0.019      333.062        2.131      873.560
01/24/2015  00:39:00      -82.108      -10.990       -7.930       11.526       12.529        8.491      132.840      156.974       72.091        0.364        0.018       82.840        4.287        0.003      333.145        2.267      873.577
01/24/2015  00:40:00      -98.098      -36.936       -7.878       15.714       18.982        9.946      246.939      360.333       98.922        0.588        0.035      104.822        6.231        0.004      333.099        2.193      873.583
01/24/2015  00:41:00      -97.158       -9.087       -5.073       23.805       15.532       14.319      566.685      241.233      205.025        0.528        0.051       97.582       12.995        0.018      333.014        2.052      873.593
01/24/2015  00:42:00      -53.999       -6.597        1.469       29.020       26.549       16.242      842.152      704.854      263.802        0.239        0.091       54.400       16.836        0.096      332.965        1.971      873.602
01/24/2015  00:43:00      -91.221      -26.142       -2.152       25.146       21.511       13.113      632.301      462.736      171.960        0.514        0.063       94.893       10.915        0.013      332.892        1.851      873.615
01/24/2015  00:44:00      -98.301      -15.515       -1.033       31.819       17.477       17.346     1012.426      305.454      300.884        0.576        0.081       99.518       15.548        0.024      332.839        1.764      873.625
01/24/2015  00:45:00     -101.423      -20.409       -4.915       28.302       23.538       14.247      800.987      554.055      202.973        0.614        0.078      103.456       12.628        0.015      332.877        1.825      873.630
01/24/2015  00:46:00     -117.654      -28.412       -9.411       29.604       17.030       13.760      876.371      290.019      189.334        0.805        0.068      121.036       15.994        0.017      332.864        1.806      873.628
01/24/2015  00:47:00     -126.420      -27.670       -6.337       30.871       21.435       20.756      953.039      459.456      430.822        0.932        0.092      129.413       20.722        0.026      332.918        1.894      873.610
01/24/2015  00:48:00     -101.290      -18.881       -5.038       25.971       22.401       17.726      674.506      501.793      314.204        0.607        0.075      103.035       14.627        0.020      332.836        1.759      873.611
01/24/2015  00:49:00     -127.808      -19.597      -11.432       18.882       16.475       12.750      356.524      271.410      162.556        0.882        0.040      129.302        8.949        0.005      332.859        1.796      873.622
01/24/2015  00:50:00     -110.287      -41.846       -3.962       24.722       24.837       17.047      611.189      616.897      290.594        0.772        0.076      117.959       15.529        0.017      332.809        1.715      873.642
01/24/2015  00:51:00     -109.851      -37.009       -6.595       28.286       25.577       18.951      800.094      654.167      359.154        0.765        0.091      115.918       19.131        0.027      332.746        1.611      873.651
01/24/2015  00:52:00     -127.074      -25.376      -10.408       20.199       20.210       16.220      408.008      408.459      263.087        0.899        0.054      129.583       14.456        0.012      332.684        1.508      873.646
01/24/2015  00:53:00     -111.847       -3.843       -6.922       21.329       17.345       14.295      454.925      300.854      204.360        0.677        0.048      111.913       10.835        0.009      332.674        1.491      873.647
01/24/2015  00:54:00     -105.272       -4.677       -3.360       24.972       23.257       17.270      623.622      540.895      298.257        0.629        0.073      105.376       15.720        0.022      332.665        1.476      873.650
01/24/2015  00:55:00      -90.497       -7.259       -5.927       31.769       23.133       17.349     1009.296      535.150      300.984        0.506        0.092       90.788       14.943        0.027      332.666        1.478      873.649
01/24/2015  00:56:00     -109.380       -1.373       -5.950       21.051       17.534       15.586      443.165      307.434      242.913        0.650        0.050      109.389       12.054        0.012      332.609        1.383      873.661
01/24/2015  00:57:00     -113.910      -19.954      -10.375       22.276       19.920       15.350      496.224      396.808      235.633        0.730        0.056      115.645       13.609        0.014      332.615        1.391      873.673
01/24/2015  00:58:00     -118.495      -11.254      -10.461       36.842       25.948       16.968     1357.344      673.317      287.900        0.830        0.116      119.028       17.376        0.021      332.636        1.428      873.684
01/24/2015  00:59:00     -110.448      -13.834       -7.616       47.833       30.810       21.231     2288.005      949.267      450.763        0.807        0.184      111.311       18.930        0.029      332.519        1.234      873.704
01/24/2015  01:00:00      -84.331       -7.518        0.741       48.037       34.754       21.123     2307.541     1207.873      446.177        0.556        0.198       84.665       24.149        0.081      332.475        1.161      873.729
01/24/2015  01:01:00      -45.228       -6.977        0.887       18.879       23.933       17.512      356.432      572.765      306.664        0.167        0.062       45.763       11.862        0.067      332.490        1.186      873.756
01/24/2015  01:02:00      -49.040       -3.873       -9.203       20.925       25.616       16.359      437.861      656.169      267.612        0.193        0.068       49.193       11.114        0.051      332.699        1.531      873.775
01/24/2015  01:03:00      -36.251       -9.687       -6.386       11.687       14.157       12.952      136.576      200.422      167.751        0.098        0.025       37.523        8.466        0.051      332.707        1.544      873.791
01/24/2015  01:04:00      -56.229       -4.963      -11.070       12.523       12.425       10.539      156.819      154.379      111.067        0.187        0.021       56.448        2.235        0.002      332.755        1.624      873.806
01/24/2015  01:05:00      -58.152       -8.945      -12.510       14.939       11.711        8.403      223.162      137.153       70.612        0.202        0.022       58.836        6.728        0.013      332.751        1.619      873.820
01/24/2015  01:06:00      -56.343      -21.075       -4.803       13.099       16.922        8.631      171.585      286.369       74.499        0.209        0.027       60.156        4.842        0.006      332.641        1.435      873.848
01/24/2015  01:07:00      -68.716      -24.838      -13.236       12.392       11.211        9.848      153.565      125.688       96.981        0.295        0.019       73.067        7.022        0.009      332.613        1.391      873.870
01/24/2015  01:08:00      -91.307      -22.291      -18.844       15.388       15.216       11.347      236.796      231.525      128.757        0.489        0.030       93.988        6.085        0.004      332.526        1.244      873.880
01/24/2015  01:09:00     -102.070      -25.300      -17.232       18.851       19.930       13.837      355.344      397.214      191.468        0.615        0.047      105.158       10.657        0.010      332.511        1.220      873.899
01/24/2015  01:10:00     -101.722      -20.322      -18.362       23.663       23.697       15.697      559.937      561.550      246.411        0.623        0.068      103.732       14.406        0.019      332.497        1.199      873.922
01/24/2015  01:11:00     -105.019       17.605      -19.141       29.465       23.731       18.167      868.193      563.143      330.023        0.673        0.088      106.485       10.517        0.010      332.547        1.280      873.951
01/24/2015  01:12:00     -107.597       51.665      -20.072       24.001       28.674       16.301      576.025      822.204      265.715        0.816        0.083      119.358       12.390        0.011      332.829        1.745      873.975
01/24/2015  01:13:00      -78.407       24.142      -20.768       23.766       25.522       14.688      564.839      651.364      215.723        0.430        0.072       82.040       10.945        0.018      332.967        1.974      873.986
01/24/2015  01:14:00      -67.656       -4.275      -14.997       20.468       17.651       12.234      418.944      311.549      149.676        0.285        0.044       67.791       10.701        0.025      332.760        1.633      873.983
01/24/2015  01:15:00      -79.698      -11.032      -13.570       29.433       21.159       16.118      866.286      447.719      259.803        0.412        0.079       80.458       15.851        0.039      332.557        1.296      873.976
01/24/2015  01:16:00     -140.489      -13.261      -18.558       19.879       13.486       10.446      395.182      181.874      109.123        1.047        0.034      141.114        6.090        0.002      332.475        1.161      873.975
01/24/2015  01:17:00     -106.043      -35.517      -17.210       16.720       18.937       12.575      279.556      358.595      158.127        0.680        0.040      111.833        8.396        0.006      332.488        1.183      873.968
01/24/2015  01:18:00     -121.225      -32.053      -18.525       13.166       13.326       10.338      173.351      177.577      106.884        0.826        0.023      125.391        7.735        0.004      332.539        1.267      873.968
01/24/2015  01:19:00      -99.584      -49.786      -10.007        8.867       10.414        9.545       78.623      108.457       91.103        0.639        0.014      111.335        1.855        0.000      332.563        1.305      873.955
01/24/2015  01:20:00      -97.329      -87.275       -7.312       22.464       21.518       15.377      504.646      463.017      236.463        0.917        0.060      130.728        8.632        0.004      332.786        1.675      873.936
01/24/2015  01:21:00      -99.799      -53.848       -1.516       40.172       27.866       24.382     1613.779      776.510      594.490        0.792        0.149      113.399       17.735        0.024      332.899        1.861      873.917
01/24/2015  01:22:00      -72.777      -47.564      -14.197       32.296       26.795       15.667     1043.007      717.967      245.469        0.488        0.100       86.942        5.570        0.004      332.862        1.802      873.911
01/24/2015  01:23:00      -83.795      -85.482       -6.467       24.236       30.817       18.090      587.392      949.708      327.256        0.812        0.093      119.703       13.119        0.012      332.783        1.671      873.903
01/24/2015  01:24:00     -109.218      -43.847       -3.258       20.399       23.426       15.318      416.122      548.769      234.655        0.753        0.060      117.691       10.076        0.007      332.719        1.565      873.906
01/24/2015  01:25:00     -104.611      -32.804       -8.087       20.384       13.776       12.972      415.503      189.780      168.266        0.643        0.039      109.634        5.713        0.003      332.697        1.528      873.913
01/24/2015  01:26:00      -77.993      -51.365        1.789       38.476       18.911       16.454     1480.423      357.610      270.743        0.542        0.105       93.387       16.250        0.030      332.664        1.474      873.936
01/24/2015  01:27:00      -54.369      -45.009        9.640       38.532       24.926       23.642     1484.740      621.324      558.933        0.387        0.133       70.581       23.454        0.110      332.553        1.289      873.941
01/24/2015  01:28:00     -105.699      -63.938       -4.675       25.643       22.847       16.809      657.579      522.000      282.539        0.837        0.073      123.533       14.566        0.014      332.564        1.308      873.951
01/24/2015  01:29:00     -124.865      -53.087      -13.498       27.677       21.343       16.027      766.033      455.514      256.879        1.003        0.074      135.681       14.262        0.011      332.571        1.319      873.976
01/24/2015  01:30:00     -144.590      -57.560      -12.947       23.307       16.637       15.621      543.226      276.788      244.023        1.273        0.053      155.626        6.560        0.002      332.415        1.064      873.995
01/24/2015  01:31:00     -120.546      -60.063      -12.755       53.803       33.834       20.105     2894.798     1144.760      404.203        1.137        0.222      134.680       21.242        0.025      332.400        1.037      874.017
01/24/2015  01:32:00     -108.134      -59.414       -5.770       32.422       31.810       20.272     1051.211     1011.907      410.964        0.886        0.124      123.381       13.350        0.012      332.386        1.015      874.051
01/24/2015  01:33:00     -118.876      -41.227       -4.943       17.895       25.049       16.260      320.230      627.432      264.390        0.853        0.061      125.821       12.806        0.010      332.396        1.030      874.083
01/24/2015  01:34:00     -108.460      -40.932       -1.496       23.786       19.141       15.225      565.756      366.394      231.803        0.730        0.058      115.926       12.998        0.013      332.408        1.052      874.116
01/24/2015  01:35:00     -117.116      -63.792       -4.936       29.189       20.018       19.887      852.006      400.722      395.476        0.973        0.082      133.363       16.899        0.016      332.469        1.152      874.127
01/24/2015  01:36:00     -100.648      -44.686       -2.366       25.175       23.606       17.555      633.773      557.237      308.175        0.682        0.075      110.122       14.862        0.018      332.386        1.015      874.132
01/24/2015  01:37:00     -111.295      -54.610        4.082       31.247       26.592       19.366      976.404      707.131      375.056        0.872        0.103      123.971       16.908        0.019      332.393        1.026      874.139
01/24/2015  01:38:00      -96.385      -53.588       -2.380       39.497       26.488       17.634     1560.021      701.619      310.950        0.737        0.129      110.280       13.362        0.015      332.423        1.076      874.164
01/24/2015  01:39:00     -100.425      -50.836        0.819       38.749       16.623       19.119     1501.498      276.313      365.524        0.741        0.107      112.559       20.049        0.032      332.440        1.104      874.183
01/24/2015  01:40:00      -88.158      -57.660       -5.029       27.244       18.484       15.522      742.230      341.659      240.937        0.622        0.066      105.340       15.250        0.021      332.445        1.112      874.210
01/24/2015  01:41:00      -95.352      -45.344      -10.875       21.311       20.962       13.853      454.160      439.397      191.917        0.618        0.054      105.584        9.805        0.009      332.419        1.069      874.227
01/24/2015  01:42:00     -120.741      -46.179      -17.275       11.474       15.649        9.708      131.654      244.907       94.252        0.874        0.024      129.271        5.095        0.002      332.415        1.064      874.243
01/24/2015  01:43:00     -133.009      -35.433       -7.369       18.683       22.509       15.980      349.040      506.665      255.357        1.006        0.056      137.648       11.982        0.008      332.463        1.142      874.237
01/24/2015  01:44:00     -135.445      -33.862      -13.140       11.790       15.540       13.596      139.002      241.488      184.851        1.011        0.028      139.613        7.502        0.003      332.408        1.050      874.244
01/24/2015  01:45:00     -141.071      -36.230      -13.851       15.861       14.260       13.127      251.575      203.347      172.327        1.102        0.031      145.649       10.183        0.005      332.381        1.008      874.252
01/24/2015  01:46:00     -121.973      -36.341      -17.953       15.898       12.251        9.764      252.757      150.078       95.335        0.851        0.025      127.271        7.710        0.004      332.346        0.948      874.284
01/24/2015  01:47:00     -104.335      -21.038      -14.357       16.574       12.452       11.897      274.682      155.058      141.541        0.605        0.029      106.435        6.285        0.003      332.272        0.828      874.319
01/24/2015  01:48:00     -102.149      -13.501      -17.026       14.569       13.192       11.929      212.244      174.024      142.292        0.572        0.026      103.037        8.709        0.007      332.362        0.975      874.340
01/24/2015  01:49:00     -106.243      -25.029      -18.293       14.041       12.701        9.500      197.150      161.311       90.241        0.635        0.022      109.152        8.740        0.006      332.364        0.980      874.338
01/24/2015  01:50:00      -95.955      -16.949      -15.248       12.478       11.981        9.786      155.706      143.556       95.773        0.506        0.020       97.441        6.285        0.004      332.336        0.933      874.327
01/24/2015  01:51:00      -85.790      -27.016      -20.958       13.114       13.350       11.056      171.974      178.222      122.234        0.450        0.024       89.944        8.789        0.010      332.323        0.911      874.315
01/24/2015  01:52:00      -78.876      -38.509      -12.838       14.201       14.543        9.186      201.677      211.487       84.375        0.418        0.025       87.775        7.112        0.007      332.321        0.907      874.308
01/24/2015  01:53:00      -70.394      -42.310      -13.249       17.065       16.860       10.470      291.212      284.267      109.630        0.380        0.034       82.131        9.147        0.012      332.351        0.957      874.315
01/24/2015  01:54:00     -105.597      -31.781      -15.854       10.891       10.304        7.488      118.624      106.177       56.066        0.635        0.014      110.276        5.879        0.003      332.326        0.918      874.329
01/24/2015  01:55:00     -125.467      -20.739      -20.130       10.219       10.410        8.364      104.429      108.378       69.958        0.843        0.014      127.169        6.150        0.002      332.497        1.198      874.347
01/24/2015  01:56:00     -143.110      -38.033      -15.372        8.977       11.739        6.952       80.592      137.807       48.335        1.121        0.013      148.077        4.495        0.001      332.466        1.147      874.368
01/24/2015  01:57:00     -131.327      -44.350      -17.135       13.569       16.638       11.405      184.122      276.837      130.083        1.005        0.030      138.613        4.816        0.001      332.455        1.129      874.399
01/24/2015  01:58:00     -104.568      -36.833      -14.795       14.609       15.586       12.300      213.430      242.926      151.292        0.656        0.030      110.865        7.583        0.005      332.418        1.068      874.421
01/24/2015  01:59:00     -112.832      -43.342      -13.273        9.546       14.374       10.464       91.119      206.625      109.505        0.760        0.020      120.870        4.181        0.001      332.511        1.222      874.439
01/24/2015  02:00:00     -110.517      -45.899      -17.189       11.993       13.144       11.177      143.834      172.775      124.918        0.753        0.022      119.669        6.213        0.003      332.476        1.163      874.453
01/24/2015  02:01:00     -131.327      -43.949      -17.598       12.156       15.320       10.013      147.766      234.689      100.263        0.999        0.024      138.486        3.495        0.001      332.481        1.172      874.448
01/24/2015  02:02:00     -128.721      -39.997      -16.887        8.453        9.675       10.135       71.456       93.608      102.724        0.936        0.013      134.792        5.057        0.001      332.387        1.017      874.440
01/24/2015  02:03:00     -135.611      -43.827      -22.072        7.032        9.155        7.269       49.455       83.821       52.832        1.049        0.009      142.517        3.080        0.000      332.397        1.033      874.428
01/24/2015  02:04:00     -123.209      -29.299      -20.108       21.150       15.067       12.540      447.333      227.029      157.250        0.864        0.042      126.645       11.193        0.008      332.313        0.896      874.422
01/24/2015  02:05:00     -127.487      -27.581      -14.060       15.559       18.410       13.613      242.071      338.923      185.314        0.899        0.038      130.436        9.654        0.005      332.323        0.912      874.434
01/24/2015  02:06:00     -104.995      -42.072      -17.637       17.777       17.895       12.347      316.035      320.220      152.446        0.695        0.039      113.110       10.395        0.008      332.178        0.672      874.447
01/24/2015  02:07:00      -66.781      -44.442       -0.062       32.902       30.075       18.856     1082.547      904.497      355.565        0.439        0.117       80.217       13.281        0.027      332.260        0.806      874.453
01/24/2015  02:08:00      -93.276       17.115       -0.186       55.604       40.455       27.849     3091.784     1636.573      775.581        0.725        0.275       94.833       25.369        0.072      332.540        1.270      874.460
01/24/2015  02:09:00     -153.480       50.999      -10.748       50.308       32.595       22.257     2530.918     1062.457      495.393        1.518        0.204      161.731       16.818        0.011      332.887        1.843      874.458
01/24/2015  02:10:00     -100.101       22.666       -4.267       60.769       37.053       20.939     3692.906     1372.923      438.437        0.803        0.275      102.635       24.636        0.058      332.705        1.540      874.447
01/24/2015  02:11:00      -80.960       -4.266       -2.479       40.088       38.221       20.760     1607.081     1460.852      430.997        0.504        0.175       81.073       17.173        0.045      332.537        1.264      874.437
01/24/2015  02:12:00      -65.869      -24.535       -4.376       28.519       37.242       18.112      813.306     1386.971      328.056        0.374        0.126       70.290       15.600        0.049      332.469        1.153      874.434
01/24/2015  02:13:00      -83.305      -29.786      -10.594       24.862       25.042       16.131      618.115      627.117      260.214        0.472        0.075       88.470       14.618        0.027      332.397        1.033      874.438
01/24/2015  02:14:00      -52.190      -32.216      -14.250       24.584       17.232       11.805      604.350      296.950      139.355        0.250        0.052       61.332        8.089        0.017      332.486        1.180      874.440
01/24/2015  02:15:00      -51.200      -14.457      -18.697       18.150       17.917       13.003      329.432      321.028      169.076        0.200        0.041       53.202        8.910        0.028      332.604        1.373      874.443
01/24/2015  02:16:00      -63.543      -19.182      -15.088       21.516       23.456       10.579      462.931      550.195      111.918        0.288        0.056       66.376        7.031        0.011      332.568        1.315      874.446
01/24/2015  02:17:00      -89.846      -26.351      -15.328       30.041       21.988       16.170      902.452      483.456      261.467        0.532        0.082       93.630       13.213        0.020      332.371        0.989      874.450
01/24/2015  02:18:00      -79.502      -24.378      -12.727       27.875       30.074       18.063      777.006      904.451      326.283        0.454        0.100       83.155       14.358        0.030      332.353        0.959      874.458
01/24/2015  02:19:00      -69.430      -16.125       -9.662       22.273       21.587       16.965      496.090      465.980      287.804        0.321        0.062       71.278       13.422        0.035      332.300        0.872      874.461
01/24/2015  02:20:00      -82.686      -11.682       -9.237       22.046       21.338       15.584      486.013      455.312      242.854        0.412        0.059       83.508       12.225        0.021      332.337        0.934      874.478
01/24/2015  02:21:00      -81.899      -12.552      -12.031       22.600       20.571       15.981      510.771      423.159      255.394        0.410        0.059       82.855        9.327        0.013      332.347        0.950      874.482
01/24/2015  02:22:00      -89.108      -25.674      -10.121       22.097       18.246       15.518      488.263      332.913      240.811        0.488        0.053       92.733        9.267        0.010      332.324        0.912      874.489
01/24/2015  02:23:00      -42.774      -22.616        5.326       26.273       28.816       16.588      690.255      830.358      275.163        0.208        0.090       48.385       14.544        0.090      332.273        0.828      874.499
01/24/2015  02:24:00      -76.951      -47.719        2.596       56.453       41.812       24.079     3186.904     1748.256      579.796        0.686        0.276       90.546       31.840        0.124      332.189        0.689      874.510
01/24/2015  02:25:00      -48.152      -43.770        7.595       43.368       40.041       25.394     1880.825     1603.292      644.839        0.421        0.206       65.072       26.868        0.170      332.160        0.643      874.518
01/24/2015  02:26:00      -46.167      -44.176        8.543       46.428       31.331       22.160     2155.587      981.658      491.070        0.389        0.181       63.898       23.296        0.133      332.154        0.631      874.530
01/24/2015  02:27:00      -79.203      -31.187       -0.537       30.133       22.654       13.532      907.992      513.209      183.104        0.442        0.080       85.122        9.272        0.012      332.180        0.676      874.540
01/24/2015  02:28:00      -87.594      -33.649      -12.983       17.452       20.798       11.354      304.562      432.561      128.912        0.492        0.043       93.835        7.611        0.007      332.174        0.667      874.548
01/24/2015  02:29:00      -78.478      -43.169       -5.115       28.370       17.212       11.578      804.833      296.236      134.040        0.464        0.062       89.568       12.718        0.020      332.229        0.755      874.549
01/24/2015  02:30:00      -74.237      -57.358        0.092       24.116       18.318       15.705      581.576      335.540      246.661        0.498        0.058       93.814       13.826        0.022      332.277        0.836      874.552
01/24/2015  02:31:00      -65.013      -42.179        5.362       26.073       21.964       20.342      679.813      482.410      413.788        0.381        0.079       77.497       19.684        0.065      332.247        0.787      874.552
01/24/2015  02:32:00      -92.075      -44.575       -1.912       26.880       19.516       18.134      722.539      380.879      328.859        0.595        0.072      102.297       15.936        0.024      332.269        0.822      874.555
01/24/2015  02:33:00     -108.062      -56.192       -1.768       31.452       23.650       19.132      989.252      559.312      366.023        0.838        0.096      121.799       14.898        0.015      332.276        0.835      874.551
01/24/2015  02:34:00      -42.396      -28.465        6.337       38.521       26.793       16.338     1483.842      717.885      266.933        0.256        0.123       51.065       17.991        0.124      332.226        0.751      874.551
01/24/2015  02:35:00      -91.477      -62.606       -8.390       54.952       29.221       20.201     3019.675      853.869      408.069        0.832        0.214      110.850       18.211        0.027      332.253        0.797      874.554
01/24/2015  02:36:00      -53.851      -16.325        0.009       44.732       24.478       21.882     2000.977      599.152      478.823        0.312        0.154       56.271       24.311        0.187      332.167        0.654      874.553
01/24/2015  02:37:00      -79.849      -29.620      -11.924       28.062       25.440       13.546      787.471      647.214      183.493        0.451        0.081       85.165       11.025        0.017      332.198        0.704      874.538
01/24/2015  02:38:00      -95.120      -20.730      -11.181       35.259       22.504       16.483     1243.178      506.440      271.687        0.581        0.101       97.353       13.782        0.020      332.119        0.574      874.511
01/24/2015  02:39:00      -63.948      -29.416       -8.887       14.597       14.412       11.442      213.082      207.709      130.920        0.279        0.028       70.389        4.808        0.005      332.157        0.636      874.493
01/24/2015  02:40:00      -76.284      -23.953      -12.248       19.301       16.150       17.108      372.520      260.834      292.667        0.373        0.046       79.956       13.618        0.029      332.199        0.708      874.469
01/24/2015  02:41:00      -54.735      -19.057       -4.469       11.107       10.970        5.332      123.360      120.345       28.435        0.183        0.014       57.957        4.820        0.007      332.172        0.663      874.451
01/24/2015  02:42:00      -26.346       -7.823       -1.102       13.220        5.913        3.755      174.765       34.960       14.103        0.049        0.011       27.483        4.183        0.023      332.190        0.693      874.440
01/24/2015  02:43:00       -6.721       -4.848        0.287        6.063        6.197        5.220       36.755       38.402       27.247        0.009        0.005        8.287        3.346        0.163      332.262        0.808      874.439
01/24/2015  02:44:00       11.196        1.102        5.152       17.331        9.159        7.104      300.364       83.879       50.473        0.029        0.022       11.250        4.910        0.190      332.292        0.861      874.443
01/24/2015  02:45:00       29.396       12.806        2.912       20.706       16.214       14.730      428.726      262.892      216.960        0.097        0.045       32.064        5.518        0.030      332.274        0.829      874.457
01/24/2015  02:46:00        5.445       26.415        3.510       11.798       17.436        8.702      139.204      304.002       75.720        0.063        0.026       26.971       10.687        0.157      332.097        0.540      874.466
01/24/2015  02:47:00        0.435       21.568       -0.564        3.617       13.286        3.164       13.080      176.525       10.012        0.033        0.010       21.572        3.130        0.021      332.139        0.608      874.476
01/24/2015  02:48:00       -3.434        1.989        0.862        4.213        5.858        4.073       17.751       34.315       16.587        0.004        0.003        3.968        3.261        0.676      332.179        0.675      874.482
01/24/2015  02:49:00      -47.640      -18.546       -4.160       22.858       15.163        6.657      522.483      229.919       44.310        0.171        0.040       51.122        7.619        0.022      332.214        0.730      874.488
01/24/2015  02:50:00      -82.883      -25.433       -7.495       14.621       13.614        8.412      213.759      185.335       70.762        0.402        0.023       86.697        5.056        0.003      332.114        0.565      874.481
01/24/2015  02:51:00      -86.105      -14.230      -12.133       16.877       13.572       10.648      284.837      184.211      113.384        0.417        0.029       87.273       11.646        0.018      331.987        0.356      874.474
01/24/2015  02:52:00     -113.223       -6.649       -9.962       20.054        9.665        9.857      402.153       93.404       97.159        0.678        0.030      113.418        9.903        0.008      332.045        0.452      874.463
01/24/2015  02:53:00     -137.807       -3.931      -16.002        8.499        8.099        7.245       72.239       65.597       52.495        0.973        0.010      137.863        4.211        0.001      332.094        0.533      874.455
01/24/2015  02:54:00     -134.888       -2.752      -12.011       23.302       15.651       10.750      543.001      244.961      115.563        0.962        0.045      134.916       10.062        0.006      332.043        0.448      874.447
01/24/2015  02:55:00     -127.769       -0.163       -9.078       30.484       19.069       18.960      929.299      363.617      359.484        0.903        0.083      127.769       16.632        0.017      331.969        0.326      874.446
01/24/2015  02:56:00     -115.582       -5.886      -11.095       29.930       18.629       14.450      895.782      347.055      208.789        0.748        0.073      115.732       13.677        0.014      331.889        0.196      874.448
01/24/2015  02:57:00     -117.992       -5.893       -8.924       31.346       18.015       18.114      982.550      324.552      328.107        0.784        0.082      118.139       17.920        0.023      331.886        0.191      874.457
01/24/2015  02:58:00     -124.458       -9.357      -10.713       27.912       13.295       13.440      779.058      176.759      180.630        0.841        0.057      124.809       14.129        0.013      331.936        0.273      874.463
01/24/2015  02:59:00      -73.092      -13.501       -6.821       32.516       17.423       15.184     1057.275      303.568      230.555        0.358        0.080       74.328       14.673        0.039      331.898        0.210      874.466
01/24/2015  03:00:00      -95.638      -15.842      -14.199       23.879       13.383       11.309      570.205      179.098      127.896        0.524        0.044       96.941       11.103        0.013      331.965        0.320      874.464
01/24/2015  03:01:00     -112.691      -15.223      -17.620       11.356        8.233        9.906      128.966       67.786       98.121        0.677        0.015      113.714        4.902        0.002      331.968        0.324      874.455
01/24/2015  03:02:00     -101.757       -8.995      -15.283       13.052       15.286        9.148      170.345      233.672       83.682        0.558        0.024      102.154        7.274        0.005      331.934        0.270      874.448
01/24/2015  03:03:00      -82.149       -3.883      -12.556       14.674       13.450        9.196      215.324      180.904       84.565        0.370        0.024       82.241        7.317        0.008      332.023        0.416      874.448
01/24/2015  03:04:00      -75.997      -14.953       -9.415       14.065       10.396        7.857      197.825      108.072       61.735        0.323        0.018       77.454        5.692        0.005      332.038        0.441      874.449
01/24/2015  03:05:00      -65.391      -19.560      -11.398        9.492       10.684        8.551       90.094      114.148       73.126        0.253        0.014       68.254        6.468        0.009      332.045        0.454      874.451
01/24/2015  03:06:00      -55.759      -16.547      -14.004       11.673        7.626        6.859      136.251       58.155       47.047        0.191        0.012       58.163        4.095        0.005      332.148        0.621      874.464
01/24/2015  03:07:00      -30.956      -22.454       -5.777        9.932        8.451        6.408       98.653       71.424       41.060        0.085        0.011       38.242        4.961        0.017      332.213        0.729      874.461
01/24/2015  03:08:00      -20.646      -22.341       -1.794       16.084        7.940        4.941      258.687       63.047       24.415        0.064        0.017       30.420        4.203        0.019      332.182        0.679      874.447
01/24/2015  03:09:00       -8.456      -17.716       -8.052       10.038        8.385        4.911      100.754       70.306       24.120        0.032        0.010       19.630        4.822        0.060      332.335        0.928      874.413
01/24/2015  03:10:00      -18.511      -13.932       10.855       12.929       16.323        7.522      167.164      266.443       56.575        0.057        0.025       23.168        4.366        0.036      332.300        0.874      874.378
01/24/2015  03:11:00      -42.063      -10.733       -2.328        8.841       10.175        6.958       78.172      103.533       48.420        0.106        0.012       43.411        5.396        0.015      332.109        0.558      874.342
01/24/2015  03:12:00      -37.896      -15.194       -3.119        8.606        7.550        6.679       74.059       56.998       44.605        0.093        0.009       40.829        5.307        0.017      332.006        0.389      874.325
01/24/2015  03:13:00      -59.459      -18.940       -9.355        8.780        8.547        5.796       77.091       73.057       33.590        0.208        0.009       62.403        2.751        0.002      331.852        0.134      874.319
01/24/2015  03:14:00      -80.029      -38.331       -9.242        8.723        9.064        6.699       76.096       82.156       44.878        0.408        0.010       88.735        4.180        0.002      331.839        0.114      874.311
01/24/2015  03:15:00     -103.177      -21.144       -8.062       15.541       12.408        7.802      241.531      153.970       60.871        0.581        0.023      105.321        3.735        0.001      331.871        0.165      874.305
01/24/2015  03:16:00     -127.981      -23.242       -8.617       21.360       17.173       16.738      456.261      294.906      280.157        0.901        0.052      130.075       14.358        0.012      331.781        0.017      874.305
01/24/2015  03:17:00     -132.021      -34.082       -6.737       22.374       13.459       10.305      500.595      181.146      106.192        0.971        0.039      136.349        8.930        0.004      331.742       -0.047      874.310
01/24/2015  03:18:00     -113.637      -17.946       -3.146       24.560       22.412       17.018      603.172      502.291      289.612        0.732        0.070      115.045       11.171        0.009      331.668       -0.168      874.313
01/24/2015  03:19:00      -95.200      -33.479        1.716       29.670       23.724       13.389      880.330      562.809      179.262        0.590        0.081      100.915       12.881        0.016      331.660       -0.180      874.297
01/24/2015  03:20:00      -62.376      -40.257        6.703       32.989       21.992       15.284     1088.297      483.649      233.613        0.368        0.090       74.239       12.977        0.031      331.636       -0.221      874.281
01/24/2015  03:21:00      -60.797      -60.658        1.859       38.636       22.469       20.893     1492.776      504.850      436.533        0.491        0.122       85.882       19.817        0.053      331.719       -0.084      874.254
01/24/2015  03:22:00      -66.717      -63.520       -0.277       22.057       22.754       16.153      486.514      517.747      260.924        0.488        0.063       92.120       11.276        0.015      331.779        0.014      874.223
01/24/2015  03:23:00      -49.776      -42.507        8.409       40.947       29.772       19.500     1676.692      886.368      380.249        0.365        0.147       65.456       18.494        0.080      331.865        0.156      874.189
01/24/2015  03:24:00      -82.399      -54.081        1.233       35.099       33.557       18.946     1231.952     1126.046      358.936        0.622        0.136       98.562       16.969        0.030      331.903        0.217      874.162
01/24/2015  03:25:00      -77.089      -59.046        8.319       42.180       36.945       23.348     1779.153     1364.916      545.111        0.659        0.184       97.104       24.738        0.065      331.923        0.251      874.144
01/24/2015  03:26:00      -61.948      -37.697        6.828       52.447       32.069       26.304     2750.737     1028.410      691.909        0.489        0.224       72.516       31.306        0.186      331.860        0.147      874.118
01/24/2015  03:27:00     -112.684      -87.793       -8.568       33.539       45.509       24.682     1124.856     2071.091      609.195        1.214        0.190      142.847       17.144        0.014      331.757       -0.022      874.090
01/24/2015  03:28:00      -79.472      -74.151        2.009       53.297       40.576       27.720     2840.536     1646.398      768.403        0.854        0.263      108.693       29.911        0.076      331.658       -0.184      874.063
01/24/2015  03:29:00     -104.114      -66.806        1.389       40.344       44.570       24.415     1627.655     1986.509      596.113        0.976        0.211      123.705       25.124        0.041      331.622       -0.243      874.041
01/24/2015  03:30:00      -86.863      -51.434       -1.096       40.425       29.596       24.150     1634.207      875.943      583.241        0.664        0.155      100.949       22.222        0.048      331.595       -0.289      874.022
01/24/2015  03:31:00     -108.939      -51.039       -5.821       25.752       21.370       15.702      663.167      456.679      246.549        0.794        0.068      120.302        9.748        0.007      331.600       -0.280      874.009
01/24/2015  03:32:00      -80.823      -40.708        7.480       46.324       28.466       20.981     2145.873      810.338      440.215        0.582        0.170       90.496       26.010        0.083      331.607       -0.268      873.996
01/24/2015  03:33:00      -52.192      -36.923        7.622       33.909       24.764       18.914     1149.809      613.237      357.756        0.313        0.106       63.932       14.388        0.051      331.635       -0.222      873.975
01/24/2015  03:34:00      -44.858      -56.972        7.915       37.491       39.090       24.192     1405.604     1528.064      585.242        0.442        0.176       72.512       23.429        0.104      331.661       -0.178      873.957
01/24/2015  03:35:00      -73.402      -67.789        1.602       51.077       26.752       26.459     2608.903      715.664      700.076        0.700        0.201       99.916       30.989        0.096      331.650       -0.196      873.940
01/24/2015  03:36:00      -53.154      -29.069        2.699       41.639       21.824       19.617     1733.823      476.265      384.841        0.314        0.130       60.583       20.906        0.119      331.579       -0.317      873.921
01/24/2015  03:37:00      -76.257      -54.802        1.551       34.453       28.119       20.001     1187.013      790.658      400.056        0.560        0.119       93.907       19.087        0.041      331.631       -0.230      873.903
01/24/2015  03:38:00      -79.195      -45.599        2.065       38.224       28.621       20.970     1461.109      819.170      439.725        0.554        0.136       91.385       21.785        0.057      331.533       -0.391      873.898
01/24/2015  03:39:00      -59.586      -43.364        3.581       43.703       37.798       22.110     1909.933     1428.665      488.853        0.463        0.191       73.695       22.505        0.093      331.540       -0.380      873.890
01/24/2015  03:40:00      -97.128      -53.476        0.468       34.006       28.136       18.954     1156.381      791.659      359.266        0.730        0.115      110.876       14.862        0.018      331.559       -0.347      873.871
01/24/2015  03:41:00     -143.736      -48.163       -3.994       25.547       21.441       15.257      652.659      459.696      232.765        1.217        0.067      151.590       10.164        0.004      331.555       -0.354      873.845
01/24/2015  03:42:00     -121.125      -56.092        2.170       41.741       26.551       19.813     1742.343      704.962      392.563        1.033        0.142      133.482       16.197        0.015      331.524       -0.405      873.813
01/24/2015  03:43:00     -100.427      -18.827        4.730       39.135       28.781       19.200     1531.517      828.320      368.656        0.660        0.136      102.177       15.309        0.022      331.410       -0.593      873.785
01/24/2015  03:44:00     -109.630      -23.401       -5.020       35.449       27.907       18.358     1256.649      778.808      337.019        0.748        0.119      112.099       17.830        0.025      331.420       -0.576      873.754
01/24/2015  03:45:00     -108.709      -50.027       -1.558       32.326       21.255       20.060     1044.980      451.793      402.414        0.811        0.095      119.668       18.480        0.024      331.483       -0.473      873.715
01/24/2015  03:46:00      -80.008      -49.577        1.173       38.511       28.186       21.577     1483.119      794.431      465.553        0.580        0.137       94.123       20.179        0.046      331.482       -0.475      873.670
01/24/2015  03:47:00     -100.810      -29.576       -0.675       31.858       24.699       17.734     1014.946      610.040      314.481        0.649        0.097      105.059       15.979        0.023      331.420       -0.577      873.620
01/24/2015  03:48:00      -87.650      -33.875        1.088       32.227       25.360       16.578     1038.559      643.122      274.820        0.539        0.098       93.969       15.439        0.027      331.387       -0.630      873.588
01/24/2015  03:49:00      -91.774      -37.391        3.318       33.155       25.365       18.319     1099.265      643.359      335.587        0.595        0.104       99.099       15.797        0.025      331.373       -0.654      873.571
01/24/2015  03:50:00      -40.230      -36.816        5.032       43.251       30.870       19.699     1870.632      952.978      388.055        0.310        0.161       54.533       18.196        0.111      331.459       -0.513      873.556
01/24/2015  03:51:00      -92.712      -23.046        0.571       21.966       22.916       15.769      482.520      525.142      248.675        0.519        0.063       95.534       14.248        0.022      331.379       -0.644      873.542
01/24/2015  03:52:00      -94.433      -12.033       -2.623       28.359       21.200       16.175      804.246      449.437      261.636        0.529        0.076       95.197       15.999        0.028      331.303       -0.768      873.521
01/24/2015  03:53:00      -89.889        1.272       -1.757       30.413       17.109       15.154      924.978      292.727      229.652        0.477        0.072       89.898       14.840        0.027      331.295       -0.781      873.497
01/24/2015  03:54:00      -90.057        0.821       -3.171       38.807       22.448       17.127     1505.980      503.904      293.337        0.521        0.115       90.061       19.325        0.046      331.316       -0.747      873.471
01/24/2015  03:55:00      -76.763      -15.370        3.068       31.371       21.537       16.313      984.135      463.850      266.105        0.393        0.086       78.287       15.513        0.039      331.312       -0.754      873.434
01/24/2015  03:56:00      -76.468      -13.138        0.970       27.399       32.251       20.517      750.687     1040.136      420.938        0.412        0.111       77.589       18.543        0.057      331.320       -0.740      873.391
01/24/2015  03:57:00      -68.686      -22.522       -6.244       24.025       29.825       12.120      577.219      889.533      146.899        0.344        0.081       72.284        9.980        0.019      331.283       -0.802      873.356
01/24/2015  03:58:00      -47.216       -8.429       -7.044       22.533       17.495       11.365      507.740      306.076      129.173        0.165        0.047       47.962       10.387        0.047      331.237       -0.875      873.330
01/24/2015  03:59:00      -55.853      -14.525       -7.000       13.097       14.914        9.254      171.528      222.438       85.634        0.193        0.024       57.711        5.334        0.009      331.286       -0.796      873.313
01/24/2015  04:00:00      -41.307      -12.962        1.314       20.279       17.697       13.029      411.253      313.179      169.761        0.138        0.045       43.293       12.443        0.083      331.303       -0.767      873.295
01/24/2015  04:01:00      -46.215      -11.239       -2.675       24.185       19.126       13.908      584.893      365.806      193.444        0.171        0.057       47.562       13.809        0.084      331.258       -0.841      873.273
01/24/2015  04:02:00      -54.795      -26.314       -0.168       13.276       14.267       11.287      176.251      203.539      127.388        0.210        0.025       60.786        8.477        0.019      331.282       -0.802      873.240
01/24/2015  04:03:00      -42.091      -18.082       -3.189       18.415       14.562       11.324      339.100      212.044      128.229        0.139        0.034       45.811       10.169        0.049      331.291       -0.789      873.206
01/24/2015  04:04:00      -34.430      -15.853       -0.622       23.310       13.294       10.528      543.373      176.723      110.835        0.113        0.042       37.904       11.843        0.098      331.366       -0.665      873.172
01/24/2015  04:05:00      -51.123      -33.539       -4.850       17.275       11.765       11.896      298.431      138.416      141.518        0.217        0.029       61.143       10.409        0.029      331.391       -0.624      873.133
01/24/2015  04:06:00      -39.312      -21.926        3.358       21.158       16.639       11.116      447.676      276.850      123.555        0.144        0.042       45.013        7.240        0.026      331.384       -0.633      873.090
01/24/2015  04:07:00      -90.407      -42.133       -6.966       12.577        7.855        8.465      158.170       61.696       71.651        0.514        0.015       99.743        5.060        0.003      331.438       -0.548      873.042
01/24/2015  04:08:00      -68.614      -45.918       -4.057       12.378       13.134        8.404      153.209      172.511       70.635        0.361        0.020       82.561        5.778        0.005      331.373       -0.654      873.014
01/24/2015  04:09:00      -65.483      -27.357       -6.279       20.331       14.496       11.900      413.347      210.146      141.611        0.292        0.038       70.968        9.267        0.017      331.292       -0.786      872.981
01/24/2015  04:10:00      -87.589      -19.901       -3.670       13.766       13.994       10.050      189.504      195.827      101.005        0.428        0.024       89.821        8.001        0.008      331.352       -0.689      872.958
01/24/2015  04:11:00      -55.229      -13.353        2.912       31.844       26.140       17.169     1014.050      683.318      294.762        0.261        0.100       56.820       18.283        0.104      331.349       -0.693      872.929
01/24/2015  04:12:00      -95.526      -14.579       -3.394       25.473       16.975       14.371      648.886      288.147      206.526        0.525        0.057       96.632       13.306        0.019      331.377       -0.647      872.903
01/24/2015  04:13:00      -94.384      -21.220       -2.659       26.259       18.480       15.051      689.527      341.505      226.541        0.531        0.063       96.740       13.450        0.019      331.296       -0.782      872.872
01/24/2015  04:14:00      -41.627       -8.314       -8.170       19.438       17.710       11.931      377.818      313.650      142.339        0.135        0.042       42.449        6.589        0.024      331.157       -1.009      872.842
01/24/2015  04:15:00      -58.025      -22.952       -8.609       23.247       18.092       14.449      540.421      327.321      208.776        0.252        0.054       62.400       11.531        0.034      331.118       -1.075      872.810
01/24/2015  04:16:00      -48.255      -22.075       -2.762       23.335       23.033       14.202      544.518      530.516      201.697        0.205        0.064       53.065        9.164        0.030      331.091       -1.117      872.794
01/24/2015  04:17:00      -91.451      -14.703       -4.682       37.760       22.408       13.092     1425.852      502.105      171.409        0.535        0.105       92.625        7.073        0.006      331.181       -0.969      872.780
01/24/2015  04:18:00      -42.839      -44.391      -12.719       21.009       21.200       13.176      441.393      449.446      173.608        0.252        0.053       61.691        8.406        0.019      331.212       -0.917      872.761
01/24/2015  04:19:00      -63.103      -13.226      -13.968       13.152       19.006       11.142      172.967      361.214      124.141        0.251        0.033       64.474       10.085        0.024      331.240       -0.873      872.734
01/24/2015  04:20:00      -71.379      -13.483      -13.038       15.451       16.647       13.096      238.742      277.136      171.504        0.307        0.034       72.641       10.546        0.021      331.191       -0.954      872.711
01/24/2015  04:21:00      -65.466      -25.118      -10.289       16.539       15.274       13.350      273.543      233.292      178.216        0.285        0.034       70.119       10.064        0.021      331.147       -1.026      872.694
01/24/2015  04:22:00      -67.184      -10.142      -11.343       14.456       15.491       12.579      208.965      239.982      158.229        0.268        0.030       67.945        9.548        0.020      331.165       -0.997      872.674
01/24/2015  04:23:00      -63.458      -17.591      -14.072        9.958       13.408        8.940       99.159      179.768       79.932        0.245        0.018       65.851        4.554        0.005      331.208       -0.925      872.640
01/24/2015  04:24:00      -58.816      -34.510      -17.051       14.352       20.262       11.133      205.989      410.568      123.939        0.284        0.037       68.193        6.769        0.010      331.189       -0.956      872.628
01/24/2015  04:25:00      -44.630      -19.348      -17.262       22.764       17.172       16.266      518.191      294.864      264.567        0.187        0.054       48.643       13.095        0.072      331.351       -0.690      872.629
01/24/2015  04:26:00      -52.378      -24.517      -15.729       23.503       19.336       11.089      552.401      373.870      122.968        0.232        0.052       57.832        6.911        0.014      331.261       -0.838      872.621
01/24/2015  04:27:00      -40.664      -34.253       -0.678       12.589       17.578       11.727      158.487      308.986      137.513        0.172        0.030       53.168        6.127        0.013      331.340       -0.708      872.599
01/24/2015  04:28:00      -13.802      -23.248      -10.834       13.306       15.710       13.374      177.037      246.791      178.870        0.073        0.030       27.036        7.631        0.080      331.526       -0.402      872.577
01/24/2015  04:29:00      -26.605      -26.217       -4.679       13.274       11.916       10.877      176.197      141.983      118.306        0.093        0.022       37.352        6.778        0.033      331.437       -0.548      872.559
01/24/2015  04:30:00      -38.845      -20.361      -11.560       16.504       11.376       10.153      272.389      129.417      103.090        0.128        0.025       43.858        4.514        0.011      331.200       -0.937      872.552
01/24/2015  04:31:00      -38.019      -30.256       -9.818       16.488        9.635        9.490      271.855       92.828       90.052        0.146        0.023       48.589        4.976        0.010      331.246       -0.862      872.548
01/24/2015  04:32:00      -46.501      -30.734      -14.207       10.090        8.852        6.882      101.800       78.364       47.357        0.177        0.011       55.740        3.516        0.004      331.266       -0.830      872.546
01/24/2015  04:33:00      -58.269      -29.019       -6.884       10.610        7.286        6.511      112.567       53.091       42.387        0.225        0.010       65.095        2.933        0.002      331.119       -1.073      872.543
01/24/2015  04:34:00      -64.685      -42.595      -10.494       13.218       11.320        9.333      174.712      128.145       87.110        0.325        0.019       77.450        6.271        0.007      331.173       -0.982      872.540
01/24/2015  04:35:00      -77.819      -32.754      -15.009       15.581       16.687       12.191      242.766      278.461      148.609        0.401        0.033       84.431        4.796        0.003      331.035       -1.212      872.531
01/24/2015  04:36:00      -84.841      -17.099      -15.665       10.839       15.987       12.014      117.492      255.594      144.333        0.413        0.026       86.547        8.584        0.010      331.073       -1.147      872.517
01/24/2015  04:37:00      -74.397      -24.576      -14.386       11.926       12.928       11.186      142.218      167.135      125.131        0.339        0.022       78.352        8.002        0.010      331.056       -1.178      872.508
01/24/2015  04:38:00      -86.530      -26.060      -13.801       15.128       23.942       13.206      228.852      573.238      174.409        0.467        0.049       90.369        9.433        0.011      331.047       -1.192      872.487
01/24/2015  04:39:00     -104.794      -17.642      -18.788       18.513       15.107       13.284      342.721      228.234      176.456        0.620        0.037      106.269       10.792        0.010      331.103       -1.097      872.459
01/24/2015  04:40:00      -86.855      -18.796      -20.864       16.440       17.322       11.016      270.258      300.056      121.363        0.451        0.035       88.866        7.293        0.007      331.079       -1.138      872.435
01/24/2015  04:41:00      -77.153      -20.230       -9.892       14.495       20.152       10.566      210.109      406.116      111.644        0.359        0.036       79.761       10.036        0.016      331.046       -1.192      872.413
01/24/2015  04:42:00      -85.107      -11.530      -17.149       14.649       14.208       10.711      214.588      201.878      114.724        0.410        0.027       85.884        8.227        0.009      331.101       -1.101      872.408
01/24/2015  04:43:00     -103.783      -19.440      -20.912       17.162       19.847       10.939      294.539      393.899      119.656        0.620        0.040      105.588        6.907        0.004      331.148       -1.024      872.413
01/24/2015  04:44:00      -75.018       -7.609      -12.930       41.425       21.297       19.754     1716.051      453.547      390.234        0.421        0.128       75.403       21.664        0.083      331.131       -1.051      872.418
01/24/2015  04:45:00      -87.901       20.366      -13.763       35.106       32.026       22.893     1232.452     1025.638      524.088        0.556        0.139       90.229       10.706        0.014      331.245       -0.865      872.415
01/24/2015  04:46:00      -88.039       31.453      -25.341       29.161       32.483       23.950      850.378     1055.148      573.605        0.593        0.124       93.489       12.768        0.019      331.347       -0.696      872.396
01/24/2015  04:47:00      -65.877       28.755      -22.204       27.479       27.797       15.927      755.105      772.660      253.678        0.372        0.089       71.879       11.635        0.026      331.512       -0.426      872.376
01/24/2015  04:48:00      -86.100       44.789      -13.523       26.500       39.037       20.273      702.248     1523.903      410.994        0.612        0.132       97.053       17.932        0.034      331.798        0.047      872.364
01/24/2015  04:49:00      -57.333       23.412       -4.608       28.895       27.506       17.219      834.915      756.605      296.494        0.287        0.094       61.929       16.466        0.071      331.800        0.049      872.366
01/24/2015  04:50:00      -55.696       31.041       -8.443       25.225       30.616       15.893      636.312      937.333      252.590        0.298        0.091       63.762       17.164        0.072      331.844        0.121      872.365
01/24/2015  04:51:00      -57.102       41.633      -11.367       21.990       27.959       17.134      483.572      781.690      293.582        0.334        0.078       70.668       14.766        0.044      331.856        0.141      872.344
01/24/2015  04:52:00      -60.837       86.424      -12.678       26.098       33.967       20.205      681.111     1153.766      408.259        0.679        0.112      105.689       14.905        0.020      332.225        0.748      872.329
01/24/2015  04:53:00      -88.199      108.379      -24.161       19.874       28.465       15.477      394.980      810.274      239.544        1.078        0.072      139.732        8.274        0.004      332.138        0.606      872.308
01/24/2015  04:54:00     -101.270      111.768      -24.828       27.047       25.819       17.468      731.534      666.613      305.125        1.253        0.085      150.823       12.468        0.007      332.196        0.702      872.297
01/24/2015  04:55:00      -83.354      102.503      -18.654       26.637       37.588       18.909      709.522     1412.864      357.540        1.014        0.124      132.117       17.479        0.018      332.238        0.770      872.272
01/24/2015  04:56:00      -74.767      132.062      -13.475       26.826       25.603       22.213      719.635      655.514      493.436        1.254        0.093      151.758       16.832        0.012      332.522        1.239      872.245
01/24/2015  04:57:00      -90.123      122.702      -26.391       31.898       31.174       17.762     1017.458      971.814      315.473        1.309        0.115      152.243       17.885        0.014      332.509        1.219      872.219
01/24/2015  04:58:00      -96.223      100.695      -22.998       20.065       40.464       18.898      402.615     1637.308      357.146        1.116        0.120      139.278       15.347        0.012      332.208        0.722      872.194
01/24/2015  04:59:00      -94.485       55.237      -17.986       22.697       26.905       21.587      515.139      723.874      465.998        0.700        0.085      109.446       16.118        0.022      332.189        0.690      872.170
01/24/2015  05:00:00      -71.594        8.204      -10.615       24.375       30.724       17.212      594.146      943.940      296.248        0.357        0.092       72.063        8.103        0.013      331.705       -0.107      872.142
01/24/2015  05:01:00      -76.413      -31.523       -9.400       22.813       19.343       12.882      520.447      374.136      165.942        0.399        0.053       82.660        8.563        0.011      331.597       -0.284      872.122
01/24/2015  05:02:00      -86.982      -28.972      -25.177       28.131       21.072       14.851      791.361      444.035      220.556        0.525        0.073       91.680        7.341        0.006      331.335       -0.715      872.111
01/24/2015  05:03:00     -108.354      -23.429      -20.543       25.029       38.024       21.046      626.441     1445.801      442.929        0.761        0.126      110.858       13.690        0.015      331.350       -0.692      872.103
01/24/2015  05:04:00      -94.360      -32.144       -5.324       42.571       33.941       23.386     1812.248     1151.979      546.923        0.674        0.176       99.684       18.965        0.036      331.447       -0.533      872.104
01/24/2015  05:05:00      -88.842      -20.169       -9.786       24.771       36.162       22.860      613.624     1307.719      522.564        0.542        0.122       91.103       19.861        0.048      331.597       -0.283      872.109
01/24/2015  05:06:00     -120.693      103.572      -25.110       65.214       75.348       36.079     4252.865     5677.391     1301.727        1.858        0.562      159.040       39.117        0.060      332.287        0.850      872.123
01/24/2015  05:07:00     -126.840      154.818      -32.712       62.194       63.177       41.728     3868.081     3991.358     1741.197        2.536        0.480      200.142       42.322        0.045      332.563        1.305      872.155
01/24/2015  05:08:00     -124.208      130.682      -28.978       58.185       58.416       34.995     3385.514     3412.427     1224.649        2.068        0.401      180.293       36.714        0.041      332.635        1.424      872.176
01/24/2015  05:09:00     -116.646       89.433      -30.964       33.914       49.189       26.768     1150.189     2419.537      716.534        1.342        0.214      146.985       26.486        0.032      332.634        1.425      872.179
01/24/2015  05:10:00      -91.718       51.723      -18.482       23.167       28.025       17.824      536.691      785.391      317.703        0.653        0.082      105.297       14.621        0.019      332.650        1.450      872.198
01/24/2015  05:11:00      -74.096       84.106      -13.126       32.125       62.290       24.955     1031.987     3880.018      622.757        0.913        0.277      112.089       28.787        0.066      332.621        1.403      872.221
01/24/2015  05:12:00      -76.532       70.170      -21.980       41.567       28.462       22.217     1727.827      810.071      493.582        0.715        0.152      103.832       15.424        0.022      332.578        1.331      872.252
01/24/2015  05:13:00      -84.398       35.130      -12.584       26.665       38.785       21.177      711.008     1504.254      448.452        0.559        0.133       91.418       23.731        0.067      332.734        1.590      872.304
01/24/2015  05:14:00      -99.962       85.286      -25.437       34.600       47.194       19.996     1197.159     2227.253      399.825        1.087        0.191      131.401       23.357        0.032      332.863        1.803      872.369
01/24/2015  05:15:00      -88.448       73.129      -20.645       17.930       37.342       18.847      321.469     1394.462      355.199        0.783        0.104      114.765       16.201        0.020      332.866        1.807      872.413
01/24/2015  05:16:00      -73.102       19.941      -11.225       46.103       30.698       21.396     2125.478      942.363      457.797        0.470        0.176       75.773       10.289        0.018      332.805        1.706      872.442
01/24/2015  05:17:00      -24.467        2.155        2.947       47.611       37.080       21.243     2266.817     1374.930      451.274        0.235        0.205       24.562       23.381        0.906      332.689        1.515      872.476
01/24/2015  05:18:00      -49.010       41.675       -6.233       23.337       35.403       18.867      544.595     1253.357      355.957        0.317        0.108       64.333       18.372        0.082      332.876        1.824      872.522
01/24/2015  05:19:00      -53.357       62.470      -11.915       31.769       41.396       21.989     1009.300     1713.648      483.511        0.505        0.160       82.155       14.470        0.031      332.969        1.979      872.571
01/24/2015  05:20:00      -11.434       85.234        1.539       43.385       90.617       33.710     1882.269     8211.488     1136.351        0.931        0.562       85.998       49.041        0.325      332.924        1.901      872.625
01/24/2015  05:21:00       26.944      110.778       -6.510       46.284       52.637       33.505     2142.223     2770.638     1122.618        0.954        0.302      114.008       28.400        0.062      332.878        1.827      872.658
01/24/2015  05:22:00       45.184       73.131       -1.633       40.076       29.690       26.123     1606.062      881.504      682.425        0.528        0.158       85.964       17.261        0.040      332.815        1.723      872.660
01/24/2015  05:23:00       35.470      154.897      -17.548       45.893       55.582       40.591     2106.211     3089.362     1647.616        1.620        0.342      158.906       32.418        0.042      332.814        1.722      872.660
01/24/2015  05:24:00      -25.249      104.564        4.217       64.507       90.467       41.758     4161.215     8184.260     1743.696        1.284        0.704      107.569       46.011        0.183      332.773        1.654      872.660
01/24/2015  05:25:00      139.834       81.427       26.002       47.654       44.355       37.023     2270.932     1967.324     1370.680        1.623        0.280      161.814       29.437        0.033      332.768        1.645      872.671
01/24/2015  05:26:00        9.706       75.042        0.091       36.987       34.977       31.040     1368.039     1223.368      963.463        0.464        0.178       75.667       23.394        0.096      332.698        1.530      872.665
01/24/2015  05:27:00       29.258       10.601       12.517       22.665       39.227       23.353      513.724     1538.778      545.359        0.186        0.130       31.120       18.378        0.349      332.763        1.637      872.679
01/24/2015  05:28:00       62.696       42.458        4.807       71.596       37.721       32.848     5126.041     1422.896     1079.002        0.669        0.381       75.720       22.795        0.091      332.660        1.467      872.697
01/24/2015  05:29:00      -20.819       66.568      -14.509       30.472       33.343       18.293      928.513     1111.756      334.647        0.372        0.119       69.747       19.410        0.077      332.682        1.503      872.713
01/24/2015  05:30:00      -43.920       39.062       -2.717       53.637       33.821       28.485     2876.879     1143.836      811.379        0.415        0.242       58.777       25.936        0.195      332.781        1.669      872.735
01/24/2015  05:31:00        4.011       87.288      -11.929       29.744       36.042       21.425      884.715     1299.061      459.029        0.521        0.132       87.380       13.493        0.024      332.894        1.854      872.775
01/24/2015  05:32:00       16.307      114.786      -23.716       25.772       27.293       15.600      664.181      744.903      243.363        0.783        0.083      115.939       13.364        0.013      332.831        1.751      872.811
01/24/2015  05:33:00        5.664       88.980      -22.282       55.368       43.355       24.932     3065.575     1879.658      621.612        0.701        0.278       89.160       31.535        0.125      332.833        1.754      872.842
01/24/2015  05:34:00      -76.464        8.350       -5.133       18.220       36.654        9.950      331.979     1343.536       98.996        0.386        0.089       76.918        6.929        0.008      332.676        1.495      872.856
01/24/2015  05:35:00      -54.677      -27.144       -7.341       27.855       22.754       17.505      775.923      517.756      306.422        0.269        0.080       61.044       13.275        0.047      332.642        1.437      872.885
01/24/2015  05:36:00        3.943      -19.127        2.349       15.631       24.877       10.288      244.334      618.846      105.850        0.068        0.048       19.529        9.942        0.259      332.641        1.436      872.920
01/24/2015  05:37:00        9.040      -10.250        4.048       35.599       40.486       17.617     1267.267     1639.117      310.374        0.171        0.161       13.667       26.547        3.773      332.797        1.697      872.963
01/24/2015  05:38:00        8.216       91.138      -14.500       33.342       38.589       23.700     1111.664     1489.091      561.675        0.587        0.158       91.508       19.884        0.047      332.878        1.828      873.014
01/24/2015  05:39:00      -10.980      118.592      -14.714       40.622       54.585       29.502     1650.149     2979.524      870.393        0.995        0.275      119.099       33.732        0.080      332.993        2.017      873.026
01/24/2015  05:40:00       49.373       96.669        4.616       52.867       76.400       39.189     2794.909     5836.932     1535.780        1.098        0.508      108.547       33.871        0.097      332.958        1.958      873.043
01/24/2015  05:41:00       10.148       69.792       -0.863       36.433       40.116       26.371     1327.354     1609.298      695.405        0.430        0.182       70.526       19.818        0.079      332.937        1.926      873.040
01/24/2015  05:42:00      -21.879       84.495      -13.784       20.744       25.880       13.415      430.308      669.775      179.973        0.454        0.064       87.282        9.118        0.011      333.017        2.058      873.041
01/24/2015  05:43:00      -11.437       76.718       -7.767       20.200       20.741       16.002      408.043      430.198      256.055        0.359        0.055       77.566        8.605        0.012      333.141        2.261      873.075
01/24/2015  05:44:00       21.815      104.747      -10.939       25.871       46.698       26.422      669.310     2180.725      698.106        0.756        0.177      106.995       31.464        0.086      333.019        2.061      873.120
01/24/2015  05:45:00       -7.120      101.403      -17.797       23.411       22.060       10.977      548.068      486.624      120.497        0.590        0.058      101.653       11.168        0.012      333.237        2.419      873.151
01/24/2015  05:46:00       39.720      105.977      -21.375       33.429       37.925       16.966     1117.466     1438.308      287.839        0.805        0.142      113.176       16.173        0.020      333.312        2.545      873.181
01/24/2015  05:47:00       26.718       25.645        2.237       24.879       25.340       16.736      618.972      642.129      280.105        0.146        0.077       37.034       13.545        0.134      333.039        2.093      873.237
01/24/2015  05:48:00        6.069      -29.785        9.818       35.001      102.883       42.453     1225.094    10584.859     1802.287        0.731        0.681       30.397       45.801        2.270      332.247        0.785      873.312
01/24/2015  05:49:00       29.738     -108.587      -22.379       57.236       53.608       33.141     3275.982     2873.858     1098.313        1.021        0.362      112.586       30.063        0.071      331.974        0.335      873.365
01/24/2015  05:50:00      -39.691      -24.421        2.183       49.191       44.970       23.680     2419.744     2022.294      560.752        0.359        0.250       46.603       17.644        0.143      331.823        0.086      873.385
01/24/2015  05:51:00     -161.439      -95.590       -5.182       49.629       50.225       32.832     2463.010     2522.594     1077.962        2.064        0.303      187.617       21.892        0.014      331.487       -0.467      873.376
01/24/2015  05:52:00     -110.449      -87.177        3.635       55.224       42.041       29.407     3049.663     1767.451      864.774        1.275        0.284      140.708       25.556        0.033      331.549       -0.365      873.371
01/24/2015  05:53:00     -107.350      -83.263       -1.835       52.038       47.564       20.871     2707.954     2262.289      435.595        1.193        0.270      135.855       19.891        0.021      331.682       -0.143      873.389
01/24/2015  05:54:00       19.926      -58.347       -3.793       41.610       37.926       25.581     1731.372     1438.359      654.400        0.382        0.191       61.656       25.140        0.166      331.802        0.053      873.443
01/24/2015  05:55:00       -7.671     -104.394      -11.428       66.607       56.013       43.465     4436.441     3137.479     1889.220        1.027        0.473      104.675       36.703        0.123      331.737       -0.056      873.468
01/24/2015  05:56:00      -99.085     -160.937       -3.030       56.197       85.464       33.850     3158.156     7304.057     1145.840        2.367        0.580      188.994       20.140        0.011      331.697       -0.121      873.503
01/24/2015  05:57:00     -132.357      -96.954       -4.003       71.463       60.970       26.901     5106.903     3717.304      723.666        1.824        0.477      164.069       22.756        0.019      331.540       -0.381      873.512
01/24/2015  05:58:00     -109.994      -97.210        5.798       70.307       67.156       37.843     4943.082     4509.913     1432.080        1.623        0.544      146.794       34.915        0.057      331.490       -0.463      873.532
01/24/2015  05:59:00     -108.046      -73.767        0.088       75.799       50.158       36.844     5745.545     2515.814     1357.481        1.337        0.481      130.827       34.903        0.071      331.523       -0.408      873.567
01/24/2015  06:00:00     -123.660      -98.851       -0.358       58.560       58.512       35.632     3429.233     3423.659     1269.672        1.659        0.406      158.314       34.074        0.046      331.530       -0.396      873.605
01/24/2015  06:01:00     -143.981     -104.326        0.840       45.573       41.230       32.017     2076.873     1699.896     1025.065        1.821        0.240      177.804       27.220        0.023      331.659       -0.184      873.635
01/24/2015  06:02:00     -185.075     -108.145       -9.344       58.739       42.739       29.466     3450.262     1826.625      868.259        2.609        0.307      214.355       29.293        0.019      331.680       -0.151      873.648
01/24/2015  06:03:00     -182.212      -49.033       -4.803       52.383       58.068       32.485     2744.031     3371.883     1055.301        2.140        0.359      188.694       30.065        0.025      331.649       -0.202      873.660
01/24/2015  06:04:00     -151.485      -35.028        3.731       70.321       56.507       32.212     4944.995     3193.059     1037.606        1.668        0.459      155.482       34.847        0.050      331.654       -0.192      873.685
01/24/2015  06:05:00      -97.571      -24.556       -3.886       37.905       44.583       22.693     1436.785     1987.665      514.992        0.704        0.197      100.613       23.549        0.055      331.669       -0.166      873.718
01/24/2015  06:06:00      -76.244      -36.843        2.437       45.410       37.185       19.341     2062.076     1382.701      374.090        0.550        0.191       84.679       12.929        0.023      331.764       -0.010      873.739
01/24/2015  06:07:00      -78.371      -89.797       -5.676       37.619       36.985       28.989     1415.227     1367.860      840.334        0.893        0.181      119.187       24.490        0.042      331.767       -0.005      873.759
01/24/2015  06:08:00      -72.274      -50.197        5.927       57.230       28.925       25.759     3275.317      836.678      663.509        0.628        0.239       87.996       24.089        0.075      331.661       -0.180      873.782
01/24/2015  06:09:00      -68.083      -71.074       -2.843       34.861       25.356       21.261     1215.260      642.915      452.017        0.600        0.116       98.421       19.543        0.039      331.706       -0.105      873.810
01/24/2015  06:10:00      -60.274      -44.021        4.358       46.052       29.295       20.547     2120.777      858.182      422.188        0.449        0.170       74.638       24.663        0.109      331.731       -0.064      873.826
01/24/2015  06:11:00      -60.597      -32.814        3.127       46.202       28.411       18.381     2134.621      807.190      337.866        0.402        0.164       68.912       22.323        0.105      331.671       -0.161      873.850
01/24/2015  06:12:00      -38.858      -31.731        6.526       34.995       20.852       20.419     1224.647      434.823      416.947        0.232        0.104       50.168       22.449        0.200      331.660       -0.179      873.873
01/24/2015  06:13:00      -14.423      -35.390        8.354       24.128       30.481       16.990      582.142      929.080      288.673        0.166        0.090       38.216       15.112        0.156      331.699       -0.117      873.909
01/24/2015  06:14:00      -47.647      -47.161        1.201       24.957       19.466       14.844      622.854      378.931      220.348        0.286        0.061       67.040       12.496        0.035      331.714       -0.094      873.951
01/24/2015  06:15:00      -27.828      -52.084       -7.097       26.433       23.512       15.646      698.706      552.817      244.808        0.252        0.075       59.052        9.294        0.025      331.843        0.119      873.988
01/24/2015  06:16:00      -46.585      -49.016       -1.894       29.874       20.454       17.470      892.460      418.362      305.195        0.310        0.081       67.622       11.798        0.030      331.815        0.074      874.008
01/24/2015  06:17:00      -78.544      -52.116        1.264       27.452       27.538       13.845      753.632      758.316      191.693        0.529        0.085       94.262        8.171        0.008      331.684       -0.140      874.036
01/24/2015  06:18:00      -77.787      -37.672       -1.878       29.809       19.381       17.486      888.555      375.611      305.773        0.452        0.078       86.430       15.679        0.033      331.607       -0.269      874.052
01/24/2015  06:19:00      -57.815      -13.077       -5.832       18.693       14.179       10.471      349.440      201.057      109.638        0.210        0.033       59.275       11.197        0.036      331.614       -0.257      874.093
01/24/2015  06:20:00      -30.949      -10.714        2.350       18.836       17.833       12.560      354.777      318.001      157.742        0.095        0.042       32.751       11.190        0.117      331.624       -0.239      874.138
01/24/2015  06:21:00      -23.582       27.197       -1.591       19.998       22.669       15.045      399.940      513.878      226.365        0.122        0.057       35.997       11.744        0.106      331.695       -0.123      874.184
01/24/2015  06:22:00       -5.262       69.281       -5.065        6.748       12.753        9.587       45.538      162.646       91.901        0.258        0.015       69.481        7.167        0.011      331.606       -0.270      874.222
01/24/2015  06:23:00       -8.191       76.897       -9.607        5.525        7.709        6.350       30.528       59.421       40.328        0.310        0.007       77.332        4.381        0.003      331.636       -0.220      874.261
01/24/2015  06:24:00      -14.236       74.126      -10.464       10.534       11.801        7.284      110.964      139.272       53.058        0.306        0.015       75.481        4.852        0.004      331.512       -0.425      874.302
01/24/2015  06:25:00      -62.340       21.329       -3.746       18.743       23.268        9.967      351.289      541.400       99.336        0.267        0.050       65.888        7.558        0.013      331.662       -0.179      874.333
01/24/2015  06:26:00      -65.009        9.845       -6.949        9.268       12.202        8.280       85.890      148.898       68.566        0.234        0.015       65.750        5.917        0.008      331.656       -0.188      874.370
01/24/2015  06:27:00      -79.697       16.281      -11.155       10.254       11.511        6.603      105.150      132.507       43.600        0.351        0.014       81.343        2.982        0.001      331.722       -0.081      874.401
01/24/2015  06:28:00      -74.025       27.012       -8.636       14.361       15.516       11.040      206.230      240.733      121.881        0.343        0.028       78.799        6.696        0.007      331.614       -0.258      874.426
01/24/2015  06:29:00      -64.885       11.466       -4.615       14.864       15.733       13.093      220.947      247.530      171.420        0.250        0.032       65.890       10.031        0.023      331.604       -0.273      874.441
01/24/2015  06:30:00      -85.465      -30.840       -8.276       19.528       23.131       10.171      381.333      535.039      103.456        0.467        0.051       90.859        7.538        0.007      331.529       -0.399      874.461
01/24/2015  06:31:00      -88.972      -31.059        0.655       25.848       25.598       16.325      668.097      655.277      266.514        0.524        0.079       94.238       13.614        0.021      331.477       -0.482      874.490
01/24/2015  06:32:00      -72.760      -15.845       -1.326       34.339       26.739       18.748     1179.198      714.985      351.502        0.390        0.112       74.465       18.987        0.065      331.570       -0.330      874.513
01/24/2015  06:33:00      -68.169      -29.313       -6.982       30.565       31.320       19.447      934.196      980.956      378.181        0.392        0.115       74.204       19.918        0.072      331.549       -0.365      874.547
01/24/2015  06:34:00      -87.028      -24.099      -12.654       23.815       19.336       17.014      567.133      373.889      289.488        0.477        0.062       90.303       15.949        0.031      331.565       -0.337      874.584
01/24/2015  06:35:00      -94.687      -16.629       -6.968       20.191       21.786       17.150      407.694      474.626      294.111        0.523        0.059       96.136       13.017        0.018      331.592       -0.295      874.634
01/24/2015  06:36:00      -96.641      -28.316        0.226       33.767       24.113       16.817     1140.222      581.439      282.812        0.607        0.100      100.704       16.411        0.027      331.548       -0.366      874.683
01/24/2015  06:37:00      -67.864       -8.567        1.601       23.145       20.086       15.581      535.697      403.456      242.783        0.293        0.059       68.403       12.287        0.032      331.581       -0.314      874.723
01/24/2015  06:38:00     -123.683      -10.168      -13.230       19.765       21.703       13.361      390.674      471.038      178.504        0.831        0.052      124.100        9.347        0.006      331.848        0.126      874.769
01/24/2015  06:39:00     -158.047        1.484      -18.188       31.983       20.325       15.899     1022.911      413.120      252.777        1.350        0.084      158.054       15.129        0.009      331.810        0.065      874.799
01/24/2015  06:40:00     -184.876       -0.283      -22.859       25.441       25.808       11.399      647.244      666.035      129.932        1.807        0.072      184.876        7.719        0.002      331.830        0.099      874.835
01/24/2015  06:41:00     -175.322       26.165      -16.473       20.353       23.853       14.516      414.249      568.963      210.727        1.644        0.060      177.264        7.937        0.002      331.861        0.149      874.888
01/24/2015  06:42:00     -162.468       -1.807      -15.865       28.497       30.687       18.966      812.099      941.710      359.716        1.438        0.106      162.478       16.659        0.011      331.853        0.136      874.923
01/24/2015  06:43:00     -133.726      -46.070      -12.550       21.575       25.642       15.258      465.501      657.531      232.792        1.076        0.068      141.439        9.421        0.004      331.814        0.072      874.929
01/24/2015  06:44:00     -118.408      -42.231       -3.325       22.629       30.136       17.049      512.050      908.178      290.675        0.876        0.086      125.714       13.297        0.011      331.815        0.075      874.950
01/24/2015  06:45:00      -97.720      -29.871       -5.670       15.165       16.161       11.610      229.983      261.181      134.802        0.555        0.031      102.183        7.239        0.005      331.817        0.077      874.989
01/24/2015  06:46:00     -100.559      -45.993       -2.439       12.288       14.087        9.995      150.997      198.445       99.906        0.634        0.022      110.578        7.212        0.004      331.892        0.200      875.023
01/24/2015  06:47:00      -75.949      -45.902        1.886       34.367       20.451       15.365     1181.110      418.228      236.069        0.486        0.092       88.743       17.620        0.039      331.948        0.292      875.042
01/24/2015  06:48:00      -54.173      -44.365        5.454       35.965       28.419       17.139     1293.449      807.649      293.737        0.366        0.120       70.022       17.832        0.065      332.092        0.531      875.061
01/24/2015  06:49:00      -28.319      -24.733        8.191       36.276       28.077       17.639     1315.938      788.342      311.145        0.195        0.121       37.599       17.047        0.206      332.031        0.429      875.092
01/24/2015  06:50:00      -58.028      -31.422        0.645       30.081       22.536       14.035      904.879      507.862      196.984        0.298        0.080       65.989       12.296        0.035      332.245        0.781      875.131
01/24/2015  06:51:00      -81.619      -51.937       -1.919       13.850       14.644       12.571      191.822      214.451      158.041        0.496        0.028       96.743        5.305        0.003      332.201        0.710      875.164
01/24/2015  06:52:00      -52.444      -46.027       -4.667       15.096       11.194        8.618      227.894      125.308       74.278        0.266        0.021       69.777        6.975        0.010      332.099        0.542      875.200
01/24/2015  06:53:00      -28.550      -47.282        3.164       27.877       17.006        9.385      777.140      289.203       88.083        0.211        0.058       55.233        8.236        0.022      332.251        0.793      875.235
01/24/2015  06:54:00       -2.242      -22.698       12.508       13.859        8.414        8.793      192.069       70.788       77.313        0.051        0.017       22.809        7.507        0.108      332.167        0.656      875.258
01/24/2015  06:55:00      -24.485      -27.501       -5.130       17.238        8.403        6.911      297.142       70.606       47.760        0.090        0.021       36.821        4.152        0.013      332.125        0.585      875.271
01/24/2015  06:56:00      -75.201      -34.993       -6.908       19.184       20.651       12.090      368.036      426.463      146.162        0.393        0.047       82.944        8.947        0.012      331.913        0.235      875.285
01/24/2015  06:57:00      -64.568      -38.468        5.165       31.345       28.026       20.637      982.497      785.448      425.890        0.393        0.110       75.158       19.434        0.067      331.749       -0.035      875.301
01/24/2015  06:58:00      -49.058      -51.514        3.487       34.530       28.746       17.584     1192.320      826.320      309.208        0.370        0.116       71.136       12.869        0.033      331.750       -0.033      875.325
01/24/2015  06:59:00      -52.707      -39.348       -0.260       29.020       22.873       14.637      842.173      523.188      214.252        0.295        0.079       65.774       15.946        0.059      331.808        0.062      875.345
01/24/2015  07:00:00      -49.646      -59.466        0.481       39.756       26.963       17.996     1580.541      726.984      323.865        0.432        0.132       77.466       16.794        0.047      331.735       -0.059      875.368
01/24/2015  07:01:00     -101.254     -103.252       -4.674       35.976       27.368       21.481     1294.288      749.008      461.414        1.172        0.125      144.614       14.923        0.011      331.602       -0.276      875.379
01/24/2015  07:02:00      -72.215      -97.833       -6.822       27.177       39.429       23.230      738.604     1554.624      539.638        0.883        0.142      121.598       12.941        0.011      331.614       -0.257      875.380
01/24/2015  07:03:00      -62.640      -79.522       -2.127       34.983       50.080       23.115     1223.781     2507.965      534.294        0.726        0.213      101.230       17.993        0.032      331.559       -0.349      875.379
01/24/2015  07:04:00      -33.935      -76.509        2.027       63.807       33.650       22.242     4071.305     1132.300      494.711        0.635        0.285       83.697       15.101        0.033      331.501       -0.444      875.364
01/24/2015  07:05:00      -41.339      -70.333        9.074       51.265       54.137       31.090     2628.094     2930.788      966.615        0.663        0.326       81.582       25.451        0.097      331.291       -0.788      875.342
01/24/2015  07:06:00      -39.204      -66.350      -10.752       60.713       43.682       35.375     3686.016     1908.106     1251.413        0.645        0.342       77.067       31.345        0.165      331.270       -0.822      875.320
01/24/2015  07:07:00     -101.182      -60.750       -8.718       44.307       28.863       23.969     1963.093      833.047      574.496        0.869        0.169      118.019       18.922        0.026      331.249       -0.856      875.309
01/24/2015  07:08:00      -93.942      -75.154       -2.494       38.336       37.204       23.074     1469.685     1384.124      532.410        0.893        0.169      120.304       15.737        0.017      331.206       -0.927      875.304
01/24/2015  07:09:00     -109.985      -87.526       -0.361       52.852       35.226       28.994     2793.286     1240.868      840.655        1.232        0.244      140.561       23.101        0.027      331.099       -1.105      875.302
01/24/2015  07:10:00      -85.507      -74.890        3.053       45.851       34.389       27.457     2102.328     1182.605      753.871        0.848        0.202      113.666       25.420        0.050      331.142       -1.035      875.287
01/24/2015  07:11:00     -107.296      -68.859        4.304       48.799       34.440       26.558     2381.320     1186.098      705.316        1.027        0.214      127.492       22.752        0.032      331.133       -1.049      875.277
01/24/2015  07:12:00      -46.849      -42.363        2.897       55.785       43.484       30.283     3111.936     1890.845      917.080        0.496        0.296       63.162       35.014        0.307      331.137       -1.042      875.257
01/24/2015  07:13:00      -97.724      -78.174       -3.104       33.571       28.529       18.236     1127.041      813.924      332.570        0.897        0.114      125.145       12.242        0.010      331.096       -1.109      875.233
01/24/2015  07:14:00      -98.184      -65.040       -0.775       25.483       36.845       18.422      649.391     1357.567      339.372        0.811        0.117      117.772       15.367        0.017      331.141       -1.034      875.203
01/24/2015  07:15:00      -96.692      -41.893       -7.516       34.200       26.536       16.278     1169.651      704.171      264.963        0.665        0.107      105.377       11.766        0.012      331.146       -1.027      875.170
01/24/2015  07:16:00      -66.585      -58.638        0.408       55.991       31.827       27.378     3135.011     1012.967      749.567        0.638        0.245       88.725       29.450        0.110      331.182       -0.968      875.148
01/24/2015  07:17:00      -74.861      -60.129        0.583       40.463       28.115       17.457     1637.248      790.435      304.738        0.598        0.137       96.019       12.380        0.017      331.215       -0.913      875.126
01/24/2015  07:18:00     -107.618      -33.718       -1.000       35.075       29.345       19.445     1230.236      861.142      378.105        0.759        0.123      112.777       16.424        0.021      331.211       -0.920      875.105
01/24/2015  07:19:00     -146.835      -41.549      -11.302       24.098       19.633       14.180      580.692      385.443      201.069        1.229        0.058      152.600       11.608        0.006      331.180       -0.971      875.092
01/24/2015  07:20:00     -131.713      -53.388      -10.347       27.512       22.015       14.569      756.917      484.643      212.246        1.088        0.073      142.121       10.100        0.005      331.146       -1.028      875.090
01/24/2015  07:21:00     -116.672      -44.936      -12.275       16.755       23.618       15.142      280.717      557.833      229.286        0.842        0.053      125.027       12.156        0.009      331.116       -1.077      875.090
01/24/2015  07:22:00     -128.258      -28.023      -18.086       15.433       16.108       12.302      238.191      259.460      151.342        0.911        0.032      131.283        7.997        0.004      331.102       -1.100      875.091
01/24/2015  07:23:00     -142.465      -20.832      -16.703       10.709        9.391        7.938      114.685       88.189       63.014        1.064        0.013      143.980        4.651        0.001      331.071       -1.151      875.085
01/24/2015  07:24:00     -110.258      -55.792       -5.314       27.372       29.700       18.128      749.230      882.118      328.621        0.863        0.098      123.571        9.288        0.006      331.075       -1.144      875.075
01/24/2015  07:25:00     -118.304      -60.422       -8.013       35.859       25.059       16.717     1285.857      627.937      279.463        0.995        0.110      132.841        9.671        0.005      331.055       -1.177      875.060
01/24/2015  07:26:00     -144.940      -57.660      -11.423       25.825       24.133       19.553      666.936      582.416      382.306        1.305        0.082      155.988       11.801        0.006      331.006       -1.256      875.059
01/24/2015  07:27:00     -110.989      -47.091        2.994       27.797       23.337       15.760      772.661      544.628      248.393        0.806        0.078      120.566       15.665        0.017      331.050       -1.185      875.046
01/24/2015  07:28:00     -106.630      -61.542       -6.863       19.533       17.489       14.817      381.530      305.862      219.533        0.806        0.045      123.115        7.293        0.004      331.137       -1.043      875.030
01/24/2015  07:29:00      -71.295      -48.686        0.762       34.846       26.891       16.778     1214.237      723.102      281.485        0.484        0.111       86.333       12.277        0.020      331.151       -1.020      875.017
01/24/2015  07:30:00      -79.495      -55.145       -4.023       29.459       23.653       18.886      867.822      559.472      356.693        0.558        0.089       96.750       17.937        0.034      331.191       -0.953      875.004
01/24/2015  07:31:00     -104.316      -33.236      -11.033       23.714       16.156       12.592      562.365      261.030      158.552        0.654        0.049      109.483       10.974        0.010      331.182       -0.968      874.999
01/24/2015  07:32:00      -66.693      -23.540       -0.779       17.970       14.696       10.317      322.931      215.958      106.433        0.282        0.032       70.726        9.738        0.019      331.178       -0.975      874.976
01/24/2015  07:33:00      -52.222      -24.930        2.390       39.745       18.202       11.991     1579.628      331.330      143.776        0.270        0.103       57.868       15.355        0.070      331.235       -0.882      874.955
01/24/2015  07:34:00      -18.058      -10.873       17.361       22.190       16.893       15.716      492.413      285.374      247.000        0.089        0.051       21.078        7.961        0.143      331.301       -0.772      874.942
01/24/2015  07:35:00      -65.711      -68.835        0.110       36.762       40.576       20.733     1351.411     1646.424      429.872        0.624        0.171       95.164        7.938        0.007      331.553       -0.357      874.919
01/24/2015  07:36:00      -41.769      -36.983        5.638       38.413       20.441       18.200     1475.544      417.842      331.223        0.268        0.111       55.788       15.871        0.081      331.596       -0.286      874.894
01/24/2015  07:37:00       13.572      -16.438       14.257       24.523       26.289       18.317      601.387      691.089      335.522        0.114        0.081       21.317       12.818        0.362      331.683       -0.143      874.880
01/24/2015  07:38:00       -1.039        7.140        3.176       18.206       17.490       19.007      331.475      305.914      361.261        0.053        0.050        7.215        7.097        0.967      331.703       -0.111      874.868
01/24/2015  07:39:00      -10.998      -15.672       -6.734       14.342       17.342        9.996      205.704      300.737       99.919        0.051        0.030       19.147       10.103        0.278      331.673       -0.160      874.849
01/24/2015  07:40:00      -21.368       -0.784       -4.364       24.350       24.204       10.974      592.923      585.843      120.437        0.089        0.065       21.382        9.901        0.214      331.640       -0.214      874.855
01/24/2015  07:41:00       -4.738       23.946        7.606       20.475       29.202       17.488      419.207      852.755      305.830        0.112        0.079       24.410        8.766        0.129      331.672       -0.161      874.864
01/24/2015  07:42:00      -11.375       36.492       58.817       17.725       25.196       18.299      314.160      634.815      334.837        0.310        0.064       38.224       15.184        0.158      331.685       -0.140      874.864
01/24/2015  07:43:00        2.408      -35.666       13.001       18.062       33.648       20.557      326.230     1132.209      422.604        0.166        0.094       35.747       19.855        0.309      331.715       -0.090      874.850
01/24/2015  07:44:00        0.720       32.535       52.845       16.652       23.672       16.252      277.296      560.355      264.133        0.248        0.055       32.543       15.223        0.219      331.707       -0.103      874.845
01/24/2015  07:45:00       11.732       47.039       53.776       20.419       26.393       12.160      416.929      696.592      147.868        0.325        0.063       48.479        8.044        0.028      331.526       -0.402      874.842
01/24/2015  07:46:00       11.090       15.891       30.822       28.777       30.383       16.322      828.138      923.149      266.412        0.167        0.101       19.378       16.733        0.746      331.579       -0.313      874.828
01/24/2015  07:47:00      -29.643      -17.748       -3.794       19.021       13.855        8.815      361.789      191.958       77.709        0.092        0.032       34.550        9.910        0.082      331.591       -0.296      874.823
01/24/2015  07:48:00        1.297       -1.356        7.513       15.920        8.438        9.055      253.453       71.199       81.989        0.023        0.020        1.876        8.790       21.951      331.720       -0.081      874.806
01/24/2015  07:49:00       -7.938       -2.507       14.754       11.101        9.220       13.287      123.242       85.012      176.542        0.034        0.019        8.324        9.979        1.437      331.852        0.135      874.789
01/24/2015  07:50:00       15.211      -21.525        8.536       26.729       36.917       24.642      714.457     1362.851      607.207        0.173        0.134       26.357       22.040        0.699      331.752       -0.030      874.744
01/24/2015  07:51:00      -16.189        4.245       24.095       15.599       17.047       20.733      243.341      290.590      429.845        0.091        0.048       16.737       18.064        1.165      331.838        0.111      874.698
01/24/2015  07:52:00      -16.855       18.481       10.421        9.600       13.641       13.579       92.156      186.085      184.383        0.060        0.023       25.012        7.733        0.096      331.724       -0.075      874.674
01/24/2015  07:53:00      -12.184       12.228       16.901        8.556        9.791        9.791       73.198       95.872       95.868        0.042        0.013       17.262        3.931        0.052      331.931        0.266      874.659
01/24/2015  07:54:00      -12.171        7.739       21.191        8.935       14.022       13.227       79.831      196.629      174.948        0.055        0.023       14.423       11.854        0.675      332.043        0.449      874.664
01/24/2015  07:55:00       -8.108       15.269       47.104        9.849       16.774       16.434       96.999      281.355      270.088        0.158        0.032       17.288       14.933        0.746      332.158        0.639      874.670
01/24/2015  07:56:00       10.925       21.590       42.588       28.550       22.578       21.369      815.093      509.769      456.623        0.209        0.089       24.197       16.453        0.462      332.084        0.518      874.673
01/24/2015  07:57:00        7.317        7.240       41.270       34.112       21.908       16.575     1163.623      479.982      274.745        0.186        0.096       10.294       16.966        2.716      332.113        0.564      874.684
01/24/2015  07:58:00      -14.270       -5.270       17.018       15.572       14.435       15.134      242.501      208.358      229.045        0.060        0.034       15.212       13.129        0.745      331.974        0.337      874.701
01/24/2015  07:59:00      -11.539       -2.982        4.351       15.750       11.075        6.597      248.057      122.662       43.524        0.029        0.021       11.918        2.438        0.042      331.862        0.151      874.715
01/24/2015  08:00:00      -15.778       -1.195        2.934       13.594       12.398       10.165      184.785      153.721      103.318        0.035        0.022       15.823       10.438        0.435      331.932        0.266      874.718
01/24/2015  08:01:00      -28.917       -0.056       -2.313       12.719       12.018        8.235      161.771      144.443       67.813        0.061        0.019       28.917        4.002        0.019      331.750       -0.033      874.714
01/24/2015  08:02:00       -6.136       -0.515        2.456       19.153        7.869        8.934      366.819       61.922       79.816        0.028        0.025        6.158        8.063        1.714      332.012        0.396      874.704
01/24/2015  08:03:00       -7.134       -7.396        8.841       10.986        7.673        7.026      120.698       58.870       49.371        0.021        0.011       10.276        7.714        0.563      332.252        0.795      874.692
01/24/2015  08:04:00      -36.102      -22.227       -3.311       15.384       14.439       11.981      236.674      208.497      143.555        0.120        0.029       42.396        9.695        0.052      331.888        0.194      874.683
01/24/2015  08:05:00      -53.652       13.741       -6.134       19.756        9.879        9.208      390.280       97.599       84.781        0.184        0.029       55.384        4.882        0.008      331.752       -0.030      874.670
01/24/2015  08:06:00      -57.066        6.291       -4.119       18.447       17.578        9.463      340.281      308.997       89.551        0.203        0.037       57.411        4.875        0.007      331.737       -0.054      874.652
01/24/2015  08:07:00      -21.181        4.599       -2.181       11.270       13.368       10.368      127.016      178.711      107.493        0.044        0.021       21.675        6.194        0.082      331.931        0.265      874.652
01/24/2015  08:08:00      -16.102        1.293        1.996       14.789       13.433       12.821      218.707      180.434      164.371        0.041        0.028       16.154        8.779        0.295      332.220        0.742      874.645
01/24/2015  08:09:00      -16.908       13.334        0.527       10.317       11.023       12.598      106.443      121.511      158.698        0.043        0.019       21.533        7.371        0.117      332.052        0.465      874.637
01/24/2015  08:10:00      -16.678       -1.394       -6.224       13.140        6.420        6.102      172.646       41.213       37.230        0.028        0.013       16.737        6.655        0.158      332.050        0.461      874.637
01/24/2015  08:11:00       -5.722        0.026        4.559        5.684        4.612        5.742       32.302       21.273       32.970        0.007        0.004        5.722        2.990        0.273      332.354        0.963      874.644
01/24/2015  08:12:00       -4.306        1.017        9.318        7.882        4.515       10.689       62.124       20.382      114.256        0.015        0.010        4.425        7.204        2.650      332.547        1.281      874.633
01/24/2015  08:13:00        9.229        8.819       19.418       16.521       10.810       11.561      272.928      116.847      133.666        0.053        0.026       12.765        9.900        0.601      332.564        1.309      874.620
01/24/2015  08:14:00       29.704       20.605       12.090       23.714       17.996       17.276      562.373      323.847      298.452        0.132        0.059       36.151       16.772        0.215      332.380        1.006      874.612
01/24/2015  08:15:00       41.151       23.790        3.638       28.125       21.995       15.077      791.032      483.797      227.318        0.189        0.075       47.532        9.724        0.042      332.213        0.729      874.598
01/24/2015  08:16:00       15.498       13.879       10.165       16.030       14.484       15.474      256.962      209.784      239.445        0.062        0.035       20.804        6.698        0.104      332.396        1.032      874.581
01/24/2015  08:17:00        5.448       30.424       13.664       18.327       25.279       14.920      335.883      639.045      222.619        0.117        0.060       30.908       13.791        0.199      332.463        1.141      874.563
01/24/2015  08:18:00        9.527       25.449       10.443       21.028       17.530       17.867      442.178      307.301      319.228        0.096        0.053       27.174       15.222        0.314      332.518        1.233      874.541
01/24/2015  08:19:00        8.217       13.029        6.831       17.145       11.212       12.375      293.953      125.712      153.150        0.043        0.029       15.403       10.314        0.448      332.589        1.349      874.510
01/24/2015  08:20:00       37.683       20.913       13.657       17.389       16.860       17.740      302.392      284.246      314.705        0.147        0.045       43.097       10.397        0.058      332.422        1.075      874.470
01/24/2015  08:21:00        9.033       12.974       10.377       12.927       13.775       10.249      167.104      189.744      105.045        0.041        0.023       15.809        5.768        0.133      332.506        1.212      874.429
01/24/2015  08:22:00       16.948       14.099       21.823       15.522       15.379        7.895      240.932      236.520       62.338        0.075        0.027       22.046        6.753        0.094      332.727        1.577      874.372
01/24/2015  08:23:00       38.820       31.230       27.910       18.721       15.898       13.114      350.487      252.748      171.971        0.202        0.039       49.823        7.647        0.024      332.502        1.206      874.325
01/24/2015  08:24:00       -3.309      -11.791       -5.134       30.525       28.190       12.280      931.758      794.672      150.801        0.103        0.094       12.247       11.605        0.898      332.419        1.068      874.296
01/24/2015  08:25:00       -0.176        1.527       16.713       33.286       23.323       15.379     1107.984      543.964      236.526        0.108        0.094        1.538        7.958       26.788      332.593        1.356      874.272
01/24/2015  08:26:00       11.186       18.722       34.381       18.304       32.520       14.006      335.042     1057.581      196.162        0.162        0.079       21.809       13.881        0.405      332.648        1.447      874.250
01/24/2015  08:27:00       18.740      -28.537       17.594       27.025       34.283       21.717      730.325     1175.298      471.629        0.193        0.119       34.141       14.080        0.170      332.633        1.422      874.251
01/24/2015  08:28:00        0.560       -4.797       21.293       20.374       19.279       19.564      415.103      371.684      382.752        0.082        0.058        4.830       14.030        8.438      332.653        1.455      874.243
01/24/2015  08:29:00      -42.192        9.031        6.850       37.167       18.526       15.288     1381.372      343.196      233.708        0.193        0.098       43.148       20.433        0.224      332.652        1.453      874.232
01/24/2015  08:30:00      -64.837       13.891      -10.582       21.240       19.343       13.487      451.136      374.152      181.897        0.276        0.050       66.308       10.532        0.025      332.330        0.922      874.217
01/24/2015  08:31:00      -56.502       -9.121       -6.171       32.338       25.257       13.434     1045.736      637.922      180.467        0.259        0.093       57.233        6.720        0.014      332.395        1.028      874.208
01/24/2015  08:32:00      -97.805      -18.892       -7.381       32.368       25.700       16.821     1047.680      660.489      282.934        0.598        0.100       99.612       17.058        0.029      332.377        1.000      874.199
01/24/2015  08:33:00      -94.810       -3.635       -7.337       23.923       18.206       15.888      572.303      331.473      252.436        0.511        0.058       94.879       10.347        0.012      332.299        0.872      874.177
01/24/2015  08:34:00      -64.688       -4.523       -5.988       28.148       15.745       12.325      792.313      247.890      151.893        0.272        0.060       64.845        8.650        0.018      332.405        1.046      874.158
01/24/2015  08:35:00      -80.238        1.987       -9.234       42.833       23.321       16.202     1834.642      543.877      262.493        0.458        0.132       80.263       21.214        0.070      332.487        1.182      874.141
01/24/2015  08:36:00      -59.638      -23.633        0.770       34.541       19.229       16.293     1193.058      369.755      265.449        0.297        0.091       64.150       16.324        0.065      332.631        1.419      874.120
01/24/2015  08:37:00      -26.352      -34.992       -0.861       29.256       23.241       26.119      855.928      540.122      682.210        0.200        0.104       43.805       17.393        0.158      332.668        1.481      874.103
01/24/2015  08:38:00     -110.670      -50.781      -11.248       31.369       17.907       13.152      984.034      320.661      172.975        0.822        0.074      121.765        3.797        0.001      332.582        1.338      874.089
01/24/2015  08:39:00      -67.542      -19.570       -5.090       41.434       34.146       18.359     1716.772     1165.951      337.057        0.409        0.161       70.320       21.096        0.090      332.629        1.416      874.070
01/24/2015  08:40:00      -65.075       16.775      -10.208       25.430       28.403       13.990      646.685      806.708      195.725        0.313        0.082       67.202       11.166        0.028      332.585        1.342      874.049
01/24/2015  08:41:00      -46.604       28.329       -3.228       34.046       32.820       16.634     1159.127     1077.121      276.696        0.275        0.126       54.539       17.806        0.107      332.855        1.790      874.031
01/24/2015  08:42:00      -73.459       15.272      -13.390       29.119       35.665       15.554      847.923     1271.998      241.914        0.408        0.118       75.030       15.730        0.044      332.598        1.366      874.009
01/24/2015  08:43:00      -63.136       34.414      -19.345       23.470       26.267       18.453      550.849      689.979      340.518        0.356        0.079       71.906       11.854        0.027      332.605        1.376      873.988
01/24/2015  08:44:00      -59.863       17.628      -12.073       19.600       23.986       10.252      384.157      575.343      105.106        0.255        0.053       62.404        8.469        0.018      332.725        1.574      873.964
01/24/2015  08:45:00      -25.105       -4.985        5.107       11.162       11.210       12.161      124.591      125.664      147.901        0.054        0.020       25.595        9.649        0.142      332.927        1.909      873.950
01/24/2015  08:46:00      -61.727       -1.879       -9.188       15.917       18.014        8.550      253.352      324.506       73.103        0.227        0.033       61.756        4.444        0.005      332.760        1.632      873.922
01/24/2015  08:47:00      -53.823      -13.826       -4.447       10.924       15.116       11.753      119.340      228.485      138.138        0.180        0.024       55.571        8.938        0.026      332.778        1.663      873.904
01/24/2015  08:48:00       -5.800      -12.463       -0.977       12.830        5.857        8.378      164.607       34.306       70.183        0.023        0.013       13.747        9.341        0.462      332.912        1.883      873.895
01/24/2015  08:49:00        6.255      -12.544       16.140        7.945       12.151       12.389       63.123      147.636      153.477        0.041        0.018       14.017        9.104        0.422      333.380        2.659      873.889
01/24/2015  08:50:00      -16.484        5.105       -3.848       30.509       16.466       17.884      930.819      271.144      319.829        0.092        0.076       17.256       18.595        1.161      333.140        2.260      873.892
01/24/2015  08:51:00      -17.605       -7.019       -3.535       21.006       20.144       13.069      441.247      405.775      170.795        0.069        0.051       18.952        4.538        0.057      333.225        2.401      873.894
01/24/2015  08:52:00      -78.529      -17.984       -6.207       45.090       28.794       20.461     2033.137      829.068      418.647        0.490        0.164       80.562        6.531        0.007      333.067        2.141      873.901
01/24/2015  08:53:00      -94.601       12.203       -0.459       49.428       35.367       25.117     2443.150     1250.828      630.882        0.671        0.216       95.385       25.635        0.072      333.018        2.058      873.904
01/24/2015  08:54:00     -172.455       50.722      -15.394       35.321       28.741       18.615     1247.560      826.027      346.508        1.748        0.121      179.759        8.398        0.002      332.954        1.952      873.907
01/24/2015  08:55:00      -81.711       12.875       -5.426       38.661       33.349       21.652     1494.656     1112.163      468.829        0.497        0.154       82.720       20.830        0.063      333.163        2.297      873.899
01/24/2015  08:56:00      -94.675      -29.002       -5.867       37.639       33.410       20.732     1416.708     1116.224      429.809        0.640        0.148       99.018       15.077        0.023      333.079        2.159      873.887
01/24/2015  08:57:00     -105.434       -9.932      -13.913       26.791       32.333       17.412      717.739     1045.449      303.164        0.674        0.103      105.901       18.469        0.030      333.092        2.182      873.898
01/24/2015  08:58:00     -126.997      -34.502      -17.268       29.990       21.983       18.666      899.416      483.267      348.407        0.967        0.087      131.600       17.004        0.017      333.112        2.214      873.900
01/24/2015  08:59:00     -160.081      -10.692      -22.447       29.718       29.323       20.598      883.182      859.829      424.281        1.421        0.108      160.438       11.213        0.005      333.130        2.244      873.896
01/24/2015  09:00:00     -135.977      -27.877      -11.042       29.296       29.638       24.521      858.260      878.440      601.274        1.086        0.117      138.805       19.694        0.020      333.169        2.307      873.885
01/24/2015  09:01:00     -164.107      -14.869      -15.865       37.772       27.124       26.832     1426.757      735.702      719.958        1.514        0.144      164.779       16.692        0.010      333.192        2.345      873.891
01/24/2015  09:02:00      -54.162       -9.304       -8.286       35.690       49.516       19.467     1273.746     2451.785      378.980        0.360        0.205       54.956       25.236        0.211      333.319        2.556      873.891
01/24/2015  09:03:00      -42.199       70.235      -11.899       24.018       37.839       20.990      576.856     1431.774      440.586        0.465        0.122       81.937       13.520        0.027      333.635        3.079      873.899
01/24/2015  09:04:00      -53.307       13.222      -12.996       36.340       18.336       20.529     1320.596      336.201      421.457        0.263        0.104       54.922       23.548        0.184      333.605        3.028      873.895
01/24/2015  09:05:00      -41.088       17.934       -0.184       30.084       31.376       21.433      905.066      984.456      459.390        0.218        0.117       44.831       20.589        0.211      333.565        2.963      873.879
01/24/2015  09:06:00      -44.158       13.571       -8.732       22.428       29.904       15.930      503.005      894.222      253.762        0.193        0.083       46.197       10.006        0.047      333.680        3.153      873.858
01/24/2015  09:07:00      -89.601      -44.297       -8.697       43.006       34.911       17.250     1849.534     1218.770      297.571        0.672        0.168       99.953       11.771        0.014      333.536        2.915      873.835
01/24/2015  09:08:00      -73.887      -22.251       -3.969       24.902       26.446       14.382      620.118      699.405      206.852        0.375        0.076       77.165       10.212        0.018      333.599        3.018      873.812
01/24/2015  09:09:00      -79.089      -28.105       -0.920       30.921       25.461       17.554      956.099      648.249      308.153        0.448        0.096       83.934       15.850        0.036      333.647        3.099      873.798
01/24/2015  09:10:00      -34.330      -17.078        8.652       22.534       17.642       12.781      507.771      311.232      163.344        0.126        0.049       38.343       13.929        0.132      333.838        3.416      873.783
01/24/2015  09:11:00      -60.552       10.326      -11.542       22.698       29.828       12.516      515.185      889.731      156.656        0.273        0.078       61.427        8.518        0.019      333.749        3.268      873.773
01/24/2015  09:12:00      -16.889        4.002        5.067       30.409       36.748       17.522      924.697     1350.399      307.008        0.145        0.129       17.356       15.915        0.841      334.179        3.983      873.771
01/24/2015  09:13:00      -48.892        8.954       -6.501       24.346       39.491       21.217      592.725     1559.541      450.178        0.256        0.130       49.705       17.038        0.117      334.004        3.691      873.775
01/24/2015  09:14:00      -51.585       62.423       -5.690       24.710       40.876       24.905      610.583     1670.882      620.270        0.475        0.145       80.979       20.654        0.065      334.188        3.995      873.791
01/24/2015  09:15:00      -53.941       -3.258       -1.349       25.067       25.835       19.132      628.369      667.436      366.052        0.229        0.083       54.039       11.605        0.046      334.055        3.775      873.792
01/24/2015  09:16:00      -47.934        1.183       -8.848       34.077       53.652       26.003     1161.230     2878.536      676.157        0.355        0.236       47.949       15.058        0.099      334.114        3.874      873.778
01/24/2015  09:17:00      -77.112        2.088      -11.336       26.659       24.412       21.094      710.694      595.956      444.943        0.392        0.088       77.140       18.090        0.055      334.086        3.828      873.768
01/24/2015  09:18:00      -74.704       25.818      -17.719       36.449       35.009       17.035     1328.537     1225.630      290.179        0.470        0.142       79.040       21.182        0.072      334.111        3.869      873.779
01/24/2015  09:19:00      -39.386       20.542       -7.560       41.651       35.916       16.055     1734.794     1289.935      257.758        0.266        0.164       44.421       22.070        0.247      334.250        4.098      873.786
01/24/2015  09:20:00      -32.148       94.355        0.194       37.283       49.425       34.588     1390.044     2442.784     1196.324        0.748        0.251       99.681       30.894        0.096      334.484        4.487      873.794
01/24/2015  09:21:00      -50.794       95.260       -9.089       35.377       48.151       27.371     1251.540     2318.509      749.167        0.803        0.216      107.956       27.007        0.063      334.525        4.556      873.812
01/24/2015  09:22:00      -68.846      125.416      -10.538       27.030       43.093       31.190      730.611     1856.967      972.826        1.207        0.178      143.070       12.261        0.007      334.407        4.360      873.837
01/24/2015  09:23:00      -29.791       82.982       -2.001       34.266       41.038       28.997     1174.164     1684.078      840.808        0.574        0.185       88.167       22.711        0.066      334.662        4.783      873.873
01/24/2015  09:24:00      -49.042       95.681       -2.795       32.300       37.174       26.482     1043.288     1381.896      701.319        0.735        0.156      107.517       21.535        0.040      334.624        4.719      873.901
01/24/2015  09:25:00      -17.643       83.088        0.235       25.576       36.574       29.080      654.156     1337.666      845.649        0.503        0.142       84.940       22.622        0.071      334.753        4.934      873.930
01/24/2015  09:26:00       -7.724       84.778        0.178       26.196       49.355       31.516      686.227     2435.876      993.256        0.568        0.206       85.129       29.062        0.117      334.742        4.915      873.957
01/24/2015  09:27:00      -21.068      159.448      -12.788       26.123       32.323       25.552      682.426     1044.747      652.893        1.421        0.119      160.834       16.059        0.010      334.611        4.697      873.981
01/24/2015  09:28:00      -72.166      125.387       -8.285       40.838       64.012       31.609     1667.725     4097.593      999.106        1.388        0.338      144.672       35.176        0.059      334.782        4.980      873.996
01/24/2015  09:29:00      -48.427       97.363      -11.757       32.026       36.507       25.005     1025.689     1332.767      625.262        0.747        0.149      108.742       17.960        0.027      334.792        4.997      874.019
01/24/2015  09:30:00      -28.739       79.165       -8.337       49.101       57.347       30.219     2410.887     3288.681      913.209        0.689        0.331       84.220       27.393        0.106      334.804        5.017      874.024
01/24/2015  09:31:00      -10.200      176.976      -24.941       32.587       47.466       27.836     1061.883     2253.013      774.839        1.807        0.204      177.269       26.811        0.023      334.655        4.771      874.017
01/24/2015  09:32:00       -6.474      112.913       -4.975       30.940       67.365       32.264      957.265     4538.026     1040.996        0.968        0.327      113.098       36.292        0.103      334.923        5.217      874.009
01/24/2015  09:33:00      -10.266      106.583       -4.519       29.515       60.880       32.813      871.152     3706.345     1076.673        0.857        0.283      107.076       33.407        0.097      334.981        5.312      873.998
01/24/2015  09:34:00       13.309       96.828       -4.495       37.490       84.155       36.383     1405.512     7081.999     1323.689        0.969        0.491       97.739       45.774        0.219      335.028        5.390      874.005
01/24/2015  09:35:00        3.592      113.378       -6.595       20.137       61.562       31.032      405.514     3789.906      963.006        0.903        0.258      113.435       36.202        0.102      335.099        5.507      874.038
01/24/2015  09:36:00       -3.071       93.868        5.310       40.158       88.226       37.243     1612.675     7783.900     1387.051        0.981        0.539       93.918       35.143        0.140      335.276        5.802      874.063
01/24/2015  09:37:00      -72.007      133.465      -15.641       39.413       52.434       37.099     1553.367     2749.362     1376.299        1.446        0.284      151.650       33.531        0.049      334.966        5.287      874.099
01/24/2015  09:38:00       13.032       29.449       23.068       27.112       27.184       26.954      735.048      738.983      726.503        0.188        0.110       32.203       23.597        0.537      335.555        6.266      874.114
01/24/2015  09:39:00       -4.432       48.955        1.513       17.126       43.186       18.746      293.303     1865.032      351.394        0.246        0.125       49.156       22.220        0.204      335.343        5.914      874.122
01/24/2015  09:40:00       40.785       32.481        7.282       60.743       24.109       29.411     3689.661      581.226      865.031        0.395        0.257       52.139       25.897        0.247      335.325        5.883      874.137
01/24/2015  09:41:00       42.414       31.726        7.995       49.535       23.005       22.038     2453.699      529.229      485.667        0.317        0.173       52.967        9.668        0.033      335.528        6.221      874.132
01/24/2015  09:42:00      123.489       63.137       19.404       49.966       38.882       37.676     2496.584     1511.780     1419.459        1.252        0.271      138.693       26.936        0.038      335.259        5.774      874.130
01/24/2015  09:43:00      147.818       74.519       16.648       66.995       43.522       49.181     4488.335     1894.185     2418.795        1.824        0.440      165.539       34.116        0.042      335.161        5.611      874.127
01/24/2015  09:44:00      118.933       86.587        7.981       58.317       34.848       37.070     3400.866     1214.392     1374.182        1.385        0.299      147.114       15.956        0.012      335.265        5.784      874.127
01/24/2015  09:45:00      124.083       65.208       -4.075       28.947       46.028       24.370      837.911     2118.569      593.908        1.161        0.178      140.173       17.620        0.016      334.961        5.279      874.127
01/24/2015  09:46:00       18.475       22.410        7.804       32.257       38.031       20.452     1040.546     1446.349      418.292        0.190        0.145       29.044       21.389        0.542      335.338        5.906      874.126
01/24/2015  09:47:00      -15.589       42.095        1.221       25.574       18.553       21.668      654.006      344.199      469.519        0.174        0.073       44.888       13.854        0.095      335.286        5.819      874.129
01/24/2015  09:48:00      -22.501       49.407        2.952       20.414       42.049       19.701      416.735     1768.090      388.148        0.276        0.129       54.289       22.800        0.176      335.459        6.107      874.134
01/24/2015  09:49:00       49.603       28.186       11.351       48.452       37.309       31.637     2347.597     1391.988     1000.910        0.406        0.237       57.052       18.583        0.106      335.488        6.155      874.133
01/24/2015  09:50:00       15.207       42.045       43.478       34.167       74.215       45.080     1167.358     5507.933     2032.199        0.630        0.435       44.711       47.027        1.106      335.614        6.365      874.109
01/24/2015  09:51:00        7.613       42.774       76.645       52.071       43.070       24.545     2711.415     1855.046      602.443        0.646        0.258       43.447       27.524        0.401      335.745        6.584      874.094
01/24/2015  09:52:00       58.463       27.191        7.641       24.983       41.973       29.395      624.156     1761.753      864.085        0.373        0.162       64.477       24.639        0.146      335.287        5.820      874.083
01/24/2015  09:53:00       24.283       45.118        5.561       36.208       33.979       27.633     1311.001     1154.556      763.571        0.294        0.161       51.238       22.595        0.194      335.697        6.504      874.059
01/24/2015  09:54:00      138.277       85.366       17.156       61.279       52.527       37.101     3755.070     2759.094     1376.487        1.730        0.395      162.505       23.036        0.020      335.567        6.286      874.030
01/24/2015  09:55:00      110.630      107.487       51.825       73.914       43.254       52.624     5463.244     1870.926     2769.241        1.829        0.505      154.248       43.386        0.079      335.646        6.417      874.013
01/24/2015  09:56:00       20.738       78.977       31.654       61.875       37.858       63.735     3828.527     1433.234     4062.159        0.850        0.466       81.654       33.539        0.169      335.715        6.534      873.991
01/24/2015  09:57:00       40.467       85.917       92.706       52.749       68.285       44.091     2782.418     4662.800     1944.045        1.350        0.469       94.970       39.057        0.169      335.676        6.468      873.968
01/24/2015  09:58:00      112.839       25.249       42.177       53.933       52.266       39.715     2908.742     2731.700     1577.277        1.118        0.361      115.629       35.061        0.092      335.556        6.268      873.946
01/24/2015  09:59:00      147.527       84.049       23.974       46.149       39.979       38.012     2129.761     1598.291     1444.896        1.729        0.259      169.789        9.003        0.003      335.527        6.219      873.931
01/24/2015  10:00:00       89.568       41.362       25.545       76.513       49.403       44.191     5854.258     2440.639     1952.809        1.032        0.512       98.657       35.821        0.132      335.761        6.610      873.917
01/24/2015  10:01:00      108.435      107.257       51.285       55.239       60.731       65.385     3051.318     3688.262     4275.161        1.845        0.551      152.520       29.716        0.038      335.740        6.574      873.914
01/24/2015  10:02:00      107.680       96.176       68.200       50.502       65.456       51.023     2550.412     4284.427     2603.337        1.747        0.472      144.377       38.480        0.071      335.479        6.137      873.921
01/24/2015  10:03:00       39.475       43.357       26.440       43.959       33.235       31.183     1932.423     1104.558      972.404        0.407        0.200       58.636       22.910        0.153      335.688        6.488      873.934
01/24/2015  10:04:00      103.015       55.489        6.812       36.169       41.855       32.719     1308.226     1751.822     1070.564        0.893        0.207      117.009       15.076        0.017      335.593        6.331      873.933
01/24/2015  10:05:00       97.718       65.188       25.762       45.398       35.520       36.757     2060.972     1261.672     1351.083        0.957        0.234      117.466       20.780        0.031      335.718        6.539      873.939
01/24/2015  10:06:00       67.917      106.826        7.732       74.449       73.229       50.824     5542.680     5362.459     2583.086        1.478        0.674      126.588       43.105        0.116      335.697        6.504      873.938
01/24/2015  10:07:00       10.814      161.305      -16.823       39.654       64.722       33.747     1572.445     4188.955     1138.885        1.666        0.345      161.667       38.625        0.057      335.541        6.242      873.922
01/24/2015  10:08:00       24.788       57.591        8.535       59.787       75.338       38.097     3574.502     5675.742     1451.343        0.735        0.535       62.699       22.242        0.126      335.955        6.933      873.902
01/24/2015  10:09:00      187.538       81.683       17.570       77.529       57.975       40.708     6010.819     3361.126     1657.174        2.659        0.551      204.555       24.749        0.015      335.785        6.648      873.882
01/24/2015  10:10:00      188.589      123.737       48.513       77.503       55.128       60.829     6006.691     3039.140     3700.165        3.299        0.637      225.559       49.930        0.049      335.513        6.193      873.880
01/24/2015  10:11:00      130.674       89.229       30.286       54.214       61.186       43.777     2939.159     3743.701     1916.390        1.728        0.430      158.232       30.001        0.036      335.522        6.212      873.881
01/24/2015  10:12:00      165.059      108.062       58.428       42.804       30.254       44.958     1832.210      915.299     2021.215        2.355        0.238      197.286       23.374        0.014      335.444        6.080      873.887
01/24/2015  10:13:00       64.572       59.422       39.263       48.370       36.281       34.321     2339.623     1316.287     1177.911        0.704        0.242       87.753       30.709        0.122      335.831        6.728      873.886
01/24/2015  10:14:00       32.426       67.695       87.773       54.863       49.582       39.343     3009.948     2458.376     1547.842        1.018        0.351       75.060       30.928        0.170      335.969        6.958      873.895
01/24/2015  10:15:00       95.847       94.547       80.573       72.751       61.204       55.657     5292.751     3745.962     3097.650        1.838        0.607      134.632       51.532        0.147      335.604        6.348      873.900
01/24/2015  10:16:00       91.459       67.723       31.700       46.467       47.435       48.687     2159.172     2250.044     2370.395        1.037        0.339      113.803       36.973        0.106      335.645        6.418      873.903
01/24/2015  10:17:00       22.355       48.884       -2.663       43.255       28.673       27.265     1871.035      822.157      743.364        0.317        0.172       53.754       20.909        0.151      335.860        6.774      873.903
01/24/2015  10:18:00       18.529       29.256       31.644       34.985       31.019       25.898     1223.931      962.188      670.684        0.253        0.143       34.630       11.006        0.101      336.109        7.190      873.890
01/24/2015  10:19:00       97.912       75.157        2.026       40.715       31.683       34.042     1657.691     1003.837     1158.890        0.953        0.191      123.431       22.788        0.034      335.648        6.423      873.887
01/24/2015  10:20:00       58.992       36.321        7.100       36.943       37.740       40.454     1364.803     1424.283     1636.527        0.464        0.221       69.277       28.388        0.168      335.745        6.585      873.898
01/24/2015  10:21:00       53.341       24.630        0.676       37.745       35.176       22.052     1424.713     1237.369      486.310        0.330        0.157       58.753       22.865        0.151      335.518        6.205      873.895
01/24/2015  10:22:00       12.862       49.450       50.539       23.456       33.953       19.163      550.197     1152.783      367.208        0.362        0.104       51.095        5.198        0.010      336.293        7.498      873.889
01/24/2015  10:23:00        0.286       20.045       32.429       15.423       19.180       14.829      237.879      367.881      219.909        0.114        0.041       20.047        8.262        0.170      336.540        7.910      873.878
01/24/2015  10:24:00        4.128       79.926        4.819       37.176       62.516       35.379     1382.063     3908.275     1251.651        0.648        0.327       80.032       34.213        0.183      336.273        7.464      873.867
01/24/2015  10:25:00       82.470      110.702        3.778       69.517       46.498       43.943     4832.596     2162.030     1931.027        1.400        0.446      138.045       37.350        0.073      335.863        6.780      873.845
01/24/2015  10:26:00       93.171       89.896       18.188       53.568       43.471       39.970     2869.485     1889.694     1597.576        1.172        0.318      129.469       28.107        0.047      336.096        7.169      873.825
01/24/2015  10:27:00       48.475       76.086      -12.056       58.975       45.928       35.884     3477.998     2109.376     1287.644        0.758        0.344       90.215       38.352        0.181      336.042        7.079      873.812
01/24/2015  10:28:00      -30.780        1.650       11.905       28.511       19.047       20.067      812.896      362.783      402.700        0.133        0.079       30.824       20.706        0.451      336.076        7.137      873.773
01/24/2015  10:29:00       -7.208       20.752       42.865       21.460       27.357       27.598      460.528      748.423      761.652        0.214        0.099       21.969       19.774        0.810      336.632        8.065      873.728
01/24/2015  10:30:00       45.373       87.823       97.481       70.423       50.559       39.739     4959.454     2556.169     1579.190        1.418        0.455       98.851       40.497        0.168      336.449        7.758      873.693
01/24/2015  10:31:00       -3.322       20.297       54.921       55.875       59.510       35.624     3121.994     3541.468     1269.082        0.568        0.397       20.567       19.814        0.928      336.437        7.739      873.666
01/24/2015  10:32:00       50.828       91.652       99.276       65.172       63.301       41.194     4247.435     4006.986     1696.948        1.539        0.498      104.803       31.485        0.090      336.303        7.514      873.654
01/24/2015  10:33:00       88.508      113.367       82.602       54.388       56.434       51.577     2958.053     3184.846     2660.165        1.815        0.440      143.826       47.975        0.111      336.028        7.054      873.655
01/24/2015  10:34:00      101.619       77.271       48.500       42.568       37.353       45.849     1812.042     1395.284     2102.157        1.198        0.265      127.660       30.212        0.056      336.000        7.009      873.666
01/24/2015  10:35:00       79.124       56.008      -12.200       25.068       17.068       19.549      628.391      291.315      382.144        0.542        0.065       96.940       12.978        0.018      335.722        6.548      873.684
01/24/2015  10:36:00       -5.537       66.228       -5.807       22.938       29.384       20.778      526.170      863.410      431.734        0.314        0.091       66.460       18.795        0.080      336.001        7.011      873.674
01/24/2015  10:37:00       38.961       27.472       38.119       29.402       25.637       29.404      864.492      657.241      864.602        0.306        0.119       47.673       21.692        0.207      336.459        7.775      873.678
01/24/2015  10:38:00       34.041       45.686       36.889       44.304       29.017       40.738     1962.864      841.986     1659.583        0.453        0.223       56.974       30.644        0.289      336.332        7.562      873.683
01/24/2015  10:39:00       69.508       62.364       49.522       66.575       44.642       35.102     4432.274     1992.950     1232.158        0.941        0.383       93.385       28.096        0.091      336.321        7.546      873.694
01/24/2015  10:40:00        0.600       -9.081        7.639       41.931       47.501       29.954     1758.170     2256.367      897.234        0.253        0.246        9.101       37.619       17.086      336.080        7.140      873.692
01/24/2015  10:41:00       15.147       75.785        2.874       32.550       71.010       33.247     1059.488     5042.441     1105.343        0.659        0.360       77.284       38.053        0.242      336.334        7.568      873.701
01/24/2015  10:42:00       -2.104       94.313       -4.696       25.761       62.340       31.960      663.637     3886.257     1021.450        0.725        0.279       94.336       38.114        0.163      336.431        7.729      873.691
01/24/2015  10:43:00       31.153       44.482       17.964       51.586       27.524       38.956     2661.100      757.566     1517.551        0.410        0.247       54.306       33.116        0.372      336.509        7.858      873.670
01/24/2015  10:44:00       39.194       31.191       -2.004       26.549       24.614       26.549      704.848      605.849      704.846        0.226        0.101       50.090       11.382        0.052      336.177        7.303      873.642
01/24/2015  10:45:00      -37.022       94.462       -6.320       34.091       34.035       24.995     1162.208     1158.355      624.759        0.664        0.147      101.458       13.243        0.017      336.164        7.283      873.606
01/24/2015  10:46:00      -48.414       14.791        4.287       33.769       15.784       23.998     1140.343      249.129      575.920        0.227        0.098       50.623       21.356        0.178      336.246        7.420      873.559
01/24/2015  10:47:00       37.033       74.942       81.649       35.471       50.139       37.862     1258.197     2513.919     1433.493        0.943        0.260       83.592       36.898        0.195      336.679        8.142      873.518
01/24/2015  10:48:00      105.473      106.251       75.258       66.588       43.498       39.488     4433.933     1892.069     1559.321        1.798        0.394      149.712       32.478        0.047      336.239        7.406      873.475
01/24/2015  10:49:00       59.586       56.555       71.900       45.206       62.354       32.996     2043.565     3888.040     1088.713        0.947        0.351       82.152       29.543        0.129      336.443        7.750      873.442
01/24/2015  10:50:00       40.715       38.913       31.317       48.629       37.611       29.708     2364.794     1414.552      882.543        0.441        0.233       56.319       23.514        0.174      336.479        7.808      873.453
01/24/2015  10:51:00       -2.354       20.981       54.878       25.194       43.348       26.977      634.731     1879.073      727.753        0.335        0.162       21.113       19.095        0.818      337.149        8.928      873.460
01/24/2015  10:52:00       42.767       94.606      107.535       73.734       59.540       36.822     5436.754     3544.990     1355.839        1.634        0.517      103.823       32.071        0.095      336.557        7.938      873.477
01/24/2015  10:53:00       58.837       79.126       93.374       47.420       50.801       37.207     2248.696     2580.755     1384.324        1.233        0.311       98.604       32.018        0.105      336.519        7.876      873.494
01/24/2015  10:54:00       37.111      107.093      107.779       52.745       50.928       31.226     2782.050     2593.691      975.053        1.541        0.318      113.341       28.211        0.062      336.734        8.234      873.509
01/24/2015  10:55:00       95.696       71.848       69.180       63.703       43.574       40.789     4058.083     1898.694     1663.746        1.336        0.381      119.665       38.124        0.102      336.465        7.785      873.522
01/24/2015  10:56:00      125.195       85.392       70.285       68.175       60.536       57.478     4647.858     3664.624     3303.668        1.976        0.581      151.544       48.332        0.102      336.420        7.709      873.527
01/24/2015  10:57:00       76.554      105.415       92.566       72.787       33.106       31.460     5297.916     1095.996      989.743        1.646        0.369      130.280       36.056        0.077      336.286        7.487      873.516
01/24/2015  10:58:00       22.320       57.156       84.731       40.669       42.621       28.502     1653.937     1816.579      812.368        0.761        0.214       61.359       16.467        0.072      336.622        8.048      873.497
01/24/2015  10:59:00       57.628       84.989       69.243       55.698       44.636       45.163     3102.219     1992.367     2039.734        1.124        0.357      102.685       18.741        0.033      336.566        7.954      873.468
01/24/2015  11:00:00       69.441       87.269       59.748       43.289       32.945       37.336     1873.971     1085.366     1393.944        1.018        0.218      111.525       22.720        0.042      336.512        7.864      873.444
01/24/2015  11:01:00      108.816       85.981       32.178       37.338       21.111       31.017     1394.135      445.691      962.038        1.153        0.140      138.685       14.724        0.011      336.348        7.590      873.426
01/24/2015  11:02:00       25.321       32.809       70.505       47.196       59.607       35.601     2227.465     3553.029     1267.443        0.687        0.352       41.444       30.264        0.533      336.773        8.300      873.411
01/24/2015  11:03:00       55.946       49.253       72.992       51.019       81.406       38.019     2602.902     6626.925     1445.449        1.078        0.534       74.537       34.136        0.210      336.807        8.357      873.407
01/24/2015  11:04:00      124.645       95.041       47.298       58.521       43.542       43.005     3424.698     1895.927     1849.466        1.699        0.359      156.745       32.207        0.042      336.511        7.861      873.374
01/24/2015  11:05:00       86.810       88.256       38.122       25.602       31.651       40.997      655.457     1001.810     1680.789        1.006        0.167      123.794       28.736        0.054      336.307        7.523      873.343
01/24/2015  11:06:00       69.251       62.576        4.224       33.683       22.103       22.949     1134.540      488.563      526.678        0.544        0.107       93.335       13.500        0.021      336.460        7.778      873.309
01/24/2015  11:07:00       57.383       48.964       -2.222       21.879       21.112       24.872      478.690      445.699      618.612        0.362        0.077       75.434       10.987        0.021      336.578        7.975      873.279
01/24/2015  11:08:00       13.840       23.662       24.345       24.464       22.390       25.774      598.481      501.305      664.317        0.155        0.088       27.412       24.480        0.797      336.844        8.417      873.260
01/24/2015  11:09:00       -6.899       36.605        3.064       18.766       25.519       21.031      352.144      651.230      442.307        0.142        0.072       37.249       21.209        0.324      336.860        8.445      873.243
01/24/2015  11:10:00        7.434       27.432       32.672       21.288       23.877       21.546      453.198      570.117      464.248        0.168        0.074       28.422       10.141        0.127      337.267        9.126      873.242
01/24/2015  11:11:00       74.232       44.387       -2.768       24.214       24.624       25.713      586.311      606.325      661.133        0.467        0.093       86.490       12.059        0.019      336.472        7.797      873.217
01/24/2015  11:12:00        1.316       34.236       -0.210       21.207       18.393       18.682      449.753      338.301      349.005        0.116        0.057       34.261       14.540        0.180      336.987        8.657      873.200
01/24/2015  11:13:00        0.347        1.479       15.542       15.589       15.101       12.821      243.025      228.052      164.388        0.044        0.032        1.520       10.078       43.984      337.803       10.024      873.179
01/24/2015  11:14:00       -2.141       27.626        8.204       20.632       31.201       22.704      425.693      973.515      515.452        0.137        0.096       27.709       19.016        0.471      337.466        9.460      873.182
01/24/2015  11:15:00       22.378       42.291       35.355       25.385       20.613       28.354      644.395      424.888      803.960        0.271        0.094       47.847       15.022        0.099      337.115        8.871      873.194
01/24/2015  11:16:00       13.226       33.278       10.671       19.493       16.289       17.716      379.988      265.324      313.841        0.118        0.048       35.810       10.095        0.079      336.857        8.440      873.187
01/24/2015  11:17:00       31.417       51.954        8.234       25.243       27.818       21.806      637.198      773.824      475.502        0.282        0.094       60.714       13.605        0.050      337.392        9.335      873.189
01/24/2015  11:18:00       -9.228       15.252       25.502       16.305       32.763       15.322      265.857     1073.399      234.763        0.127        0.079       17.826       17.123        0.923      338.045       10.430      873.168
01/24/2015  11:19:00        1.141       30.207       34.780       40.866       51.932       41.803     1670.016     2696.913     1747.495        0.412        0.306       30.228       38.342        1.609      337.682        9.822      873.141
01/24/2015  11:20:00       52.879       71.025       78.832       58.094       43.095       43.527     3374.954     1857.166     1894.580        1.059        0.356       88.548       39.586        0.200      336.992        8.667      873.098
01/24/2015  11:21:00       97.967       99.288       66.493       64.533       52.165       44.836     4164.472     2721.177     2010.247        1.638        0.445      139.483       39.485        0.080      336.760        8.277      873.065
01/24/2015  11:22:00       69.655       73.304       35.324       44.867       34.104       46.474     2013.056     1163.081     2159.814        0.840        0.267      101.120       36.849        0.133      336.700        8.178      873.028
01/24/2015  11:23:00      102.546       95.243       39.225       42.482       31.358       44.731     1804.718      983.340     2000.824        1.296        0.239      139.953       29.321        0.044      336.769        8.293      872.998
01/24/2015  11:24:00       62.086       33.601       -1.058       46.896       27.326       30.727     2199.220      746.685      944.160        0.444        0.195       70.595        5.553        0.006      336.905        8.521      872.977
01/24/2015  11:25:00       37.060       55.797       45.920       46.668       40.562       39.946     2177.861     1645.243     1595.681        0.601        0.271       66.983       26.714        0.159      337.391        9.332      872.973
01/24/2015  11:26:00       66.767       60.431       15.752       47.704       32.525       35.137     2275.631     1057.876     1234.578        0.646        0.228       90.054       13.937        0.024      337.116        8.874      872.986
01/24/2015  11:27:00       63.721       58.853       -1.556       41.000       30.029       30.131     1680.979      901.771      907.849        0.551        0.175       86.741       20.284        0.055      337.245        9.088      872.993
01/24/2015  11:28:00        6.083       36.762        5.280       17.942       31.222       20.851      321.912      974.838      434.771        0.157        0.087       37.262       22.087        0.351      337.507        9.528      873.002
01/24/2015  11:29:00       12.360       26.691       12.760       39.760       41.440       29.694     1580.847     1717.263      881.728        0.260        0.209       29.414       29.832        1.029      337.585        9.659      872.994
01/24/2015  11:30:00       41.315       79.685       -8.560       28.228       42.455       35.770      796.821     1802.388     1279.502        0.600        0.194       89.759       29.854        0.111      337.095        8.839      872.997
01/24/2015  11:31:00       66.726       60.480       31.159       48.753       44.040       59.779     2376.810     1939.506     3573.552        0.848        0.394       90.057       38.617        0.184      337.249        9.095      872.989
01/24/2015  11:32:00      107.136      104.013       63.922       48.800       38.696       48.994     2381.399     1497.398     2400.379        1.633        0.314      149.322       33.134        0.049      337.012        8.698      872.995
01/24/2015  11:33:00       18.783       31.532       35.234       36.356       38.202       21.515     1321.756     1459.392      462.895        0.292        0.162       36.703       19.266        0.276      337.330        9.230      872.981
01/24/2015  11:34:00       88.004       66.537       53.843       59.852       65.307       56.269     3582.263     4264.971     3166.217        1.304        0.551      110.326       48.569        0.194      337.144        8.919      872.979
01/24/2015  11:35:00       19.771       35.280       46.371       40.811       49.983       56.625     1665.508     2498.298     3206.422        0.558        0.369       40.442       49.584        1.503      337.562        9.619      872.961
01/24/2015  11:36:00       61.218       66.144       76.815       70.131       77.348       53.761     4918.319     5982.715     2890.259        1.390        0.690       90.126       55.105        0.374      337.147        8.924      872.968
01/24/2015  11:37:00       99.662       84.825       24.155       40.100       37.303       42.913     1608.030     1391.540     1841.562        1.128        0.242      130.873       19.656        0.023      337.104        8.854      872.972
01/24/2015  11:38:00       31.491       22.142       26.086       56.959       56.847       33.668     3244.316     3231.530     1133.566        0.488        0.380       38.496       33.957        0.778      337.660        9.784      872.979
01/24/2015  11:39:00       -5.598      -15.644        9.770       27.868       27.971       31.371      776.629      782.384      984.122        0.146        0.127       16.615       26.245        2.495      337.551        9.601      872.976
01/24/2015  11:40:00        5.515      -29.319       27.655       29.360       59.327       30.896      862.028     3519.700      954.579        0.349        0.267       29.833       34.950        1.372      337.787        9.997      872.956
01/24/2015  11:41:00        2.351      -83.328       -3.020       46.257       44.500       33.330     2139.686     1980.263     1110.864        0.609        0.262       83.361       24.967        0.090      337.546        9.594      872.950
01/24/2015  11:42:00       64.943      -71.021       16.107       65.231       83.947       48.929     4255.146     7047.138     2394.024        1.161        0.685       96.237       63.137        0.430      337.746        9.929      872.927
01/24/2015  11:43:00       46.170       -3.777       45.309       72.517       60.435       48.227     5258.657     3652.441     2325.851        0.772        0.562       46.324       38.462        0.689      337.749        9.933      872.931
01/24/2015  11:44:00       74.438       34.477       71.206       62.984       82.651       53.864     3966.987     6831.225     2901.306        1.275        0.685       82.035       44.632        0.296      337.625        9.725      872.929
01/24/2015  11:45:00       81.476      105.834       91.796       56.713       56.249       55.649     3216.337     3163.962     3096.830        1.787        0.474      133.563       49.606        0.138      337.441        9.418      872.923
01/24/2015  11:46:00       57.631       77.066       59.792       79.671       50.500       41.319     6347.474     2550.255     1707.219        1.172        0.530       96.232       34.458        0.128      337.591        9.668      872.912
01/24/2015  11:47:00       -1.845        8.296       37.954       14.640       30.710       13.394      214.334      943.102      179.394        0.142        0.067        8.499       11.566        1.852      338.083       10.494      872.908
01/24/2015  11:48:00       31.273       56.845       -2.026       37.981       26.573       31.222     1442.538      706.133      974.819        0.367        0.156       64.879       21.481        0.110      337.622        9.720      872.885
01/24/2015  11:49:00      105.164       64.666       17.170       40.891       30.361       32.814     1672.100      921.814     1076.780        0.960        0.184      123.455       13.555        0.012      337.550        9.599      872.856
01/24/2015  11:50:00       62.552       54.056       -9.152       57.221       52.761       38.552     3274.211     2783.711     1486.267        0.723        0.377       82.673       18.510        0.050      337.773        9.973      872.837
01/24/2015  11:51:00       97.543       62.156        0.244       47.679       37.159       41.621     2273.262     1380.802     1732.306        0.938        0.269      115.663       18.020        0.024      337.726        9.895      872.841
01/24/2015  11:52:00       69.470       60.013       47.321       74.039       38.165       33.492     5481.704     1456.541     1121.741        0.936        0.403       91.802       31.987        0.121      337.824       10.059      872.855
01/24/2015  11:53:00       57.251       58.203       18.618       37.432       33.652       32.420     1401.185     1132.488     1051.079        0.530        0.179       81.641       16.077        0.039      337.658        9.781      872.870
01/24/2015  11:54:00       51.370       88.135       -9.025       26.597       50.649       35.350      707.375     2565.290     1249.613        0.750        0.226      102.013       22.498        0.049      337.443        9.420      872.901
01/24/2015  11:55:00       51.057       45.063       -4.453       31.892       25.560       28.020     1017.126      653.332      785.130        0.356        0.123       68.099       17.691        0.067      337.376        9.310      872.900
01/24/2015  11:56:00       14.198       40.133      -15.175       22.362       36.275       27.173      500.060     1315.889      738.389        0.230        0.128       42.570       10.119        0.057      337.554        9.606      872.925
01/24/2015  11:57:00      -37.990       52.528      -14.635       26.429       30.761       23.040      698.478      946.263      530.857        0.330        0.109       64.827       19.574        0.091      337.533        9.571      872.937
01/24/2015  11:58:00      -27.203       -5.615      -15.403       17.524       37.436       20.869      307.091     1401.449      435.531        0.158        0.107       27.777       23.991        0.746      337.404        9.355      872.955
01/24/2015  11:59:00      -53.002       -8.611        4.508       25.010       22.637       13.849      625.489      512.448      191.800        0.212        0.066       53.697       11.560        0.046      337.647        9.762      872.966
01/24/2015  12:00:00      -75.907        2.470      -10.712       11.113       20.451       13.249      123.498      418.238      175.548        0.330        0.036       75.947       10.423        0.019      337.488        9.495      872.960
01/24/2015  12:01:00      -31.993       -8.041      -16.220       36.067       23.472       16.873     1300.797      550.943      284.712        0.174        0.107       32.988       13.668        0.172      337.522        9.553      872.965
01/24/2015  12:02:00      -59.604      -22.722       -1.579       26.724       33.949       23.423      714.167     1152.505      548.643        0.324        0.121       63.788       16.369        0.066      337.662        9.788      872.951
01/24/2015  12:03:00      -71.861       11.061      -10.988       28.485       43.682       16.340      811.415     1908.097      267.009        0.420        0.149       72.708       10.439        0.021      337.688        9.830      872.953
01/24/2015  12:04:00      -31.240       28.605       22.280       32.364       28.905       37.115     1047.427      835.512     1377.543        0.278        0.163       42.358       28.889        0.465      338.315       10.883      872.962
01/24/2015  12:05:00       32.586       17.673       22.178       51.466       49.235       29.492     2648.793     2424.133      869.768        0.390        0.297       37.070       21.294        0.330      338.439       11.091      872.960
01/24/2015  12:06:00       60.607       63.168        9.804       33.399       21.110       29.776     1115.470      445.634      886.607        0.510        0.122       87.541       11.030        0.016      337.880       10.155      872.954
01/24/2015  12:07:00      -16.867      170.355      -19.811       41.664       56.859       26.686     1735.891     3232.894      712.157        1.769        0.284      171.188       26.022        0.023      337.808       10.031      872.941
01/24/2015  12:08:00      -27.081       54.807       -1.697       32.797       40.496       26.132     1075.654     1639.938      682.891        0.357        0.170       61.133       27.467        0.202      338.156       10.616      872.914
01/24/2015  12:09:00      -76.107       60.148      -23.956       38.852       22.236       21.756     1509.494      494.450      473.333        0.623        0.124       97.006       19.103        0.039      337.885       10.162      872.881
01/24/2015  12:10:00      -74.822       45.633      -19.482       35.044       34.990       21.432     1228.072     1224.307      459.320        0.549        0.146       87.640       18.327        0.044      337.856       10.113      872.864
01/24/2015  12:11:00      -58.352       75.542      -10.994       35.836       41.987       24.861     1284.200     1762.943      618.063        0.645        0.183       95.454       20.157        0.045      338.100       10.523      872.858
01/24/2015  12:12:00      -36.881       81.420      -13.553       41.972       34.861       28.057     1761.641     1215.278      787.202        0.597        0.188       89.383       19.999        0.050      337.962       10.292      872.858
01/24/2015  12:13:00        1.929       45.119       13.138       26.964       39.321       27.357      727.057     1546.117      748.405        0.262        0.151       45.161       18.943        0.176      338.418       11.057      872.871
01/24/2015  12:14:00       42.863       37.190       -1.111       32.700       34.310       26.546     1069.264     1177.164      704.691        0.309        0.148       56.748       15.296        0.073      338.284       10.831      872.860
01/24/2015  12:15:00       60.442       60.189       -0.426       50.799       34.216       27.013     2580.581     1170.706      729.690        0.588        0.224       85.299       12.699        0.022      338.460       11.127      872.853
01/24/2015  12:16:00       15.501       77.145        5.169       28.967       58.611       40.084      839.063     3435.221     1606.713        0.605        0.294       78.687       43.061        0.299      338.311       10.876      872.844
01/24/2015  12:17:00       37.503       47.009      -12.593       41.284       32.645       27.955     1704.389     1065.699      781.467        0.366        0.178       60.136       17.516        0.085      338.108       10.536      872.806
01/24/2015  12:18:00       29.809       39.621        5.247       35.702       33.906       23.869     1274.632     1149.607      569.708        0.274        0.150       49.582       14.939        0.091      338.498       11.191      872.762
01/24/2015  12:19:00       94.712       81.617       -3.712       54.530       39.295       35.237     2973.528     1544.115     1241.626        1.070        0.288      125.027       23.002        0.034      338.680       11.496      872.709
01/24/2015  12:20:00      160.563       93.163       20.361       68.396       43.919       50.826     4677.970     1928.848     2583.288        2.203        0.460      185.633       40.905        0.049      338.343       10.928      872.686
01/24/2015  12:21:00       43.421       73.030        4.284       49.336       48.212       34.966     2434.014     2324.437     1222.600        0.661        0.299       84.963       29.264        0.119      338.452       11.114      872.655
01/24/2015  12:22:00       18.736       27.503       17.168       26.145       28.235       25.837      683.571      797.196      667.551        0.177        0.107       33.278       13.480        0.164      338.583       11.333      872.628
01/24/2015  12:23:00       79.887      -27.922        2.054       75.690      112.639       59.214     5728.907    12687.576     3506.290        1.454        1.096       84.626       74.074        0.766      338.554       11.285      872.602
01/24/2015  12:24:00       86.802       10.513       22.976       47.502       68.257       45.502     2256.425     4659.002     2070.416        0.858        0.449       87.437       19.942        0.052      338.541       11.262      872.578
01/24/2015  12:25:00       36.760      -52.524       -3.131       61.733       61.677       33.233     3810.950     3804.087     1104.456        0.642        0.436       64.110       28.068        0.192      338.518       11.224      872.544
01/24/2015  12:26:00      111.018       45.444       79.098       83.363      141.488       90.832     6949.395    20018.878     8250.393        2.793        1.761      119.959       99.788        0.692      338.327       10.901      872.510
01/24/2015  12:27:00       98.070       64.124       41.036       79.494       71.032       58.799     6319.283     5045.552     3457.300        1.512        0.741      117.173       55.184        0.222      338.333       10.913      872.472
01/24/2015  12:28:00       31.701       37.219       51.350       47.834       48.551       37.746     2288.101     2357.163     1424.784        0.555        0.304       48.889       26.048        0.284      338.795       11.689      872.436
01/24/2015  12:29:00       33.968        2.019       17.752       72.042      104.619       48.421     5190.047    10945.074     2344.564        0.997        0.924       34.028       47.133        1.919      338.910       11.882      872.394
01/24/2015  12:30:00      163.080      125.214        8.240       72.432       60.458       51.635     5246.332     3655.219     2666.138        2.695        0.578      205.605       10.231        0.002      338.331       10.907      872.359
01/24/2015  12:31:00      163.172      124.001       28.825       38.475       26.745       40.955     1480.349      715.269     1677.351        2.335        0.194      204.942       16.745        0.007      338.116       10.547      872.338
01/24/2015  12:32:00       23.616       45.576        5.010       37.552       46.991       32.373     1410.170     2208.122     1048.023        0.366        0.233       51.331       32.219        0.394      338.552       11.281      872.295
01/24/2015  12:33:00       21.561       -7.794       36.678       40.341       66.044       36.373     1627.365     4361.779     1323.014        0.459        0.366       22.927       42.966        3.512      338.769       11.646      872.251
01/24/2015  12:34:00       62.920     -110.598      -15.170       57.544       52.640       51.021     3311.269     2770.920     2603.182        1.255        0.434      127.243       40.732        0.102      338.584       11.335      872.215
01/24/2015  12:35:00       72.753     -131.921      -20.984       42.753       76.840       30.247     1827.821     5904.428      914.861        1.589        0.432      150.653       23.102        0.024      338.440       11.093      872.183
01/24/2015  12:36:00       26.755      -36.400       31.912       46.830       66.615       44.260     2193.018     4437.518     1958.904        0.582        0.429       45.175       42.283        0.876      338.843       11.771      872.160
01/24/2015  12:37:00       29.214       24.169       45.211       42.036       62.531       36.937     1767.061     3910.093     1364.362        0.526        0.352       37.916       46.606        1.511      338.762       11.634      872.138
01/24/2015  12:38:00        9.786       57.979       93.373       60.223       79.256       48.026     3626.788     6281.576     2306.525        1.219        0.611       58.799       47.835        0.662      338.963       11.972      872.116
01/24/2015  12:39:00       15.089      -55.923       29.622       56.844       78.099       47.457     3231.236     6099.513     2252.190        0.791        0.579       57.923       55.059        0.904      339.098       12.199      872.109
01/24/2015  12:40:00      132.131      105.956       73.286       87.250       56.482       48.212     7612.504     3190.208     2324.352        2.359        0.656      169.368       33.781        0.040      338.695       11.517      872.099
01/24/2015  12:41:00       68.075       98.468       98.257       67.675       48.134       42.041     4579.958     2316.871     1767.454        1.632        0.433      119.708       34.937        0.085      338.645       11.437      872.100
01/24/2015  12:42:00      167.689       93.494        8.503       35.361       36.736       36.237     1250.383     1349.553     1313.142        2.042        0.196      191.991       20.942        0.012      338.265       10.798      872.100
01/24/2015  12:43:00       67.339       45.959      -17.631       25.911       50.769       25.721      671.383     2577.474      661.559        0.543        0.196       81.528        9.041        0.012      338.540       11.261      872.103
01/24/2015  12:44:00       20.199       67.565       64.224       39.273       52.296       54.197     1542.331     2734.914     2937.290        0.815        0.361       70.520       45.806        0.422      338.966       11.977      872.090
01/24/2015  12:45:00       59.699       97.260       91.197       72.100       48.190       44.099     5198.384     2322.259     1944.744        1.540        0.473      114.120       42.682        0.140      338.700       11.531      872.088
01/24/2015  12:46:00       65.434       74.939       79.687       58.319       57.307       55.859     3401.143     3284.107     3120.250        1.302        0.490       99.486       42.993        0.187      338.751       11.616      872.065
01/24/2015  12:47:00      179.377      128.926       32.395       85.015       52.812       48.056     7227.469     2789.116     2309.355        3.108        0.616      220.903       24.579        0.012      338.470       11.140      872.039
01/24/2015  12:48:00       59.543       56.042       48.125       53.555       61.707       44.062     2868.139     3807.747     1941.485        0.881        0.431       81.768       34.142        0.174      338.671       11.480      872.018
01/24/2015  12:49:00       46.411       42.609       28.404       56.010       41.967       48.689     3137.160     1761.270     2370.618        0.602        0.363       63.004       27.405        0.189      338.854       11.788      871.992
01/24/2015  12:50:00       17.121       23.903        8.468       26.627       24.948       23.919      709.020      622.425      572.116        0.142        0.095       29.402       10.782        0.134      339.202       12.373      871.963
01/24/2015  12:51:00       99.503       71.446       20.270       48.766       38.047       38.301     2378.100     1447.610     1466.961        1.035        0.265      122.496       27.455        0.050      338.734       11.586      871.931
01/24/2015  12:52:00       97.686       94.064       38.818       77.834       51.252       53.217     6058.155     2626.817     2832.056        1.571        0.576      135.612       37.381        0.076      338.914       11.889      871.886
01/24/2015  12:53:00       94.137      104.272       92.186      100.984       68.181       61.852    10197.739     4648.676     3825.716        2.345        0.934      140.479       45.166        0.103      338.889       11.846      871.851
01/24/2015  12:54:00       28.719       98.354      105.839       62.764       79.863       52.437     3939.360     6378.088     2749.678        1.738        0.653      102.461       51.084        0.249      339.025       12.076      871.831
01/24/2015  12:55:00       44.326       30.309       15.538       54.261       46.698       31.075     2944.276     2180.726      965.645        0.461        0.305       53.698       25.295        0.222      338.742       11.601      871.797
01/24/2015  12:56:00        3.485       22.828       56.568       24.446       47.508       31.190      597.618     2256.998      972.804        0.378        0.191       23.093       27.867        1.456      339.168       12.318      871.747
01/24/2015  12:57:00       54.078      -58.732       41.499       79.546      110.434       56.160     6327.543    12195.573     3153.909        1.488        1.084       79.837       79.580        0.994      339.253       12.459      871.713
01/24/2015  12:58:00       70.117      -79.998        5.368       47.872       68.743       32.077     2291.690     4725.571     1028.960        0.969        0.402      106.377       39.370        0.137      339.126       12.247      871.686
01/24/2015  12:59:00       10.949       27.155       55.949       21.339       49.041       30.134      455.351     2405.022      908.060        0.388        0.188       29.279       32.655        1.244      339.403       12.713      871.668
01/24/2015  13:00:00        2.885      -45.334       20.771       44.028       69.757       36.415     1938.465     4866.060     1326.070        0.531        0.407       45.425       40.969        0.813      339.175       12.329      871.667
01/24/2015  13:01:00       79.937     -104.836        0.633       62.434       67.366       45.068     3898.031     4538.217     2031.135        1.392        0.523      131.835       33.994        0.066      339.081       12.169      871.674
01/24/2015  13:02:00       86.939      -27.525       35.116       65.134       62.851       43.840     4242.419     3950.264     1921.961        0.983        0.506       91.192       44.191        0.235      338.978       11.997      871.706
01/24/2015  13:03:00      160.336     -144.458      -17.322       55.126       72.546       36.353     3038.843     5262.982     1321.559        2.825        0.481      215.815       42.983        0.040      338.573       11.313      871.728
01/24/2015  13:04:00       72.347      -57.972       12.161       54.893       63.936       31.656     3013.275     4087.852     1002.105        0.842        0.405       92.708       41.816        0.203      338.616       11.389      871.744
01/24/2015  13:05:00       68.844      -51.210       23.564       63.010       63.001       42.331     3970.234     3969.097     1791.897        0.882        0.487       85.801       42.568        0.246      339.057       12.131      871.734
01/24/2015  13:06:00       88.554     -101.478        2.947       71.081       74.398       48.959     5052.452     5535.068     2396.990        1.556        0.649      134.684       52.267        0.151      339.016       12.058      871.733
01/24/2015  13:07:00        2.781      -33.403        5.328       36.831       38.516       26.779     1356.543     1483.485      717.112        0.235        0.178       33.518       20.591        0.377      338.948       11.946      871.740
01/24/2015  13:08:00       -3.526       23.077       27.784       21.406       22.472       20.323      458.234      504.971      413.004        0.135        0.069       23.345       15.725        0.454      339.249       12.453      871.730
01/24/2015  13:09:00        7.661       30.711       46.053       33.374       25.736       29.654     1113.812      662.337      879.355        0.289        0.133       31.652       17.296        0.299      339.405       12.715      871.750
01/24/2015  13:10:00      -11.845      -26.049        1.442       32.025       30.750       22.957     1025.615      945.582      527.044        0.166        0.125       28.616       13.832        0.234      339.161       12.307      871.764
01/24/2015  13:11:00        8.109       47.035       54.599       35.648       78.012       63.668     1270.790     6085.862     4053.633        0.833        0.571       47.729       63.477        1.769      339.231       12.422      871.771
01/24/2015  13:12:00       43.336       81.657       87.792       67.899       55.083       49.910     4610.303     3034.111     2491.004        1.319        0.507       92.444       43.745        0.224      339.171       12.320      871.767
01/24/2015  13:13:00       90.645       56.886       82.758       70.300       68.118       52.791     4942.155     4640.043     2786.870        1.533        0.618      107.017       49.979        0.218      338.964       11.972      871.756
01/24/2015  13:14:00       23.731      -53.427       16.858       41.018       92.022       43.436     1682.488     8468.064     1886.666        0.787        0.602       58.460       57.456        0.966      338.981       12.002      871.751
01/24/2015  13:15:00       69.614      -23.883        2.708       40.017       49.427       34.075     1601.353     2443.070     1161.082        0.531        0.260       73.597       31.185        0.180      338.963       11.972      871.744
01/24/2015  13:16:00       37.960      103.457      101.636       51.690       44.095       32.983     2671.819     1944.359     1087.910        1.409        0.285      110.201       23.619        0.046      339.268       12.484      871.744
01/24/2015  13:17:00      148.136       91.381       52.934       97.251       51.664       47.094     9457.839     2669.121     2217.830        2.372        0.717      174.054       49.428        0.081      339.029       12.081      871.749
01/24/2015  13:18:00      121.736       46.603       -4.865       76.427       46.876       36.519     5841.057     2197.404     1333.650        1.319        0.469      130.352       15.038        0.013      338.844       11.770      871.769
01/24/2015  13:19:00      105.045       57.393       15.749       45.023       50.053       28.702     2027.090     2505.254      823.803        0.997        0.268      119.701       22.635        0.036      338.884       11.839      871.781
01/24/2015  13:20:00      107.484       62.524       12.750       34.455       29.045       34.081     1187.156      843.611     1161.534        0.941        0.160      124.346       14.761        0.014      338.924       11.906      871.791
01/24/2015  13:21:00       56.560       38.303       26.575       52.788       28.939       31.333     2786.595      837.442      981.726        0.499        0.230       68.309       22.905        0.112      339.127       12.247      871.775
01/24/2015  13:22:00       60.106       76.044       68.440       59.402       44.294       45.347     3528.627     1961.928     2056.342        1.081        0.377       96.929       36.775        0.144      339.179       12.336      871.756
01/24/2015  13:23:00        9.894       38.602       60.727       33.440       54.674       31.145     1118.258     2989.206      970.006        0.518        0.254       39.849       31.102        0.609      339.459       12.807      871.742
01/24/2015  13:24:00      120.412       76.790       31.092       99.091       78.785       71.259     9819.087     6207.062     5077.887        2.123        1.055      142.814       52.147        0.133      339.194       12.359      871.747
01/24/2015  13:25:00      141.893       81.619       21.738       49.784       51.594       38.456     2478.427     2661.908     1478.836        1.694        0.331      163.692       21.460        0.017      339.029       12.082      871.744
01/24/2015  13:26:00      114.643      112.259        3.774       85.783       85.416       47.409     7358.752     7295.868     2247.658        2.133        0.845      160.453       30.515        0.036      339.009       12.047      871.724
01/24/2015  13:27:00      120.670       84.298       17.621       56.793       40.064       40.718     3225.459     1605.139     1657.937        1.423        0.324      147.199       20.541        0.019      339.181       12.337      871.710
01/24/2015  13:28:00       42.198       48.660       -0.298       82.074       49.093       33.638     6736.080     2410.103     1131.509        0.721        0.514       64.408       16.057        0.062      339.149       12.286      871.693
01/24/2015  13:29:00       14.673       57.666        6.229       32.938       60.730       29.061     1084.915     3688.159      844.542        0.460        0.281       59.504       35.840        0.363      339.506       12.888      871.669
01/24/2015  13:30:00       44.361       63.534        3.607       33.667       41.214       35.575     1133.496     1698.622     1265.559        0.506        0.205       77.488       21.973        0.080      339.361       12.642      871.657
01/24/2015  13:31:00       70.156        0.743       43.311       59.550       97.848       54.827     3546.251     9574.143     3006.053        1.146        0.806       70.160       67.670        0.930      339.397       12.702      871.645
01/24/2015  13:32:00      136.821       85.377       80.220       63.931       56.569       63.865     4087.158     3200.033     4078.744        2.190        0.568      161.274       45.979        0.081      339.342       12.607      871.629
01/24/2015  13:33:00       65.969       47.258       46.320       55.023       60.971       46.070     3027.507     3717.483     2122.461        0.880        0.443       81.149       35.364        0.190      339.644       13.118      871.616
01/24/2015  13:34:00      137.225       76.720       46.242       72.755       55.745       46.225     5293.252     3107.499     2136.734        1.869        0.527      157.215       31.577        0.040      339.487       12.853      871.601
01/24/2015  13:35:00       33.265       10.645        4.143       34.922       31.895       29.543     1219.528     1017.287      872.763        0.217        0.155       34.927       25.837        0.547      339.462       12.811      871.600
01/24/2015  13:36:00      143.257       80.834       34.013       58.285       40.268       26.753     3397.179     1621.474      715.714        1.697        0.287      164.489       14.459        0.008      339.189       12.351      871.589
01/24/2015  13:37:00       81.861       26.204       16.469       48.974       38.685       27.089     2398.492     1496.554      733.791        0.614        0.231       85.953       17.003        0.039      339.530       12.927      871.573
01/24/2015  13:38:00       74.296      104.360       95.632       64.442       61.486       47.890     4152.811     3780.479     2293.421        1.789        0.511      128.105       30.070        0.055      339.675       13.170      871.553
01/24/2015  13:39:00       72.744       95.188       72.837       51.894       51.358       47.337     2693.022     2637.614     2240.805        1.361        0.379      119.802       27.637        0.053      339.581       13.012      871.534
01/24/2015  13:40:00       39.867       23.697       13.647       43.218       43.978       30.765     1867.775     1934.054      946.508        0.354        0.237       46.378       26.974        0.338      339.548       12.958      871.518
01/24/2015  13:41:00       45.799       32.840       13.482       46.799       40.745       40.217     2190.150     1660.127     1617.412        0.441        0.273       56.357       27.162        0.232      339.712       13.235      871.498
01/24/2015  13:42:00       39.731       27.753       37.121       56.005       58.770       39.579     3136.599     3453.935     1566.500        0.594        0.408       48.464       20.627        0.181      339.820       13.417      871.457
01/24/2015  13:43:00       91.548      104.765       86.768       67.610       71.170       68.948     4571.079     5065.237     4753.793        2.064        0.720      139.129       52.427        0.142      339.610       13.060      871.428
01/24/2015  13:44:00       77.333       83.081       35.064       61.098       59.188       64.094     3732.956     3503.273     4108.078        1.273        0.567      113.503       32.348        0.081      339.694       13.202      871.405
01/24/2015  13:45:00      114.260       70.982       58.730       74.032       51.094       61.433     5480.761     2610.569     3773.968        1.670        0.593      134.513       57.196        0.181      339.393       12.695      871.407
01/24/2015  13:46:00       76.527       52.972       24.171       50.762       40.902       33.631     2576.800     1672.994     1131.017        0.731        0.269       93.072       30.162        0.105      339.608       13.058      871.386
01/24/2015  13:47:00       60.208       32.978       32.507       68.353       46.643       41.235     4672.102     2175.603     1700.342        0.716        0.427       68.648       41.807        0.371      339.853       13.471      871.362
01/24/2015  13:48:00      174.296      146.258      112.057       88.452      108.847       83.113     7823.672    11847.573     6907.805        4.545        1.329      227.532       76.761        0.114      339.625       13.084      871.333
01/24/2015  13:49:00      137.522       92.948       82.998       81.679      101.647       76.900     6671.387    10332.027     5913.591        2.867        1.146      165.987       83.343        0.252      339.669       13.157      871.334
01/24/2015  13:50:00       91.746      118.152      147.613      115.970      108.557       78.812    13449.094    11784.721     6211.400        3.780        1.572      149.591       74.898        0.251      339.715       13.236      871.308
01/24/2015  13:51:00       69.667      141.722      160.869       89.081       83.774       65.781     7935.484     7018.165     4327.201        3.505        0.964      157.920       69.848        0.196      339.612       13.061      871.324
01/24/2015  13:52:00       80.221       62.909       94.696       83.217       61.977       47.279     6925.106     3841.203     2235.287        1.618        0.650      101.946       42.466        0.174      339.631       13.095      871.312
01/24/2015  13:53:00       74.825       70.964       74.409       72.572       68.039       44.642     5266.751     4629.355     1992.895        1.403        0.594      103.125       42.268        0.168      339.944       13.625      871.302
01/24/2015  13:54:00       82.299       50.206       58.042       78.256       87.928       49.877     6124.036     7731.378     2487.735        1.450        0.817       96.404       46.500        0.233      340.015       13.744      871.302
01/24/2015  13:55:00      159.319       93.612       46.386       68.885       64.682       64.985     4745.123     4183.796     4222.991        2.472        0.658      184.786       34.437        0.035      339.888       13.527      871.311
01/24/2015  13:56:00      169.415      111.224       25.692       66.287       59.759       45.266     4394.031     3571.128     2048.995        2.587        0.501      202.663       34.295        0.029      339.605       13.050      871.301
01/24/2015  13:57:00      129.606       55.877       61.973       95.269       75.229       71.626     9076.164     5659.380     5130.343        2.181        0.993      141.138       63.116        0.200      339.852       13.468      871.278
01/24/2015  13:58:00      116.160      100.647       68.057      130.360       87.685       74.032    16993.726     7688.686     5480.799        2.920        1.508      153.698       74.415        0.234      339.981       13.685      871.260
01/24/2015  13:59:00      130.783       81.646       19.893       91.308       54.876       69.604     8337.204     3011.391     4844.755        2.018        0.810      154.176       32.336        0.044      339.710       13.229      871.255
01/24/2015  14:00:00       60.300      125.388      124.051       75.448       79.362       66.482     5692.465     6298.372     4419.890        2.558        0.821      139.134       61.507        0.195      339.814       13.402      871.244
01/24/2015  14:01:00       83.739      105.076      123.874       89.562       82.530       61.323     8021.332     6811.163     3760.464        2.599        0.930      134.362       57.114        0.181      339.601       13.043      871.246
01/24/2015  14:02:00      140.811      107.442      106.717       79.936       77.024       75.060     6389.821     5932.698     5634.039        3.036        0.898      177.120       65.177        0.135      339.566       12.983      871.240
01/24/2015  14:03:00       96.203       55.317       73.851       81.513       70.561       53.362     6644.352     4978.872     2847.525        1.612        0.724      110.973       52.530        0.224      339.703       13.216      871.223
01/24/2015  14:04:00       61.047       62.888       69.001       68.004       51.859       37.082     4624.540     2689.393     1375.063        1.056        0.434       87.645       37.715        0.185      339.806       13.391      871.204
01/24/2015  14:05:00        8.648        7.182       16.376       17.917       43.966       29.649      321.022     1933.026      879.047        0.176        0.157       11.241       25.839        5.284      340.266       14.168      871.188
01/24/2015  14:06:00       14.115       35.170       42.066       35.748       47.635       41.379     1277.938     2269.056     1712.247        0.423        0.263       37.897       38.042        1.008      340.316       14.254      871.172
01/24/2015  14:07:00       59.845       64.512       64.388       54.707       55.624       44.599     2992.809     3094.072     1989.070        0.998        0.404       87.995       39.321        0.200      340.297       14.220      871.159
01/24/2015  14:08:00       23.559       -1.790       36.370       40.438       58.149       36.219     1635.250     3381.263     1311.824        0.410        0.316       23.627       21.245        0.809      340.399       14.393      871.134
01/24/2015  14:09:00       89.752       87.386       58.758       92.218       54.072       61.818     8504.225     2923.764     3821.486        1.719        0.762      125.267       59.059        0.222      340.041       13.787      871.108
01/24/2015  14:10:00      170.164      114.830        7.182       89.179       62.363       46.672     7952.846     3889.201     2178.304        2.810        0.701      205.284       20.584        0.010      339.799       13.378      871.084
01/24/2015  14:11:00       91.948       44.879        5.454       64.880       52.569       31.261     4209.440     2763.486      977.267        0.922        0.398      102.316       14.161        0.019      340.008       13.732      871.063
01/24/2015  14:12:00      131.055       68.723       20.502       73.109       47.679       42.253     5344.975     2273.281     1785.275        1.586        0.470      147.980       26.360        0.032      339.998       13.714      871.062
01/24/2015  14:13:00       68.677       31.083       53.232       69.569       60.310       41.820     4839.785     3637.346     1748.895        0.937        0.511       75.383       43.962        0.340      339.994       13.709      871.052
01/24/2015  14:14:00       39.177       29.656       -9.193       25.671       27.341       26.143      659.005      747.537      683.455        0.229        0.104       49.136        8.665        0.031      339.913       13.573      871.039
01/24/2015  14:15:00       72.131       47.638       43.059       71.830       50.339       44.355     5159.598     2533.965     1967.383        0.949        0.483       86.442       36.551        0.179      340.150       13.972      871.038
01/24/2015  14:16:00       42.511       25.137       48.465       90.847       74.299       40.587     8253.262     5520.292     1647.273        1.010        0.771       49.387       21.974        0.198      340.301       14.226      871.036
01/24/2015  14:17:00       76.003       68.692       95.375       76.787      106.693       58.419     5896.208    11383.481     3412.756        2.014        1.035      102.445       70.562        0.474      340.163       13.991      871.039
01/24/2015  14:18:00       10.915        4.306       62.154       46.492       81.125       47.106     2161.468     6581.296     2218.998        0.748        0.548       11.733       37.476       10.202      340.233       14.112      871.036
01/24/2015  14:19:00       61.125      -67.461       -1.411       82.312       99.356       52.472     6775.263     9871.594     2753.351        1.384        0.970       91.034       70.840        0.606      340.071       13.838      871.037
01/24/2015  14:20:00       42.801      -25.960       32.118       52.513       93.009       53.724     2757.636     8650.737     2886.316        0.891        0.715       50.058       65.326        1.703      340.323       14.264      871.039
01/24/2015  14:21:00       20.846      104.550      104.499       53.994       56.924       36.369     2915.359     3240.354     1322.696        1.488        0.374      106.608       25.232        0.056      340.240       14.125      871.043
01/24/2015  14:22:00       51.356       26.440       35.336       65.848       31.292       33.778     4335.960      979.164     1140.923        0.552        0.323       57.762       11.112        0.037      340.393       14.382      871.042
01/24/2015  14:23:00       13.465       43.077       54.293       51.364       45.164       41.161     2638.295     2039.745     1694.259        0.568        0.319       45.133       33.756        0.559      340.414       14.417      871.034
01/24/2015  14:24:00      131.605       97.379       10.935       74.471       59.577       44.157     5545.908     3549.424     1949.836        1.898        0.552      163.715       32.319        0.039      339.938       13.613      871.031
01/24/2015  14:25:00      133.883       86.999       13.362       54.941       30.013       30.116     3018.556      900.805      906.984        1.525        0.241      159.666       25.334        0.025      339.768       13.326      871.029
01/24/2015  14:26:00       92.498       85.342       56.038       47.404       41.441       43.325     2247.181     1717.342     1877.065        1.241        0.292      125.854       20.933        0.028      339.945       13.626      871.020
01/24/2015  14:27:00       51.709       85.910      117.874       68.975       77.991       57.872     4757.501     6082.561     3349.218        1.907        0.709      100.271       55.566        0.307      340.088       13.866      871.006
01/24/2015  14:28:00       47.850       85.989       62.951       79.099       55.044       56.786     6256.706     3029.797     3224.613        1.308        0.626       98.406       38.379        0.152      339.939       13.615      870.991
01/24/2015  14:29:00       46.393        6.340       58.754      109.178       68.259       58.271    11919.772     4659.234     3395.557        1.281        0.999       46.825       51.792        1.223      340.298       14.221      870.994
01/24/2015  14:30:00       57.827       63.380       76.739       49.277       58.429       40.087     2428.235     3413.953     1606.979        1.035        0.372       85.797       22.342        0.068      340.211       14.075      871.000
01/24/2015  14:31:00        6.208      -66.361       21.431       55.683      107.775       47.178     3100.582    11615.476     2225.804        1.092        0.847       66.651       41.634        0.390      340.330       14.276      870.996
01/24/2015  14:32:00       43.499      -66.942       30.957       65.540      100.647       66.447     4295.504    10129.728     4415.217        1.308        0.942       79.833       44.576        0.312      340.226       14.098      870.965
01/24/2015  14:33:00       70.131     -103.185       11.369       49.960      104.137       46.843     2495.961    10844.613     2194.301        1.561        0.777      124.762       44.851        0.129      340.279       14.189      870.963
01/24/2015  14:34:00       73.424       56.447       73.148       80.474       72.505       64.587     6475.999     5257.007     4171.477        1.491        0.795       92.614       54.393        0.345      340.184       14.030      870.965
01/24/2015  14:35:00       83.210       73.077       39.691       66.677       52.333       50.090     4445.865     2738.771     2508.974        1.176        0.485      110.743       46.869        0.179      340.017       13.749      870.976
01/24/2015  14:36:00       73.612       70.808       67.803       82.657       61.853       47.983     6832.254     3825.740     2302.320        1.399        0.648      102.140       41.939        0.169      340.221       14.091      870.978
01/24/2015  14:37:00      104.758       76.997       64.879       83.973       62.938       60.788     7051.422     3961.131     3695.126        1.791        0.735      130.010       47.943        0.136      340.174       14.012      870.975
01/24/2015  14:38:00       77.264       25.994       62.538       91.432       67.978       57.711     8359.872     4620.943     3330.568        1.343        0.816       81.519       65.336        0.642      340.276       14.185      870.980
01/24/2015  14:39:00       68.755       33.829       45.103       80.863       66.435       53.994     6538.827     4413.597     2915.322        1.088        0.693       76.627       42.441        0.307      340.344       14.300      870.971
01/24/2015  14:40:00       85.010       52.901       77.737       72.622       61.388       42.269     5274.020     3768.516     1786.639        1.345        0.541      100.127       41.364        0.171      340.259       14.156      870.960
01/24/2015  14:41:00       60.309       52.443       53.297       77.687       57.545       44.656     6035.347     3311.472     1994.163        1.028        0.567       79.921       34.450        0.186      340.409       14.409      870.952
01/24/2015  14:42:00        4.390       10.365       41.647       23.547       27.632       19.296      554.460      763.548      372.355        0.178        0.085       11.256       19.270        2.931      340.668       14.848      870.954
01/24/2015  14:43:00      100.190        8.066       27.865       74.929       75.408       56.224     5614.280     5686.351     3161.180        1.267        0.723      100.514       40.536        0.163      340.369       14.340      870.957
01/24/2015  14:44:00      150.685       91.544       70.149       71.170       51.422       43.999     5065.219     2644.187     1935.896        2.282        0.482      176.312       28.813        0.027      340.204       14.061      870.963
01/24/2015  14:45:00      147.485       62.685       46.704       82.485       63.650       54.043     6803.787     4051.360     2920.675        2.082        0.689      160.253       42.065        0.069      340.118       13.916      870.948
01/24/2015  14:46:00      133.100       72.914       94.490      137.642      117.979      106.939    18945.368    13918.929    11436.042        3.812        2.215      151.763       87.303        0.331      340.140       13.953      870.934
01/24/2015  14:47:00       80.790       89.914      101.808      106.308       63.214       58.175    11301.343     3996.055     3384.379        2.183        0.934      120.879       55.628        0.212      340.296       14.216      870.922
01/24/2015  14:48:00      203.133       93.948       88.607      164.721       99.550       98.619    27132.968     9910.160     9725.748        5.235        2.338      223.806       99.629        0.198      340.037       13.779      870.910
01/24/2015  14:49:00      212.295      125.137       58.067      116.903       90.251       78.042    13666.249     8145.251     6090.487        4.600        1.395      246.432       62.434        0.064      340.067       13.827      870.913
01/24/2015  14:50:00      119.652      131.044      118.313       88.159       84.007       73.444     7772.061     7057.196     5394.026        3.285        1.011      177.451       63.792        0.129      340.075       13.843      870.917
01/24/2015  14:51:00      108.419      108.676       90.555      124.731       92.094       77.642    15557.922     8481.343     6028.309        3.091        1.503      153.510       65.982        0.185      340.060       13.817      870.922
01/24/2015  14:52:00      118.101      162.822      151.510      112.834      103.541       85.882    12731.438    10720.648     7375.678        4.712        1.541      201.143       87.489        0.189      340.014       13.739      870.922
01/24/2015  14:53:00      155.866       77.435       49.734       95.203       84.792       77.913     9063.601     7189.647     6070.426        2.754        1.116      174.042       51.175        0.086      340.024       13.758      870.941
01/24/2015  14:54:00      196.197       81.432       17.472      122.731       73.229       74.995    15062.984     5362.546     5624.241        3.574        1.302      212.426       52.765        0.062      340.025       13.759      870.936
01/24/2015  14:55:00      141.682      112.380       86.095      115.012       67.737       77.645    13227.703     4588.322     6028.687        3.198        1.192      180.839       47.700        0.070      340.120       13.919      870.933
01/24/2015  14:56:00       95.229      102.797      129.331       77.129       66.500       46.528     5948.910     4422.230     2164.832        2.445        0.627      140.128       37.494        0.072      340.178       14.016      870.943
01/24/2015  14:57:00      131.623      142.948      137.191      104.434       93.629       74.538    10906.515     8766.393     5555.902        4.090        1.261      194.316       71.720        0.136      340.039       13.780      870.933
01/24/2015  14:58:00      115.148       77.605       93.240       98.683      115.774       65.643     9738.367    13403.693     4309.018        2.771        1.373      138.858       61.984        0.199      340.141       13.955      870.911
01/24/2015  14:59:00      133.419       51.981       84.553       93.754       75.627       62.682     8789.855     5719.392     3928.975        2.304        0.922      143.188       62.383        0.190      340.198       14.051      870.907
01/24/2015  15:00:00      141.310      167.740      153.456      105.449       95.820       88.976    11119.468     9181.501     7916.741        4.993        1.411      219.329       60.153        0.075      340.173       14.007      870.903
01/24/2015  15:01:00      215.982      147.598      105.648      126.940      100.750       91.891    16113.882    10150.525     8443.998        5.715        1.735      261.598       70.560        0.073      340.115       13.909      870.900
01/24/2015  15:02:00      113.281       87.135       86.835      114.664      114.857       93.302    13147.757    13192.113     8705.304        3.150        1.752      142.916       83.775        0.344      340.238       14.118      870.891
01/24/2015  15:03:00      191.929      139.279       57.860       80.975       82.712       85.209     6556.942     6841.275     7260.492        4.012        1.033      237.140       55.326        0.054      340.218       14.084      870.898
01/24/2015  15:04:00      168.760       81.214       19.806       82.826       70.258       55.940     6860.168     4936.127     3129.278        2.519        0.746      187.285       33.417        0.032      340.105       13.892      870.905
01/24/2015  15:05:00      122.123       87.801       84.643      103.864      106.934      101.664    10787.760    11434.886    10335.537        3.117        1.628      150.410       88.848        0.349      340.240       14.123      870.892
01/24/2015  15:06:00      144.235      132.825      152.758      108.116       89.370       76.116    11689.122     7986.942     5793.717        4.362        1.273      196.077       71.397        0.133      340.142       13.954      870.886
01/24/2015  15:07:00       96.291       88.403       99.775      105.305       84.297       59.536    11089.044     7105.900     3544.539        2.439        1.087      130.718       51.500        0.155      340.258       14.153      870.899
01/24/2015  15:08:00       68.040      109.785      107.922       76.471       69.087       59.610     5847.842     4773.017     3553.319        2.125        0.709      129.160       54.930        0.181      340.229       14.104      870.918
01/24/2015  15:09:00      121.057       51.999       46.780       88.486       79.957       53.817     7829.836     6393.179     2896.226        1.833        0.856      131.752       47.025        0.127      340.210       14.071      870.923
01/24/2015  15:10:00       84.243       70.576       42.772       64.626       48.076       44.390     4176.563     2311.293     1970.484        1.118        0.423      109.900       25.859        0.055      340.210       14.072      870.921
01/24/2015  15:11:00       60.606       92.103       94.398       74.004       66.768       60.166     5476.612     4457.966     3619.928        1.731        0.678      110.254       55.624        0.255      340.180       14.021      870.911
01/24/2015  15:12:00       79.746       51.414       77.839       76.502       71.139       48.515     5852.565     5060.723     2353.740        1.416        0.663       94.883       43.910        0.214      340.263       14.162      870.906
01/24/2015  15:13:00       51.653       94.914      116.418       54.495       65.571       42.231     2969.697     4299.513     1783.468        1.714        0.453      108.059       42.278        0.153      340.281       14.193      870.888
01/24/2015  15:14:00      146.120      160.225      134.628      139.834      111.399       89.164    19553.626    12409.700     7950.144        5.252        1.996      216.848       84.938        0.153      340.225       14.096      870.886
01/24/2015  15:15:00      139.289       78.152       77.094       79.225       88.089       68.684     6276.604     7759.665     4717.426        2.510        0.938      159.716       50.165        0.099      340.175       14.012      870.880
01/24/2015  15:16:00       97.535      112.917       96.958       83.856       71.088       69.263     7031.844     5053.478     4797.349        2.427        0.844      149.209       56.136        0.142      340.213       14.075      870.869
01/24/2015  15:17:00      105.584       69.739       45.094       71.571       69.785       53.523     5122.418     4869.935     2864.667        1.545        0.643      126.537       24.199        0.037      340.197       14.051      870.868
01/24/2015  15:18:00      111.817       63.110       62.030       62.508       58.047       48.578     3907.289     3369.453     2359.844        1.498        0.482      128.398       27.638        0.046      340.192       14.042      870.858
01/24/2015  15:19:00      119.038       52.872       64.702      107.917      103.259       68.902    11646.171    10662.390     4747.441        2.410        1.353      130.252       55.536        0.182      340.233       14.110      870.851
01/24/2015  15:20:00      156.039      101.356       63.330       74.838       56.616       52.636     5600.724     3205.411     2770.571        2.510        0.579      186.067       36.213        0.038      340.258       14.151      870.854
01/24/2015  15:21:00      155.056      105.038       81.559      114.161       86.330       82.745    13032.699     7452.783     6846.741        3.453        1.367      187.284       52.279        0.078      340.267       14.169      870.863
01/24/2015  15:22:00       54.013       74.573      103.801       65.371       76.298       55.518     4273.406     5821.370     3082.304        1.621        0.659       92.079       53.636        0.339      340.360       14.325      870.855
01/24/2015  15:23:00       52.571       11.454       35.894       84.809       83.220       52.419     7192.487     6925.572     2747.763        1.052        0.843       53.805       26.688        0.246      340.492       14.549      870.835
01/24/2015  15:24:00       70.445       65.159      100.429       87.749       86.748       58.937     7699.922     7525.207     3473.598        1.899        0.935       95.959       49.696        0.268      340.367       14.336      870.826
01/24/2015  15:25:00      129.820      136.503       90.556      109.186       85.985       99.290    11921.512     7393.432     9858.414        3.643        1.459      188.378       73.635        0.153      340.192       14.039      870.819
01/24/2015  15:26:00      151.322      105.815       30.517       82.681       69.099       67.296     6836.139     4774.664     4528.804        2.558        0.807      184.649       48.193        0.068      340.290       14.206      870.818
01/24/2015  15:27:00      217.663      143.360       84.956      159.289       95.521       80.767    25372.837     9124.267     6523.293        5.808        2.051      260.633       53.157        0.042      340.137       13.948      870.814
01/24/2015  15:28:00      254.177      122.130       64.001      101.022       83.566       69.005    10205.490     6983.249     4761.713        5.278        1.098      281.996       53.060        0.035      340.084       13.856      870.814
01/24/2015  15:29:00      184.544       51.201       50.655      100.906       92.642       67.416    10182.010     8582.457     4544.877        3.127        1.165      191.515       46.291        0.058      340.125       13.926      870.816
01/24/2015  15:30:00      125.426      106.423      104.977      117.342       92.678       84.410    13769.214     8589.241     7125.014        3.378        1.474      164.492       70.492        0.184      340.107       13.896      870.808
01/24/2015  15:31:00      178.361       68.703       70.393      160.581      106.922       83.550    25786.148    11432.281     6980.678        4.284        2.210      191.135       66.312        0.120      340.066       13.826      870.799
01/24/2015  15:32:00       97.235       59.610       31.021       63.378       47.640       46.542     4016.728     2269.567     2166.139        1.121        0.423      114.052       24.219        0.045      340.128       13.935      870.810
01/24/2015  15:33:00      166.227       96.662       50.071       81.933       61.598       55.671     6713.055     3794.349     3099.255        2.654        0.680      192.288       38.258        0.040      340.144       13.958      870.826
01/24/2015  15:34:00      137.898      130.893      131.106      126.264      106.836       86.547    15942.600    11413.935     7490.367        4.409        1.742      190.128       71.198        0.140      340.115       13.909      870.843
01/24/2015  15:35:00      192.805      156.163      126.208      144.989      104.418      102.059    21021.786    10903.060    10416.131        5.991        2.117      248.114       87.586        0.125      340.057       13.810      870.862
01/24/2015  15:36:00      177.157      126.858      114.746      141.624      132.472       99.658    20057.432    17548.787     9931.660        5.408        2.377      217.893      102.035        0.219      340.057       13.811      870.899
01/24/2015  15:37:00      124.955      146.810      162.952      133.199      110.497       98.216    17741.996    12209.534     9646.474        5.165        1.980      192.788      104.279        0.293      340.058       13.813      870.939
01/24/2015  15:38:00      123.533       93.763       92.963       92.971       73.477       64.525     8643.630     5398.877     4163.459        2.545        0.910      155.087       55.448        0.128      339.990       13.701      870.948
01/24/2015  15:39:00      166.190       95.089       46.340       88.994       65.369       67.813     7919.877     4273.128     4598.599        2.780        0.840      191.471       41.198        0.046      340.090       13.869      870.955
01/24/2015  15:40:00      214.202       84.724       52.719      135.583      104.450       72.549    18382.686    10909.816     5263.325        4.519        1.728      230.349       40.013        0.030      340.063       13.823      870.953
01/24/2015  15:41:00      227.640      144.820       36.330      113.459       93.962       67.439    12872.925     8828.769     4548.052        5.018        1.312      269.802       30.645        0.013      340.019       13.748      870.956
01/24/2015  15:42:00      158.665       73.277       32.191       97.431       70.098       60.384     9492.782     4913.769     3646.280        2.481        0.903      174.769       38.934        0.050      340.062       13.821      870.967
01/24/2015  15:43:00      150.990       87.820       60.043       95.141       69.022       52.099     9051.887     4764.099     2714.289        2.532        0.827      174.673       29.652        0.029      340.051       13.803      870.976
01/24/2015  15:44:00       95.194       47.695       72.804       94.321       85.002       57.769     8896.418     7225.264     3337.310        1.804        0.973      106.474       52.066        0.239      340.129       13.936      870.968
01/24/2015  15:45:00      104.780      115.625      100.843       97.477       69.798       57.319     9501.750     4871.747     3285.504        2.609        0.883      156.039       55.428        0.126      340.203       14.058      870.979
01/24/2015  15:46:00      136.200      100.953      104.896       73.374       79.772       56.368     5383.746     6363.492     3177.317        2.733        0.746      169.534       51.611        0.093      340.137       13.948      870.987
01/24/2015  15:47:00      171.722      116.597      140.477      114.332      110.484       91.766    13071.692    12206.707     8420.970        4.825        1.685      207.565       87.011        0.176      340.054       13.806      870.984
01/24/2015  15:48:00      131.543      113.687       67.885       82.980       84.012       81.311     6885.759     7057.996     6611.474        2.769        1.028      173.862       64.783        0.139      340.091       13.870      870.998
01/24/2015  15:49:00      139.929      114.120      106.036       82.015       83.805       64.062     6726.499     7023.232     4103.886        3.085        0.893      180.564       47.654        0.070      340.159       13.985      871.004
01/24/2015  15:50:00      130.151      119.219       76.343      104.424       65.715       72.656    10904.451     4318.498     5278.826        2.874        1.025      176.500       68.605        0.151      340.119       13.917      870.997
01/24/2015  15:51:00      117.610      150.202      157.197      117.175       78.897       64.481    13729.973     6224.682     4157.839        4.260        1.206      190.769       57.791        0.092      340.053       13.805      870.991
01/24/2015  15:52:00      189.087      132.680       71.370      121.342       79.022       73.724    14723.848     6244.554     5435.205        4.242        1.320      230.993       77.320        0.112      340.028       13.762      870.991
01/24/2015  15:53:00      171.176       69.720       68.092      106.856      101.047       85.634    11418.132    10210.571     7333.128        3.388        1.448      184.830       66.323        0.129      340.014       13.741      870.988
01/24/2015  15:54:00      159.530      135.789      156.008      105.500       91.468       79.677    11130.343     8366.486     6348.500        4.703        1.292      209.496       54.494        0.068      339.956       13.642      870.986
01/24/2015  15:55:00      279.786      149.653       69.045      142.929      107.763       93.700    20428.602    11612.851     8779.647        7.313        2.041      317.295       70.335        0.049      339.961       13.649      871.006
01/24/2015  15:56:00       72.918      105.159       99.666       74.056       58.213       57.731     5484.293     3388.742     3332.824        1.926        0.610      127.967       40.795        0.102      340.046       13.795      871.049
01/24/2015  15:57:00      151.643      114.593       81.951      131.444       73.332       87.098    17277.498     5377.627     7586.062        3.654        1.512      190.072       80.338        0.179      339.973       13.672      871.063
01/24/2015  15:58:00      162.943       75.949       59.675      108.198       88.440       61.869    11706.743     7821.649     3827.719        2.961        1.168      179.774       58.667        0.106      339.942       13.620      871.059
01/24/2015  15:59:00      137.067      126.688      132.755      114.597       92.903       69.758    13132.366     8630.981     4866.218        3.954        1.331      186.647       64.306        0.119      339.946       13.625      871.059
01/24/2015  16:00:00      104.833      110.250      110.710       92.681       75.802       70.785     8589.677     5746.003     5010.497        2.737        0.967      152.135       64.034        0.177      339.959       13.646      871.073
01/24/2015  16:01:00      216.378      146.768       67.358      164.428      102.280       76.855    27036.540    10461.191     5906.762        5.814        2.170      261.458       56.366        0.046      339.975       13.674      871.075
01/24/2015  16:02:00      246.713      153.764       48.987      131.323      100.391       72.293    17245.676    10078.275     5226.346        5.973        1.628      290.708       63.105        0.047      339.925       13.587      871.084
01/24/2015  16:03:00      144.181       60.130       43.057      109.355       70.870       61.009    11958.558     5022.625     3722.051        2.348        1.035      156.217       49.594        0.101      339.949       13.632      871.096
01/24/2015  16:04:00      196.069      107.070       55.303      135.745       79.894       64.164    18426.730     6383.018     4117.071        4.094        1.446      223.398       31.927        0.020      339.896       13.539      871.097
01/24/2015  16:05:00      262.905      134.890       55.896      142.872      122.152       93.020    20412.456    14921.069     8652.628        6.720        2.199      295.490       56.187        0.036      339.848       13.459      871.093
01/24/2015  16:06:00      241.114      137.171       48.230      139.968       93.452       89.440    19590.926     8733.274     7999.553        5.779        1.816      277.401       68.251        0.061      339.847       13.457      871.075
01/24/2015  16:07:00      198.025       87.399       18.784       85.528       71.937       55.993     7315.111     5174.972     3135.199        3.141        0.781      216.454       36.589        0.029      339.860       13.479      871.073
01/24/2015  16:08:00       87.840       94.897       78.115       77.964       70.210       47.104     6078.389     4929.507     2218.780        1.802        0.661      129.311       27.181        0.044      339.858       13.479      871.057
01/24/2015  16:09:00      157.932       91.240       80.231      110.881      102.631       76.942    12294.655    10533.222     5920.105        3.422        1.437      182.393       55.238        0.092      339.849       13.463      871.036
01/24/2015  16:10:00       97.341      124.023      137.944      115.112       88.927       75.459    13250.793     7908.054     5694.062        3.536        1.343      157.661       69.135        0.192      339.845       13.455      871.014
01/24/2015  16:11:00      163.036      126.625       94.454      130.265      101.653       92.572    16968.977    10333.340     8569.583        4.370        1.794      206.433       88.873        0.185      339.796       13.372      871.012
01/24/2015  16:12:00      158.675      106.417       85.282      119.638       75.192       81.566    14313.141     5653.788     6653.043        3.519        1.331      191.056       71.088        0.138      339.794       13.369      870.999
01/24/2015  16:13:00      197.599      130.143       64.477      105.768       91.648       67.757    11186.850     8399.351     4590.958        4.215        1.209      236.607       37.187        0.025      339.768       13.325      870.981
01/24/2015  16:14:00      202.243      131.714       71.129      126.299      110.145       76.346    15951.415    12131.951     5828.666        4.861        1.696      241.352       47.378        0.039      339.729       13.260      870.985
01/24/2015  16:15:00      183.354      124.308       65.491      109.644       73.885       64.620    12021.721     5459.061     4175.795        3.750        1.083      221.521       49.754        0.050      339.718       13.242      871.003
01/24/2015  16:16:00      175.149       90.331       52.666       90.748       57.448       56.335     8235.126     3300.252     3173.684        2.816        0.735      197.071       48.697        0.061      339.731       13.264      871.012
01/24/2015  16:17:00      163.622      127.713       80.687      101.709       74.315       66.123    10344.706     5522.770     4372.216        3.491        1.012      207.564       59.607        0.082      339.740       13.278      871.019
01/24/2015  16:18:00      169.989      150.596       34.545      102.353       72.324       63.679    10476.049     5230.776     4055.036        3.626        0.988      227.102       53.824        0.056      339.738       13.274      871.018
01/24/2015  16:19:00      255.182      137.647       57.179      123.186       85.392       77.727    15174.903     7291.724     6041.424        5.792        1.425      289.939       65.310        0.051      339.676       13.169      871.007
01/24/2015  16:20:00      232.607      101.440       61.101      123.467      107.544       78.832    15244.214    11565.803     6214.440        5.057        1.651      253.764       55.993        0.049      339.638       13.104      871.008
01/24/2015  16:21:00      212.797       74.700       32.048       87.336       82.965       66.448     7627.504     6883.239     4415.367        3.540        0.946      225.528       37.792        0.028      339.631       13.092      871.015
01/24/2015  16:22:00      250.024      161.356       12.793      111.426       72.701       73.847    12415.692     5285.491     5453.358        5.593        1.158      297.570       32.598        0.012      339.601       13.043      870.999
01/24/2015  16:23:00      272.285      118.712       33.020      127.730       94.188       64.466    16314.991     8871.358     4155.839        5.933        1.467      297.038       56.624        0.036      339.593       13.031      870.985
01/24/2015  16:24:00      198.934      140.515       34.584       85.143       73.030       62.693     7249.287     5333.312     3930.402        3.851        0.826      243.555       38.043        0.024      339.559       12.972      870.988
01/24/2015  16:25:00      218.495      149.819       28.352      108.992       88.141       77.404    11879.338     7768.803     5991.386        4.831        1.282      264.926       40.805        0.024      339.580       13.008      870.972
01/24/2015  16:26:00      152.110      107.971       52.130       89.482       65.186       67.306     8006.983     4249.270     4530.084        2.715        0.839      186.535       42.052        0.051      339.591       13.027      870.974
01/24/2015  16:27:00      187.848       97.388       28.832       88.584       83.980       63.070     7847.181     7052.593     3977.787        3.224        0.944      211.592       36.867        0.030      339.544       12.946      870.971
01/24/2015  16:28:00      177.881      109.829       38.088       70.261       59.175       46.160     4936.539     3501.709     2130.784        2.786        0.528      209.055       21.667        0.011      339.529       12.921      870.975
01/24/2015  16:29:00      149.565       94.371       45.345       97.536       51.050       52.154     9513.354     2606.088     2720.008        2.408        0.742      176.849       29.670        0.028      339.543       12.946      870.977
01/24/2015  16:30:00       99.804       58.800       64.641       64.951       68.544       47.387     4218.627     4698.325     2245.551        1.438        0.558      115.837       48.480        0.175      339.562       12.979      870.978
01/24/2015  16:31:00       89.291       75.712       85.590       85.234       74.086       46.940     7264.848     5488.787     2203.367        1.799        0.748      117.069       36.855        0.099      339.550       12.959      870.975
01/24/2015  16:32:00      155.825       97.780       25.822       69.199       65.287       43.312     4788.549     4262.329     1875.892        2.272        0.546      183.963       23.170        0.016      339.527       12.920      870.984
01/24/2015  16:33:00      151.668       96.666       41.673       55.489       44.860       46.856     3078.990     2012.422     2195.449        2.068        0.364      179.854       25.911        0.021      339.497       12.870      870.993
01/24/2015  16:34:00      136.137       80.008       32.078       44.348       46.082       35.580     1966.774     2123.524     1265.924        1.566        0.268      157.907       25.855        0.027      339.494       12.864      870.994
01/24/2015  16:35:00      244.695      147.534       56.103      115.724       99.301       82.063    13392.035     9860.755     6734.351        5.738        1.499      285.731       41.531        0.021      339.468       12.818      870.989
01/24/2015  16:36:00      215.115      138.407       40.936       80.768       68.683       59.643     6523.506     4717.418     3557.308        4.095        0.740      255.795       35.406        0.019      339.458       12.801      870.974
01/24/2015  16:37:00      232.285      157.775       55.115      117.780       81.108       77.130    13872.190     6578.506     5949.016        5.414        1.320      280.801       39.154        0.019      339.447       12.782      870.968
01/24/2015  16:38:00      169.615      107.853       63.344      114.121       79.355       70.003    13023.697     6297.276     4900.360        3.431        1.211      201.001       40.931        0.041      339.428       12.751      870.962
01/24/2015  16:39:00      158.103       97.177       18.898       98.507       70.205       61.495     9703.635     4928.736     3781.654        2.660        0.921      185.580       17.553        0.009      339.409       12.721      870.970
01/24/2015  16:40:00      127.139       61.072       19.809       51.831       70.307       48.397     2686.438     4943.051     2342.313        1.513        0.499      141.047       28.335        0.040      339.372       12.659      870.977
01/24/2015  16:41:00      195.613      113.979       71.363      132.450       89.699       78.423    17543.017     8045.932     6150.154        4.404        1.587      226.397       75.098        0.110      339.401       12.706      870.966
01/24/2015  16:42:00      183.322      103.539       32.527       86.746       75.852       55.930     7524.794     5753.564     3128.171        3.089        0.820      210.540       53.091        0.064      339.406       12.715      870.962
01/24/2015  16:43:00      123.242       55.633       22.917       85.018       66.209       47.645     7228.014     4383.690     2270.090        1.634        0.694      135.217       42.016        0.097      339.383       12.677      870.959
01/24/2015  16:44:00       50.044       57.391       38.248       46.907       33.742       31.463     2200.264     1138.531      989.943        0.579        0.216       76.145       25.341        0.111      339.328       12.585      870.949
01/24/2015  16:45:00      135.307       44.863       23.716       79.296       53.941       40.459     6287.827     2909.580     1636.968        1.586        0.542      142.550       25.062        0.031      339.356       12.632      870.941
01/24/2015  16:46:00      155.932       75.520       45.860      104.883       59.720       44.584    11000.527     3566.492     1987.711        2.434        0.828      173.257       47.200        0.074      339.323       12.576      870.928
01/24/2015  16:47:00      184.504      126.290       52.773       72.870       61.582       67.578     5310.015     3792.401     4566.821        3.322        0.683      223.586       51.353        0.053      339.323       12.572      870.915
01/24/2015  16:48:00      294.327      197.723       63.155      106.772       79.842       62.444    11400.235     6374.762     3899.270        7.569        1.084      354.574       41.333        0.014      339.357       12.631      870.909
01/24/2015  16:49:00      217.383      108.041       44.419       82.576       52.457       63.167     6818.727     2751.776     3990.014        3.723        0.678      242.752       49.594        0.042      339.292       12.520      870.910
01/24/2015  16:50:00      174.965      111.411       62.652       95.840       64.612       60.880     9185.224     4174.757     3706.335        3.201        0.853      207.425       48.418        0.054      339.311       12.555      870.920
01/24/2015  16:51:00      203.262      126.425       15.963       62.495       56.427       43.591     3905.642     3183.992     1900.144        3.327        0.449      239.371       22.190        0.009      339.311       12.553      870.934
01/24/2015  16:52:00      137.776       73.919       19.078       73.834       39.695       33.409     5451.507     1575.659     1116.172        1.648        0.407      156.353       13.786        0.008      339.221       12.405      870.934
01/24/2015  16:53:00       69.877       40.636       39.957       83.327       50.870       49.600     6943.448     2587.781     2460.150        1.006        0.600       80.834       45.369        0.315      339.190       12.355      870.937
01/24/2015  16:54:00      107.641       70.167       54.852       90.806       85.501       49.753     8245.707     7310.398     2475.350        1.877        0.902      128.491       39.977        0.097      339.167       12.313      870.929
01/24/2015  16:55:00      149.066      105.832       37.852       90.025       72.123       58.754     8104.505     5201.708     3452.075        2.580        0.838      182.815       45.488        0.062      339.159       12.300      870.944
01/24/2015  16:56:00      218.949      113.715       35.129       69.990       67.875       46.067     4898.534     4606.999     2122.148        3.686        0.581      246.718       34.357        0.019      339.195       12.358      870.955
01/24/2015  16:57:00      103.621       68.586       39.305       58.369       53.849       41.862     3406.930     2899.680     1752.434        1.252        0.403      124.264       30.484        0.060      339.102       12.206      870.957
01/24/2015  16:58:00      164.213       88.536       27.799       79.634       52.385       43.031     6341.610     2744.170     1851.633        2.326        0.547      186.560       25.859        0.019      339.131       12.254      870.952
01/24/2015  16:59:00      194.094      110.124       31.152       68.551       63.207       42.170     4699.232     3995.073     1778.308        3.062        0.524      223.159       25.657        0.013      339.127       12.245      870.957
01/24/2015  17:00:00      157.553       92.023       13.270       97.261       60.409       42.285     9459.707     3649.239     1788.063        2.418        0.745      182.459       20.383        0.012      339.132       12.252      870.966
01/24/2015  17:01:00      158.834      113.922       18.961       66.945       60.370       47.830     4481.677     3644.559     2287.732        2.449        0.521      195.464       35.717        0.033      339.076       12.160      870.967
01/24/2015  17:02:00      223.104      106.979       45.664      113.880       65.336       57.887    12968.572     4268.840     3350.903        4.194        1.029      247.426       52.215        0.045      339.058       12.128      870.971
01/24/2015  17:03:00      151.772       92.425       28.546      105.407       81.588       61.854    11110.598     6656.679     3825.892        2.699        1.080      177.699       21.297        0.014      339.023       12.071      870.976
01/24/2015  17:04:00      161.992      107.218       29.056      112.707       75.563       53.451    12702.970     5709.713     2856.975        2.992        1.063      194.261       41.458        0.046      338.991       12.014      870.970
01/24/2015  17:05:00      145.133       68.301       32.447       94.142       62.156       53.175     8862.803     3863.312     2827.544        2.116        0.778      160.401       44.980        0.079      338.959       11.963      870.974
01/24/2015  17:06:00      137.790       90.687       26.762       49.194       58.703       47.542     2420.051     3446.054     2260.259        1.803        0.406      164.956       22.536        0.019      338.931       11.916      870.976
01/24/2015  17:07:00      160.985      105.679       17.276       77.579       50.886       46.950     6018.576     2589.357     2204.332        2.410        0.541      192.572       26.427        0.019      338.949       11.946      870.974
01/24/2015  17:08:00       87.880       24.319       20.072       61.687       47.734       34.898     3805.275     2278.560     1217.886        0.801        0.365       91.183       31.715        0.121      338.863       11.802      870.971
01/24/2015  17:09:00      117.954       64.553       30.277       61.955       43.125       50.735     3838.388     1859.791     2574.028        1.363        0.414      134.463       13.265        0.010      338.854       11.787      870.963
01/24/2015  17:10:00      150.755       70.587       17.036       75.323       60.072       61.685     5673.569     3608.682     3804.991        2.054        0.654      166.462       38.501        0.053      338.871       11.815      870.978
01/24/2015  17:11:00      167.837       86.063       23.520       55.290       67.370       52.127     3057.016     4538.763     2717.181        2.322        0.516      188.617       41.089        0.047      338.809       11.710      870.982
01/24/2015  17:12:00      206.369       92.840       25.183       66.547       60.127       47.586     4428.524     3615.292     2264.468        3.107        0.515      226.290       27.740        0.015      338.823       11.735      870.992
01/24/2015  17:13:00      141.155       60.655       13.436       81.709       69.371       50.468     6676.343     4812.389     2547.036        1.891        0.702      153.636       33.433        0.047      338.784       11.668      870.996
01/24/2015  17:14:00      146.236       79.700       13.557       64.303       56.037       43.860     4134.885     3140.169     1923.731        1.856        0.460      166.544       21.335        0.016      338.762       11.632      870.995
01/24/2015  17:15:00      195.030      112.094       21.813       60.625       55.385       39.951     3675.402     3067.491     1596.066        2.971        0.417      224.948       18.329        0.007      338.762       11.631      871.000
01/24/2015  17:16:00      147.556       69.323       12.143       68.181       54.247       34.486     4648.653     2942.768     1189.275        1.775        0.439      163.029       31.966        0.038      338.674       11.484      871.003
01/24/2015  17:17:00      206.400      131.087       28.104       62.384       61.167       36.400     3891.737     3741.445     1324.984        3.476        0.448      244.509       18.148        0.006      338.673       11.482      871.009
01/24/2015  17:18:00      136.982       89.411       25.403       85.805       53.657       46.277     7362.451     2879.082     2141.605        1.989        0.619      163.580       33.808        0.043      338.669       11.475      871.008
01/24/2015  17:19:00      155.379       79.581       16.657       73.619       59.165       45.262     5419.821     3500.489     2048.617        2.086        0.548      174.573       35.023        0.040      338.596       11.355      871.010
01/24/2015  17:20:00      199.995       66.835       42.482       78.554       61.827       42.457     6170.763     3822.570     1802.597        2.903        0.590      210.867       26.840        0.016      338.599       11.357      871.026
01/24/2015  17:21:00      156.551      101.923       37.337       62.712       44.958       45.925     3932.824     2021.248     2109.064        2.218        0.403      186.806       12.754        0.005      338.588       11.340      871.042
01/24/2015  17:22:00      136.323       84.332       21.744       58.865       56.015       37.400     3465.063     3137.680     1398.760        1.708        0.400      160.299       20.929        0.017      338.536       11.253      871.051
01/24/2015  17:23:00      195.344      106.336       26.945       74.748       53.174       46.174     5587.213     2827.482     2132.044        3.037        0.527      222.411       36.544        0.027      338.613       11.380      871.081
01/24/2015  17:24:00      176.637      120.249       21.249       64.274       53.792       52.039     4131.175     2893.561     2708.099        2.792        0.487      213.683       19.588        0.008      338.570       11.308      871.098
01/24/2015  17:25:00      207.428      110.286       26.170       90.037       69.174       48.065     8106.574     4785.110     2310.287        3.554        0.760      234.924       35.446        0.023      338.608       11.373      871.099
01/24/2015  17:26:00      131.264       91.611       10.230       54.932       40.786       33.642     3017.503     1663.507     1131.816        1.577        0.291      160.072       17.365        0.012      338.481       11.162      871.109
01/24/2015  17:27:00      146.321       61.858        1.227       56.356       43.344       39.134     3176.045     1878.727     1531.444        1.591        0.329      158.859       23.901        0.023      338.441       11.094      871.115
01/24/2015  17:28:00      171.009      101.602       27.669       58.831       55.861       50.316     3461.102     3120.489     2531.676        2.472        0.456      198.915       26.971        0.018      338.482       11.162      871.122
01/24/2015  17:29:00      147.352       98.658       20.747       66.004       61.552       45.716     4356.571     3788.707     2089.998        2.105        0.512      177.331       38.349        0.047      338.501       11.194      871.131
01/24/2015  17:30:00      154.703      105.236       16.455       42.549       51.729       44.726     1810.383     2675.871     2000.386        2.088        0.324      187.103       29.146        0.024      338.497       11.187      871.137
01/24/2015  17:31:00      132.572       68.038       15.994       44.244       30.698       31.462     1957.564      942.368      989.854        1.317        0.194      149.012       21.278        0.020      338.423       11.064      871.142
01/24/2015  17:32:00      157.507       89.882       20.198       66.155       61.037       52.757     4376.491     3725.505     2783.305        2.209        0.544      181.349       25.437        0.020      338.448       11.104      871.145
01/24/2015  17:33:00      168.662       93.063        9.631       48.903       52.107       32.892     2391.473     2715.157     1081.885        2.169        0.309      192.633       26.116        0.018      338.431       11.076      871.145
01/24/2015  17:34:00      164.561      108.596       37.665       85.795       49.422       58.052     7360.863     2442.510     3369.995        2.673        0.659      197.163       37.825        0.037      338.441       11.094      871.163
01/24/2015  17:35:00      168.953      102.322       17.011       89.747       57.846       36.584     8054.534     3346.161     1338.425        2.602        0.637      197.522       15.333        0.006      338.366       10.966      871.179
01/24/2015  17:36:00      113.440       66.951        4.108       43.119       37.711       32.836     1859.271     1422.113     1078.186        1.086        0.218      131.723       19.470        0.022      338.292       10.844      871.188
01/24/2015  17:37:00      118.304       64.262       20.567       93.384       59.812       46.276     8720.652     3577.484     2141.492        1.649        0.722      134.631       34.803        0.067      338.389       11.007      871.192
01/24/2015  17:38:00       93.705       48.123       32.889       57.356       40.816       33.519     3289.667     1665.950     1123.503        0.913        0.304      105.340       25.475        0.058      338.284       10.831      871.201
01/24/2015  17:39:00      125.177       76.718       40.861       62.727       37.300       38.658     3934.667     1391.293     1494.467        1.502        0.341      146.816        9.731        0.004      338.294       10.846      871.212
01/24/2015  17:40:00      143.052       80.203       43.742       44.322       38.917       35.003     1964.444     1514.537     1225.237        1.676        0.235      164.001       19.654        0.014      338.337       10.919      871.217
01/24/2015  17:41:00      134.679       81.490       29.405       51.746       39.188       34.759     2677.665     1535.708     1208.191        1.553        0.271      157.413       26.136        0.028      338.287       10.836      871.230
01/24/2015  17:42:00      135.333       86.303       14.851       53.830       42.503       45.134     2897.688     1806.538     2037.064        1.636        0.337      160.509       35.730        0.050      338.262       10.795      871.248
01/24/2015  17:43:00      190.739      118.014       13.651       56.395       54.687       37.256     3180.366     2990.668     1388.031        2.903        0.378      224.296       26.871        0.014      338.344       10.929      871.263
01/24/2015  17:44:00      110.630       73.994       17.181       54.760       28.927       31.259     2998.700      836.783      977.142        1.141        0.241      133.094       16.029        0.015      338.305       10.866      871.275
01/24/2015  17:45:00      140.751       91.639       27.277       57.769       39.824       37.058     3337.228     1585.966     1373.307        1.762        0.315      167.954       28.678        0.029      338.286       10.833      871.285
01/24/2015  17:46:00      130.852       90.379       17.511       51.552       41.053       34.240     2657.596     1685.312     1172.394        1.556        0.276      159.030       25.910        0.027      338.316       10.884      871.301
01/24/2015  17:47:00      105.396       73.797       19.369       36.939       26.644       23.510     1364.502      709.910      552.724        0.978        0.131      128.664       12.875        0.010      338.193       10.677      871.311
01/24/2015  17:48:00      116.380       81.919       19.337       45.151       35.516       25.073     2038.585     1261.383      628.680        1.228        0.196      142.320       15.171        0.011      338.255       10.782      871.307
01/24/2015  17:49:00      120.129       81.650       21.988       43.878       33.680       34.240     1925.268     1134.348     1172.389        1.291        0.212      145.251       18.937        0.017      338.227       10.735      871.328
01/24/2015  17:50:00      116.197       88.102        9.407       48.439       39.660       33.340     2346.302     1572.906     1111.540        1.319        0.252      145.820       25.458        0.030      338.147       10.601      871.342
01/24/2015  17:51:00      123.752       87.273       29.412       64.847       47.868       53.238     4205.196     2291.365     2834.286        1.656        0.467      151.430       32.686        0.047      338.222       10.726      871.360
01/24/2015  17:52:00      137.241      110.456        7.285       54.307       52.327       45.534     2949.248     2738.105     2073.385        1.942        0.388      176.169       34.786        0.039      338.214       10.711      871.359
01/24/2015  17:53:00      101.197       73.121       12.387       63.236       45.734       35.703     3998.842     2091.583     1274.703        1.155        0.368      124.849       27.701        0.049      338.142       10.591      871.371
01/24/2015  17:54:00       72.513       58.203        1.428       49.152       50.110       40.721     2415.942     2510.964     1658.215        0.762        0.329       92.982       30.499        0.108      338.133       10.576      871.366
01/24/2015  17:55:00       68.877       89.085       -5.718       51.567       52.076       34.261     2659.166     2711.878     1173.796        0.963        0.327      112.606       31.808        0.080      338.150       10.606      871.369
01/24/2015  17:56:00       60.169       92.404       -9.458       59.135       53.567       41.083     3496.971     2869.420     1687.794        1.015        0.403      110.266       38.117        0.119      338.167       10.633      871.376
01/24/2015  17:57:00       70.952       66.379        4.601       66.437       54.606       36.776     4413.812     2981.866     1352.471        0.910        0.437       97.161       27.099        0.078      338.134       10.578      871.390
01/24/2015  17:58:00       71.492       57.926        7.112       53.412       50.789       37.217     2852.888     2579.496     1385.128        0.767        0.341       92.014       38.123        0.172      338.116       10.549      871.402
01/24/2015  17:59:00       33.786       52.909        1.572       40.199       34.826       27.066     1615.956     1212.840      732.595        0.375        0.178       62.776       23.652        0.142      338.077       10.483      871.398
01/24/2015  18:00:00       54.991       41.036        0.693       30.739       22.362       21.808      944.861      500.050      475.606        0.331        0.096       68.614       12.367        0.032      338.107       10.534      871.406
01/24/2015  18:01:00       71.460       34.612       19.089       39.247       35.276       27.694     1540.308     1244.410      766.982        0.511        0.178       79.401       16.428        0.043      338.036       10.414      871.410
01/24/2015  18:02:00       53.870       40.659       11.578       41.905       31.871       26.247     1756.010     1015.785      688.930        0.407        0.173       67.491       19.109        0.080      338.068       10.467      871.422
01/24/2015  18:03:00       89.732       71.563        8.095       41.551       35.695       30.805     1726.481     1274.107      948.933        0.859        0.197      114.774       18.892        0.027      338.051       10.440      871.429
01/24/2015  18:04:00       80.303       58.389       11.239       27.170       34.231       22.153      738.236     1171.756      490.762        0.619        0.120       99.286       13.540        0.019      337.963       10.292      871.445
01/24/2015  18:05:00       72.175       40.557        2.691       32.344       31.991       25.101     1046.155     1023.439      630.047        0.478        0.135       82.790       14.126        0.029      337.947       10.266      871.451
01/24/2015  18:06:00      129.974       80.666       18.569       51.175       44.861       39.873     2618.880     2012.492     1589.882        1.498        0.311      152.972       27.120        0.031      337.959       10.286      871.454
01/24/2015  18:07:00       88.076       50.058        9.297       42.578       35.652       25.886     1812.874     1271.061      670.081        0.705        0.188      101.307       11.944        0.014      337.914       10.210      871.443
01/24/2015  18:08:00      146.097       70.564       35.143       65.775       54.376       51.775     4326.325     2956.716     2680.640        1.876        0.498      162.245       25.855        0.025      337.962       10.290      871.438
01/24/2015  18:09:00      118.629       88.820       37.005       67.907       51.013       52.201     4611.420     2602.326     2724.923        1.663        0.497      148.195       28.944        0.038      337.900       10.186      871.418
01/24/2015  18:10:00      162.816      124.715       25.591       95.000       66.817       59.168     9025.048     4464.543     3500.807        2.985        0.850      205.092       41.995        0.042      338.005       10.360      871.422
01/24/2015  18:11:00      119.911       69.130       22.524       85.178       51.614       61.481     7255.362     2663.999     3779.961        1.668        0.685      138.411       29.316        0.045      337.965       10.294      871.424
01/24/2015  18:12:00      102.087       78.275       35.748       49.185       40.631       35.998     2419.145     1650.867     1295.881        1.160        0.268      128.642       15.283        0.014      337.929       10.235      871.429
01/24/2015  18:13:00       67.727       65.149       34.955       55.668       44.629       39.581     3098.883     1991.787     1566.626        0.835        0.333       93.975       26.174        0.078      337.905       10.195      871.426
01/24/2015  18:14:00      116.587       76.351       20.274       59.879       39.499       33.953     3585.472     1560.159     1152.814        1.306        0.315      139.363       21.169        0.023      337.924       10.227      871.426
01/24/2015  18:15:00      147.600       95.994       17.140       65.510       44.951       50.212     4291.544     2020.557     2521.261        2.006        0.442      176.070       38.553        0.048      338.006       10.364      871.427
01/24/2015  18:16:00       63.045       55.762        7.368       51.090       40.224       22.404     2610.227     1617.965      501.959        0.593        0.237       84.167       15.934        0.036      337.867       10.130      871.434
01/24/2015  18:17:00       68.366       20.178       11.695       27.836       27.024       22.031      774.832      730.320      485.370        0.360        0.100       71.282        8.830        0.015      337.893       10.174      871.444
01/24/2015  18:18:00       35.302       19.855        9.046       41.986       30.954       12.040     1762.834      958.131      144.955        0.229        0.143       40.502       10.118        0.062      337.860       10.118      871.450
01/24/2015  18:19:00        3.588       23.754       -2.548       48.812       23.093       25.409     2382.642      533.275      645.639        0.207        0.178       24.024       28.392        1.397      337.826       10.063      871.462
01/24/2015  18:20:00      -18.191      -24.743        5.664       14.763       17.853       13.008      217.961      318.729      169.197        0.084        0.035       30.711        8.970        0.085      337.779        9.984      871.468
01/24/2015  18:21:00       36.035      -30.904        4.953       32.535       24.185       18.727     1058.509      584.916      350.714        0.214        0.100       47.472        9.863        0.043      337.849       10.101      871.487
01/24/2015  18:22:00       21.053      -25.783        3.574       14.268       16.235       16.425      203.586      263.591      269.775        0.093        0.037       33.287       11.395        0.117      337.852       10.104      871.493
01/24/2015  18:23:00       22.198        7.886       -1.816       17.922       16.076       11.849      321.200      258.437      140.400        0.064        0.036       23.557       10.094        0.184      337.851       10.106      871.501
01/24/2015  18:24:00       27.318        1.761        9.095       24.085       23.699       23.818      580.103      561.660      567.294        0.127        0.085       27.374       17.671        0.417      337.806       10.030      871.516
01/24/2015  18:25:00       23.135        4.109       10.243       19.179       19.689       26.027      367.849      387.648      677.419        0.104        0.072       23.497       15.041        0.410      337.737        9.913      871.505
01/24/2015  18:26:00       10.782       10.997        7.360       15.967       21.850       20.360      254.933      477.414      414.515        0.072        0.057       15.401       10.672        0.480      337.871       10.136      871.507
01/24/2015  18:27:00       17.818      -31.104      -11.858       35.301       28.877       24.477     1246.149      833.881      599.108        0.205        0.134       35.846       22.238        0.385      337.898       10.185      871.509
01/24/2015  18:28:00       44.328      -12.550       -3.621       23.086       18.519       21.309      532.964      342.970      454.082        0.173        0.067       46.071       17.712        0.148      337.916       10.213      871.535
01/24/2015  18:29:00       40.825        7.036       15.334       21.139       19.824       21.354      446.861      392.973      455.996        0.162        0.065       41.427       18.049        0.190      337.871       10.138      871.544
01/24/2015  18:30:00       33.015       30.363        3.983       29.358       27.238       15.367      861.887      741.920      236.138        0.193        0.092       44.855       14.596        0.106      337.828       10.065      871.566
01/24/2015  18:31:00       47.722       48.343        3.854       35.560       22.874       21.739     1264.501      523.229      472.581        0.344        0.113       67.930       13.223        0.038      337.816       10.046      871.589
01/24/2015  18:32:00       70.140       53.730        5.248       36.154       22.486       22.383     1307.126      505.629      500.985        0.507        0.116       88.355       10.433        0.014      337.816       10.045      871.597
01/24/2015  18:33:00        0.769       67.521        1.155       34.241       35.008       21.891     1172.440     1225.569      479.200        0.372        0.144       67.525       21.885        0.105      337.761        9.954      871.591
01/24/2015  18:34:00       -1.070       71.615        2.819       24.195       47.483       25.464      585.388     2254.628      648.433        0.431        0.174       71.623       28.300        0.156      337.687        9.830      871.600
01/24/2015  18:35:00      -22.518       74.264       -6.084       35.544       45.166       14.979     1263.372     2039.953      224.379        0.479        0.176       77.602       19.397        0.062      337.700        9.852      871.600
01/24/2015  18:36:00       46.852      119.073       -1.648       64.962       51.600       45.789     4220.013     2662.557     2096.655        1.268        0.449      127.959       39.834        0.097      337.708        9.864      871.610
01/24/2015  18:37:00      116.470       61.995        4.039       53.977       54.491       31.779     2913.499     2969.259     1009.936        1.216        0.345      131.941       19.626        0.022      337.920       10.219      871.618
01/24/2015  18:38:00       52.041       47.241        6.451       44.372       19.057       20.010     1968.891      363.155      400.408        0.386        0.137       70.285       12.392        0.031      337.769        9.967      871.617
01/24/2015  18:39:00       32.999       70.504      -12.210       20.258       24.293       14.208      410.404      590.160      201.870        0.371        0.060       77.844        8.297        0.011      337.697        9.845      871.617
01/24/2015  18:40:00       66.416       74.241      -10.673       24.419       46.437       19.083      596.277     2156.351      364.175        0.658        0.156       99.613       16.111        0.026      337.653        9.771      871.616
01/24/2015  18:41:00       32.617       85.061      -12.106       35.186       47.060       21.798     1238.055     2214.688      475.137        0.619        0.196       91.100       22.379        0.060      337.764        9.959      871.605
01/24/2015  18:42:00       26.458       86.857      -14.961       19.648       38.513       17.028      386.048     1483.256      289.951        0.531        0.108       90.798       16.827        0.034      337.746        9.927      871.592
01/24/2015  18:43:00       30.986      107.197      -14.885       24.496       48.036       23.950      600.031     2307.467      573.592        0.808        0.174      111.585       23.006        0.043      337.730        9.901      871.596
01/24/2015  18:44:00       51.160       55.830        3.625       53.393       36.705       27.848     2850.813     1347.257      775.505        0.536        0.249       75.726       13.111        0.030      337.673        9.805      871.610
01/24/2015  18:45:00       96.200       67.030       19.241       41.833       27.459       27.124     1749.969      753.999      735.687        0.868        0.162      117.249       23.293        0.039      337.715        9.877      871.627
01/24/2015  18:46:00       58.506       34.488        2.665       33.522       27.964       20.151     1123.748      782.007      406.059        0.347        0.116       67.914       14.066        0.043      337.529        9.565      871.656
01/24/2015  18:47:00       74.346       60.776        1.460       53.859       46.687       30.618     2900.791     2179.663      937.450        0.762        0.301       96.026       15.840        0.027      337.656        9.777      871.672
01/24/2015  18:48:00       66.670       44.164        3.486       38.736       22.416       27.464     1500.447      502.490      754.271        0.458        0.138       79.972        7.581        0.009      337.596        9.677      871.683
01/24/2015  18:49:00       55.187       40.486        4.731       24.924       18.055       16.716      621.224      325.985      279.416        0.297        0.061       68.445       12.063        0.031      337.577        9.645      871.689
01/24/2015  18:50:00       15.823       46.024        0.258       25.203       27.008       18.437      635.171      729.458      339.935        0.204        0.085       48.668       15.851        0.106      337.498        9.512      871.683
01/24/2015  18:51:00       28.768       83.820      -10.109       22.436       38.573       16.780      503.368     1487.880      281.570        0.511        0.114       88.619       16.712        0.036      337.585        9.658      871.668
01/24/2015  18:52:00       22.682       98.972      -15.135       21.476       32.710       18.255      461.212     1069.945      333.258        0.620        0.093      101.537       17.026        0.028      337.590        9.666      871.688
01/24/2015  18:53:00       16.633       45.773        1.792       23.391       33.003       22.084      547.137     1089.185      487.698        0.225        0.106       48.702       20.230        0.173      337.521        9.550      871.698
01/24/2015  18:54:00       18.585       67.129       -7.888       23.573       28.848       20.438      555.701      832.193      417.703        0.336        0.090       69.655       20.282        0.085      337.530        9.565      871.692
01/24/2015  18:55:00        6.415       84.638      -11.550       13.262       27.262       12.233      175.883      743.197      149.651        0.420        0.053       84.881       14.103        0.028      337.627        9.730      871.682
01/24/2015  18:56:00        1.637      100.660      -18.829       13.997       15.973        7.787      195.916      255.124       60.637        0.550        0.026      100.674        6.139        0.004      337.583        9.654      871.674
01/24/2015  18:57:00        8.612      116.108      -21.028       18.014       19.510        9.654      324.492      380.646       93.202        0.740        0.040      116.427        6.390        0.003      337.632        9.738      871.669
01/24/2015  18:58:00       -6.254      114.674      -19.660       15.848       22.632        9.314      251.170      512.230       86.760        0.721        0.043      114.845        8.231        0.005      337.605        9.693      871.667
01/24/2015  18:59:00      -33.794      120.730      -18.186       15.767       16.207       13.294      248.605      262.652      176.735        0.837        0.034      125.371        7.759        0.004      337.565        9.625      871.670
01/24/2015  19:00:00      -31.867      110.170      -17.091       18.084       22.333       11.670      327.017      498.745      136.178        0.720        0.048      114.687        6.429        0.003      337.608        9.698      871.677
01/24/2015  19:01:00      -40.062      120.342      -18.338       21.915       27.198       18.199      480.257      739.748      331.212        0.899        0.078      126.836       13.000        0.011      337.641        9.754      871.664
01/24/2015  19:02:00      -31.859      102.103      -12.104       22.937       24.256       15.062      526.103      588.371      226.872        0.646        0.067      106.958        8.855        0.007      337.641        9.752      871.660
01/24/2015  19:03:00      -36.154       86.031      -13.755       19.046       24.775       12.648      362.749      613.792      159.966        0.502        0.057       93.319       10.522        0.013      337.602        9.688      871.672
01/24/2015  19:04:00      -33.581       84.619      -10.716       27.807       26.269       14.223      773.250      690.060      202.296        0.503        0.083       91.039        9.561        0.011      337.549        9.598      871.678
01/24/2015  19:05:00      -40.874       88.750       -9.270       34.608       37.354       19.823     1197.699     1395.326      392.953        0.631        0.149       97.710       20.710        0.045      337.498        9.513      871.671
01/24/2015  19:06:00      -28.200      149.007      -23.317       22.128       27.534       15.499      489.645      758.096      240.213        1.251        0.074      151.652       13.433        0.008      337.451        9.433      871.662
01/24/2015  19:07:00      -24.264       90.111      -14.565       29.117       28.377       14.677      847.804      805.248      215.428        0.539        0.093       93.320        7.611        0.007      337.448        9.430      871.646
01/24/2015  19:08:00       -3.232      102.404      -14.215       37.183       52.687       18.684     1382.545     2775.920      349.097        0.760        0.225      102.455       24.325        0.056      337.448        9.428      871.629
01/24/2015  19:09:00       44.036      110.034       -2.824       52.221       74.421       40.908     2727.070     5538.513     1673.500        1.200        0.497      118.519       47.332        0.159      337.448        9.428      871.619
01/24/2015  19:10:00       30.568       81.197       -0.485       28.300       58.934       27.305      800.908     3473.255      745.541        0.627        0.251       86.760       30.556        0.124      337.339        9.247      871.636
01/24/2015  19:11:00       -8.347       86.434       -9.962       15.570       23.664       13.571      242.423      559.963      184.178        0.431        0.049       86.836        7.616        0.008      337.322        9.217      871.642
01/24/2015  19:12:00      -41.649       52.944       -6.281       26.934       22.098       13.118      725.421      488.314      172.074        0.298        0.069       67.363        7.419        0.012      337.216        9.039      871.656
01/24/2015  19:13:00      -36.022       77.965      -15.887       24.448       30.080       14.731      597.695      904.778      217.003        0.467        0.086       85.885       10.648        0.015      337.319        9.213      871.686
01/24/2015  19:14:00      -46.049       63.653      -18.268       27.554       26.415       14.195      759.215      697.741      201.484        0.408        0.083       78.564        9.499        0.015      337.303        9.185      871.714
01/24/2015  19:15:00      -74.421       35.517       -7.568       46.710       29.398       12.094     2181.821      864.220      146.257        0.502        0.160       82.462       15.287        0.034      337.160        8.947      871.726
01/24/2015  19:16:00      -73.376       -4.741      -13.411       25.368       21.600       15.465      643.527      466.542      239.176        0.347        0.067       73.529        9.622        0.017      337.008        8.691      871.737
01/24/2015  19:17:00      -59.757       10.271      -10.959       17.162       22.257       12.168      294.530      495.371      148.065        0.237        0.047       60.633        3.124        0.003      336.894        8.501      871.747
01/24/2015  19:18:00      -49.967        3.235      -11.067       17.889       24.719       10.092      320.033      611.005      101.843        0.183        0.052       50.072       11.991        0.057      337.022        8.715      871.731
01/24/2015  19:19:00      -72.489       13.944      -15.018       26.273       37.440       21.150      690.262     1401.743      447.341        0.411        0.127       73.818       18.788        0.065      336.970        8.627      871.714
01/24/2015  19:20:00      -69.252        4.987      -17.203       15.108       25.700       16.889      228.250      660.471      285.222        0.315        0.059       69.431       16.378        0.056      336.918        8.542      871.718
01/24/2015  19:21:00      -61.650      -29.570       -9.527       19.329       16.504       14.181      373.626      272.384      201.098        0.281        0.042       68.375        2.623        0.001      336.837        8.408      871.729
01/24/2015  19:22:00      -42.202      -14.301      -11.776       21.267       14.732       11.910      452.299      217.021      141.857        0.147        0.041       44.559        9.330        0.044      336.871        8.464      871.741
01/24/2015  19:23:00      -18.336       -3.079       -1.119       20.247       30.483       12.669      409.934      929.192      160.516        0.092        0.075       18.593       13.192        0.503      337.045        8.753      871.758
01/24/2015  19:24:00       33.871       60.803       -6.058       40.956       22.598       19.099     1677.415      510.680      364.771        0.372        0.128       69.601       12.838        0.034      337.369        9.296      871.769
01/24/2015  19:25:00      -34.477       47.544      -12.458       29.000       34.184       20.724      840.979     1168.576      429.479        0.302        0.122       58.729       16.180        0.076      337.346        9.256      871.767
01/24/2015  19:26:00        1.110       48.213       -0.213       43.483       39.370       19.847     1890.773     1549.966      393.892        0.308        0.192       48.226       20.376        0.179      337.240        9.081      871.775
01/24/2015  19:27:00       19.235       69.319       -8.555       31.131       27.412       19.158      969.113      751.417      367.028        0.367        0.104       71.938       17.197        0.057      337.336        9.242      871.789
01/24/2015  19:28:00        1.118       54.081       -3.160       31.284       26.504       25.853      978.690      702.441      668.359        0.264        0.117       54.092       21.496        0.158      337.259        9.114      871.798
01/24/2015  19:29:00       13.880       55.768      -13.331       22.389       32.539       12.465      501.271     1058.778      155.369        0.260        0.086       57.469       15.785        0.075      337.303        9.185      871.806
01/24/2015  19:30:00       -2.051       58.438       -8.258       29.735       25.995       14.522      884.146      675.728      210.902        0.263        0.089       58.474       15.578        0.071      337.269        9.129      871.805
01/24/2015  19:31:00       33.902       29.826        7.554       22.903       23.610       12.409      524.536      557.436      153.975        0.167        0.062       45.155       12.521        0.077      337.218        9.043      871.803
01/24/2015  19:32:00        2.564       48.154       -8.303       17.741       22.553        9.437      314.725      508.637       89.053        0.165        0.046       48.223        8.329        0.030      337.337        9.243      871.786
01/24/2015  19:33:00       -6.282       51.582      -10.134       27.218       36.966       11.923      740.815     1366.455      142.160        0.253        0.112       51.963       15.875        0.093      337.323        9.220      871.777
01/24/2015  19:34:00       42.978      120.272      -20.257       24.072       53.896       24.323      579.469     2904.759      591.608        1.040        0.204      127.721       26.724        0.044      337.371        9.298      871.778
01/24/2015  19:35:00       43.946       39.155        4.691       33.718       27.442       23.147     1136.897      753.077      535.785        0.296        0.121       58.859       19.630        0.111      337.313        9.202      871.772
01/24/2015  19:36:00       41.064       55.073       -4.969       19.881       22.451       15.973      395.272      504.026      255.137        0.295        0.058       68.697       14.449        0.044      337.304        9.187      871.762
01/24/2015  19:37:00       44.582       26.865       10.547       22.303       15.986        9.807      497.427      255.550       96.174        0.183        0.042       52.051        6.160        0.014      337.259        9.111      871.745
01/24/2015  19:38:00       39.208       37.017        0.483       29.126       19.574       18.465      848.299      383.158      340.972        0.224        0.079       53.921       18.573        0.119      337.270        9.133      871.745
01/24/2015  19:39:00       24.847       56.496       -4.187       23.536       20.447       16.847      553.965      418.082      283.825        0.254        0.063       61.718       14.708        0.057      337.228        9.061      871.747
01/24/2015  19:40:00       65.054       56.449       -2.853       31.687       33.551       28.319     1004.037     1125.685      801.980        0.518        0.147       86.131       21.636        0.063      337.331        9.233      871.733
01/24/2015  19:41:00       72.162       51.089        7.561       44.186       27.230       30.218     1952.384      741.472      913.143        0.574        0.180       88.417       26.222        0.088      337.296        9.175      871.713
01/24/2015  19:42:00       83.750       72.063       11.678       58.683       33.762       26.904     3443.722     1139.859      723.814        0.882        0.265      110.485       22.351        0.041      337.283        9.154      871.704
01/24/2015  19:43:00       74.007       56.717       -2.821       37.884       26.480       23.250     1435.176      701.182      540.551        0.569        0.134       93.241       17.389        0.035      337.232        9.067      871.713
01/24/2015  19:44:00       40.227       21.223        8.963       20.337       18.980       13.838      413.575      360.226      191.478        0.156        0.048       45.482       11.259        0.061      337.112        8.867      871.705
01/24/2015  19:45:00       46.539       28.554       10.903       19.543       16.400       11.866      381.927      268.947      140.804        0.195        0.040       54.601       10.349        0.036      337.099        8.844      871.696
01/24/2015  19:46:00       54.397       32.856        4.591       25.886       22.117       18.933      670.070      489.148      358.454        0.279        0.076       63.550       13.262        0.044      337.124        8.887      871.689
01/24/2015  19:47:00       63.192       45.049        7.646       23.422       32.895       21.099      548.585     1082.103      445.171        0.408        0.104       77.605       14.713        0.036      337.052        8.765      871.693
01/24/2015  19:48:00       77.025       33.757       14.887       31.287       26.288       18.760      978.876      691.064      351.929        0.466        0.101       84.097        9.670        0.013      337.052        8.765      871.708
01/24/2015  19:49:00       54.995       46.402        5.231       27.614       24.831       20.358      762.509      616.561      414.465        0.350        0.090       71.955       19.551        0.074      337.080        8.812      871.703
01/24/2015  19:50:00       44.588       35.726        8.243       22.605       20.059       15.715      510.976      402.379      246.958        0.225        0.058       57.136       12.365        0.047      337.061        8.779      871.684
01/24/2015  19:51:00       55.572       47.529        6.503       22.517       21.993       18.403      507.015      483.674      338.677        0.336        0.066       73.125       13.483        0.034      337.042        8.746      871.677
01/24/2015  19:52:00       35.019       23.320       10.139       19.120       18.279       14.381      365.559      334.114      206.803        0.139        0.045       42.073        7.650        0.033      336.990        8.662      871.669
01/24/2015  19:53:00       28.437       38.549       -2.086       19.997       22.226       18.926      399.867      494.000      358.191        0.178        0.063       47.904       15.924        0.110      337.076        8.803      871.665
01/24/2015  19:54:00        7.992       53.371       -5.506       21.892       29.776       16.559      479.277      886.622      274.192        0.229        0.082       53.966       18.461        0.117      337.049        8.759      871.664
01/24/2015  19:55:00       13.354       41.610      -13.226       24.991       27.219       11.857      624.570      740.860      140.594        0.180        0.075       43.701        6.187        0.020      337.108        8.858      871.652
01/24/2015  19:56:00       18.185       47.756      -10.527       22.733       28.760       11.396      516.779      827.127      129.869        0.210        0.074       51.101       12.903        0.064      337.104        8.852      871.644
01/24/2015  19:57:00       20.458       47.803       -3.864       33.484       44.208       16.345     1121.209     1954.355      267.153        0.303        0.167       51.996       18.275        0.124      337.063        8.784      871.634
01/24/2015  19:58:00        8.537       44.673        2.660       40.813       34.382       21.978     1665.722     1182.151      483.024        0.270        0.167       45.482       21.334        0.220      337.063        8.783      871.625
01/24/2015  19:59:00       32.176       16.574       15.543       28.060       18.277       15.047      787.389      334.063      226.415        0.145        0.067       36.193       10.278        0.081      336.947        8.589      871.626
01/24/2015  20:00:00       67.032       58.387       14.214       32.039       30.095       24.571     1026.489      905.707      603.758        0.532        0.127       88.896       12.718        0.020      337.044        8.752      871.623
01/24/2015  20:01:00       52.040       86.843       -4.052       40.416       54.750       29.179     1633.428     2997.576      851.402        0.787        0.274      101.242       28.031        0.077      337.058        8.774      871.613
01/24/2015  20:02:00       26.119       42.196        3.159       28.370       27.915       24.709      804.850      779.226      610.552        0.233        0.110       49.625       20.203        0.166      336.988        8.659      871.610
01/24/2015  20:03:00       46.137       71.359        8.502       47.003       43.078       35.618     2209.307     1855.735     1268.644        0.631        0.267       84.975       30.595        0.130      336.982        8.648      871.608
01/24/2015  20:04:00       25.154      120.485      -14.469       31.571       37.193       22.696      996.697     1383.288      515.089        0.913        0.145      123.082       20.613        0.028      336.974        8.635      871.624
01/24/2015  20:05:00       26.203      125.292       -4.474       41.673       53.769       36.340     1736.637     2891.060     1320.603        1.118        0.297      128.003       35.726        0.078      336.968        8.624      871.646
01/24/2015  20:06:00       35.680       82.933        7.856       47.446       53.439       37.401     2251.077     2855.770     1398.824        0.736        0.325       90.282       30.581        0.115      336.964        8.619      871.673
01/24/2015  20:07:00       27.552      104.659      -10.698       46.738       62.768       30.377     2184.421     3939.859      922.775        0.944        0.352      108.225       27.367        0.064      336.957        8.606      871.691
01/24/2015  20:08:00       37.317      143.344       -5.294       45.838       62.448       38.153     2101.111     3899.793     1455.630        1.471        0.373      148.122       37.460        0.064      336.985        8.652      871.708
01/24/2015  20:09:00       41.602      142.733      -10.534       44.805       68.823       49.843     2007.492     4736.634     2484.311        1.572        0.461      148.672       47.173        0.101      337.002        8.681      871.718
01/24/2015  20:10:00       21.664      106.795       -3.287       44.288       61.819       41.729     1961.402     3821.538     1741.310        0.970        0.376      108.970       40.005        0.135      336.951        8.596      871.730
01/24/2015  20:11:00       35.633      117.676        1.770       54.125       56.236       52.786     2929.507     3162.485     2786.331        1.200        0.444      122.953       43.744        0.127      336.952        8.598      871.741
01/24/2015  20:12:00       34.448      161.661      -15.043       53.223       89.109       49.566     2832.741     7940.456     2456.785        2.039        0.661      165.290       53.394        0.104      337.053        8.767      871.740
01/24/2015  20:13:00       48.401      161.682      -18.961       54.390       65.995       45.878     2958.300     4355.324     2104.825        1.913        0.471      168.771       41.590        0.061      337.028        8.724      871.745
01/24/2015  20:14:00       45.625      140.444        0.221       63.130       87.768       56.388     3985.415     7703.297     3179.555        1.833        0.743      147.669       54.083        0.134      337.049        8.759      871.766
01/24/2015  20:15:00       37.668      161.547      -15.578       57.339       77.048       50.190     3287.779     5936.412     2519.047        1.975        0.587      165.881       47.816        0.083      337.140        8.910      871.762
01/24/2015  20:16:00       45.031      136.454       -8.606       57.120       83.019       56.460     3262.741     6892.095     3187.727        1.703        0.667      143.692       57.160        0.158      337.158        8.942      871.760
01/24/2015  20:17:00       43.125      147.031      -15.044       60.971       79.685       52.108     3717.456     6349.711     2715.259        1.824        0.639      153.225       47.148        0.095      337.219        9.045      871.764
01/24/2015  20:18:00       26.152      159.496       -9.615       40.291       69.715       34.667     1623.374     4860.233     1201.821        1.695        0.384      161.625       36.785        0.052      337.145        8.920      871.786
01/24/2015  20:19:00       58.114      114.992      -13.756       43.153       64.281       41.177     1862.206     4132.020     1695.513        1.224        0.384      128.842       35.350        0.075      337.165        8.953      871.801
01/24/2015  20:20:00       30.122       75.314       -2.961       34.145       58.931       38.500     1165.884     3472.909     1482.263        0.635        0.306       81.114       31.102        0.147      337.089        8.826      871.807
01/24/2015  20:21:00       34.109       99.495       -8.874       46.781       58.953       37.843     2188.437     3475.503     1432.099        0.912        0.355      105.180       36.843        0.123      337.189        8.994      871.803
01/24/2015  20:22:00       27.977       69.878       -1.836       43.418       55.639       41.977     1885.136     3095.671     1762.038        0.620        0.337       75.271       36.165        0.231      337.173        8.969      871.803
01/24/2015  20:23:00       40.578      109.791       -6.523       39.888       64.590       35.965     1591.065     4171.827     1293.502        1.040        0.353      117.050       36.539        0.097      337.171        8.965      871.812
01/24/2015  20:24:00       24.902      106.355      -13.510       46.208       54.179       37.163     2135.219     2935.360     1381.114        0.928        0.323      109.232       31.900        0.085      337.150        8.930      871.812
01/24/2015  20:25:00       12.917      103.392       -6.788       34.072       54.537       32.511     1160.897     2974.246     1056.966        0.805        0.260      104.196       37.261        0.128      337.100        8.846      871.807
01/24/2015  20:26:00       39.836      131.764      -16.473       36.697       47.731       31.969     1346.686     2278.274     1022.007        1.193        0.232      137.654       29.020        0.044      337.138        8.909      871.811
01/24/2015  20:27:00       37.706      113.593      -10.369       38.908       69.421       34.496     1513.827     4819.228     1189.960        1.098        0.376      119.688       41.054        0.118      337.149        8.928      871.816
01/24/2015  20:28:00       39.298       99.314       -5.575       39.715       64.284       36.539     1577.274     4132.418     1335.118        0.924        0.352      106.807       34.956        0.107      337.164        8.953      871.830
01/24/2015  20:29:00       79.645       76.010       13.793       47.594       38.239       35.778     2265.235     1462.252     1280.082        0.866        0.250      110.095       26.087        0.056      337.184        8.986      871.845
01/24/2015  20:30:00       83.620       71.622        8.553       41.067       31.760       31.321     1686.512     1008.686      981.011        0.794        0.184      110.100       24.710        0.050      337.148        8.927      871.849
01/24/2015  20:31:00       73.764       54.324        8.936       37.887       34.445       27.171     1435.459     1186.476      738.279        0.592        0.168       91.609       17.062        0.035      337.178        8.977      871.848
01/24/2015  20:32:00       65.925       47.605        1.562       37.711       33.651       28.264     1422.123     1132.390      798.842        0.498        0.168       81.317       23.213        0.081      337.114        8.870      871.846
01/24/2015  20:33:00       32.337       19.740        3.492       27.083       31.170       17.671      733.507      971.562      312.264        0.173        0.101       37.886        6.222        0.027      337.040        8.743      871.846
01/24/2015  20:34:00       13.655        0.170        5.067       10.201       10.911        8.556      104.051      119.040       73.197        0.025        0.015       13.656        5.597        0.168      336.908        8.526      871.841
01/24/2015  20:35:00       59.771       24.980       10.839       22.766       20.369       16.918      518.299      414.908      286.230        0.277        0.061       64.781       12.875        0.040      337.080        8.810      871.823
01/24/2015  20:36:00       57.718       26.351       17.573       22.011       22.011       20.263      484.495      484.465      410.579        0.286        0.069       63.449       12.161        0.037      337.017        8.706      871.805
01/24/2015  20:37:00       84.308       33.984       17.579       33.152       38.698       25.275     1099.035     1497.535      638.835        0.590        0.162       90.900       21.144        0.054      337.035        8.737      871.795
01/24/2015  20:38:00       25.423       34.385       43.662       25.478       27.896       18.640      649.129      778.190      347.459        0.275        0.089       42.762       16.654        0.152      336.889        8.493      871.805
01/24/2015  20:39:00        6.331       29.821       37.810       28.221       20.786       26.232      796.434      432.075      688.144        0.214        0.096       30.486       22.658        0.552      336.864        8.452      871.816
01/24/2015  20:40:00       50.893       33.803       34.662       38.060       26.978       29.531     1448.544      727.830      872.084        0.399        0.152       61.096       29.907        0.240      336.871        8.463      871.834
01/24/2015  20:41:00       38.401       23.674       30.433       32.865       23.280       25.968     1080.107      541.976      674.335        0.263        0.115       45.112       20.864        0.214      336.858        8.443      871.842
01/24/2015  20:42:00       18.207       27.964       42.216       26.311       20.453       16.645      692.288      418.315      277.072        0.214        0.069       33.369       13.522        0.164      336.843        8.418      871.852
01/24/2015  20:43:00       48.257       26.714       35.463       22.474       26.285       19.602      505.060      690.914      384.235        0.294        0.079       55.157       15.901        0.083      336.841        8.415      871.853
01/24/2015  20:44:00       31.815       14.204       31.178       23.704       16.262       16.513      561.875      264.438      272.684        0.164        0.055       34.842       11.426        0.108      336.760        8.279      871.863
01/24/2015  20:45:00       63.840       23.069       19.472       34.294       18.710       19.967     1176.065      350.050      398.680        0.346        0.096       67.880       14.935        0.048      336.814        8.369      871.875
01/24/2015  20:46:00       48.842       20.425        9.558       22.413       15.812       14.431      502.321      250.006      208.264        0.193        0.048       52.941       11.704        0.049      336.824        8.384      871.895
01/24/2015  20:47:00       28.137       26.477        5.118       19.840       12.062        9.655      393.639      145.489       93.224        0.108        0.032       38.636        4.859        0.016      336.845        8.422      871.903
01/24/2015  20:48:00      -13.521       24.658       -2.891       11.177       12.900        5.119      124.931      166.405       26.200        0.056        0.016       28.122        4.702        0.028      336.891        8.497      871.912
01/24/2015  20:49:00        3.451       31.157       -4.940       10.484        5.801        4.393      109.914       33.648       19.296        0.058        0.008       31.348        4.138        0.017      336.949        8.593      871.914
01/24/2015  20:50:00        2.846       24.346       -2.089        8.145        6.286        5.108       66.345       39.513       26.092        0.037        0.007       24.512        4.626        0.036      336.957        8.608      871.909
01/24/2015  20:51:00      -59.670      -14.020       -9.383       24.257       15.958        9.654      588.382      254.646       93.209        0.239        0.047       61.295        9.239        0.023      336.190        7.324      871.898
01/24/2015  20:52:00      -75.552        4.041       -9.014       19.857       17.260       14.915      394.313      297.919      222.449        0.336        0.046       75.660       12.643        0.028      335.965        6.950      871.881
01/24/2015  20:53:00      -72.659       -9.143       -7.164       26.464       15.253       13.369      700.332      232.658      178.720        0.326        0.056       73.232       14.640        0.040      335.934        6.897      871.870
01/24/2015  20:54:00      -86.339       -1.861      -11.780       16.295       11.917       11.062      265.519      142.014      122.369        0.406        0.026       86.359        8.281        0.009      335.941        6.908      871.859
01/24/2015  20:55:00     -101.937      -23.058      -15.565       14.168       10.838        9.135      200.731      117.459       83.452        0.578        0.020      104.512        3.202        0.001      336.055        7.098      871.846
01/24/2015  20:56:00      -93.674      -13.873      -10.995        7.121       11.979        8.544       50.706      143.500       72.999        0.468        0.013       94.696        5.230        0.003      336.076        7.133      871.842
01/24/2015  20:57:00      -74.912      -12.417      -14.373        9.233        9.251        6.076       85.249       85.588       36.916        0.309        0.010       75.934        2.201        0.001      336.088        7.156      871.850
01/24/2015  20:58:00      -73.241      -16.427      -13.575        7.202       11.595        7.809       51.864      134.434       60.983        0.303        0.012       75.061        7.562        0.010      336.214        7.367      871.864
01/24/2015  20:59:00      -72.721      -35.683       -8.248        7.865        8.744        7.108       61.855       76.457       50.526        0.341        0.009       81.004        4.070        0.003      336.174        7.297      871.884
01/24/2015  21:00:00      -63.846      -22.746       -3.540       14.859       14.449        9.616      220.796      208.759       92.467        0.256        0.026       67.776        7.696        0.013      336.226        7.386      871.907
01/24/2015  21:01:00      -77.638      -32.202       -6.684       14.038       11.579        8.165      197.056      134.084       66.661        0.375        0.020       84.051        7.188        0.007      336.176        7.303      871.919
01/24/2015  21:02:00      -93.978      -27.204      -11.359        8.146       10.131        7.713       66.364      102.637       59.495        0.496        0.011       97.836        6.598        0.005      336.213        7.365      871.936
01/24/2015  21:03:00      -98.684       -4.972       -9.857       22.308        8.685        9.019      497.630       75.421       81.341        0.526        0.033       98.809       10.417        0.011      336.050        7.090      871.957
01/24/2015  21:04:00      -97.026      -16.425      -11.148       21.422       13.398       11.504      458.891      179.510      132.352        0.529        0.039       98.407       12.450        0.016      336.124        7.215      871.963
01/24/2015  21:05:00      -68.893        8.597      -13.982       11.505       21.759        9.812      132.366      473.473       96.272        0.286        0.035       69.427       10.442        0.023      336.434        7.735      871.973
01/24/2015  21:06:00      -75.961       11.751      -12.822        5.651        9.740        5.748       31.930       94.858       33.043        0.312        0.008       76.864        2.204        0.001      336.864        8.453      871.971
01/24/2015  21:07:00      -67.726      -33.231      -12.162       10.057       16.422       12.076      101.145      269.687      145.833        0.318        0.026       75.440        6.083        0.007      336.510        7.859      871.948
01/24/2015  21:08:00      -62.453      -32.068      -10.071       21.361       15.960        9.418      456.284      254.720       88.701        0.291        0.040       70.205       10.262        0.021      335.928        6.889      871.924
01/24/2015  21:09:00     -104.827      -16.828       -6.521       22.037       15.818       15.529      485.619      250.212      241.156        0.615        0.049      106.169       14.768        0.019      335.828        6.721      871.915
01/24/2015  21:10:00      -99.347      -11.675      -12.229       10.087       12.784       10.546      101.757      163.439      111.215        0.527        0.019      100.030        8.719        0.008      335.812        6.694      871.925
01/24/2015  21:11:00      -93.744      -12.098      -14.783       14.362       13.797        9.666      206.275      190.349       93.431        0.482        0.025       94.522        4.724        0.002      336.217        7.369      871.928
01/24/2015  21:12:00     -110.387      -32.589      -11.931       15.087       19.763       14.951      227.610      390.593      223.521        0.712        0.042      115.097       11.365        0.010      336.083        7.146      871.916
01/24/2015  21:13:00      -76.802        2.608       -9.511       30.203       25.329       15.970      912.246      641.546      255.052        0.390        0.090       76.846       11.492        0.022      336.430        7.727      871.914
01/24/2015  21:14:00      -36.447        1.057       -6.006       27.374        9.227       10.611      749.353       85.135      112.597        0.116        0.047       36.462       14.268        0.153      336.546        7.921      871.907
01/24/2015  21:15:00      -57.037       -2.846      -12.077       15.010       11.936        7.222      225.313      142.467       52.157        0.191        0.021       57.108        1.689        0.001      336.324        7.549      871.912
01/24/2015  21:16:00      -78.325        4.300      -12.179       10.135       10.900        8.239      102.721      118.812       67.880        0.330        0.014       78.443        3.952        0.003      336.472        7.797      871.899
01/24/2015  21:17:00      -68.111        3.593       -7.995       15.321       12.264       11.188      234.740      150.416      125.179        0.261        0.026       68.205        3.681        0.003      336.417        7.704      871.887
01/24/2015  21:18:00      -78.553       -7.152      -13.971       12.186        8.788        8.394      148.489       77.231       70.452        0.336        0.015       78.878        6.839        0.008      336.438        7.740      871.876
01/24/2015  21:19:00     -104.220      -13.240      -18.122       10.084       10.903        6.577      101.685      118.874       43.262        0.581        0.013      105.057        3.635        0.001      336.303        7.515      871.878
01/24/2015  21:20:00     -105.418       -3.931      -19.601       11.588       11.929       10.297      134.286      142.306      106.029        0.595        0.019      105.491        2.247        0.000      336.288        7.489      871.888
01/24/2015  21:21:00     -100.559      -16.924      -21.489       13.361       13.075        9.251      178.515      170.966       85.590        0.565        0.022      101.973        6.533        0.004      336.039        7.071      871.899
01/24/2015  21:22:00     -103.647      -30.724      -16.791       27.916       18.278       17.706      779.320      334.103      313.487        0.670        0.071      108.105       18.547        0.029      335.823        6.714      871.909
01/24/2015  21:23:00      -61.717      -28.319       -8.215       21.266       14.262       15.432      452.235      203.414      238.136        0.279        0.045       67.904       14.617        0.046      335.598        6.339      871.925
01/24/2015  21:24:00      -76.189        0.718      -13.879       24.110       23.628       16.978      581.278      558.263      288.243        0.371        0.071       76.192       10.861        0.020      335.664        6.449      871.943
01/24/2015  21:25:00      -82.594       36.333      -17.857       24.542       24.909       15.695      602.308      620.435      246.328        0.496        0.073       90.233        7.015        0.006      335.952        6.929      871.940
01/24/2015  21:26:00      -74.955       36.496      -21.272       18.833       24.671       14.287      354.693      608.652      204.124        0.428        0.058       83.368       12.052        0.021      336.247        7.420      871.942
01/24/2015  21:27:00      -64.388       38.656      -18.899       12.114       24.456       14.140      146.743      598.100      199.951        0.347        0.047       75.100       10.905        0.021      336.441        7.745      871.933
01/24/2015  21:28:00      -73.433        9.537      -10.413       17.089       18.987       16.012      292.018      360.521      256.391        0.325        0.045       74.050       11.895        0.026      336.238        7.405      871.934
01/24/2015  21:29:00      -69.282        3.945      -19.269       13.587       13.065       10.221      184.615      170.706      104.460        0.282        0.023       69.395        7.330        0.011      336.004        7.015      871.925
01/24/2015  21:30:00      -40.951       -5.025       -4.412       19.716       12.202       12.164      388.731      148.879      147.951        0.120        0.034       41.258        6.003        0.021      335.967        6.954      871.913
01/24/2015  21:31:00      -54.508        7.678      -10.576       13.908       17.480        8.316      193.427      305.544       69.157        0.185        0.028       55.046        6.758        0.015      335.919        6.874      871.900
01/24/2015  21:32:00      -73.757       56.570      -17.279       16.892       20.736       10.398      285.344      429.966      108.125        0.488        0.041       92.953       11.862        0.016      336.461        7.779      871.908
01/24/2015  21:33:00      -87.931       65.767      -19.314       11.791       17.126        8.358      139.034      293.284       69.858        0.647        0.025      109.805        6.728        0.004      336.635        8.069      871.906
01/24/2015  21:34:00      -63.738       63.916      -17.128       17.426       15.276        7.166      303.650      233.342       51.355        0.451        0.029       90.265        7.636        0.007      336.752        8.264      871.891
01/24/2015  21:35:00      -43.725       50.995      -15.450       18.357       29.181       10.031      336.993      851.524      100.622        0.302        0.064       67.174       12.369        0.034      336.631        8.062      871.890
01/24/2015  21:36:00      -55.259       58.782      -16.359       23.484       20.169       11.848      551.507      406.772      140.375        0.394        0.055       80.678        7.483        0.009      336.748        8.257      871.906
01/24/2015  21:37:00      -45.563       67.227      -13.624       28.071       22.838       10.105      787.961      521.567      102.116        0.410        0.071       81.212       10.319        0.016      336.717        8.207      871.899
01/24/2015  21:38:00      -36.806       83.963      -10.890       25.597       19.535       13.998      655.204      381.635      195.946        0.488        0.062       91.677        8.448        0.008      336.852        8.431      871.887
01/24/2015  21:39:00      -13.308       99.202       -9.561       15.718       18.483       10.067      247.060      341.607      101.345        0.540        0.035      100.090        7.187        0.005      336.889        8.493      871.865
01/24/2015  21:40:00      -19.194       88.164       -8.689        8.934        8.505        7.694       79.821       72.335       59.205        0.421        0.011       90.229        4.298        0.002      336.818        8.376      871.846
01/24/2015  21:41:00      -18.397       92.521      -10.128        8.316       11.767        5.850       69.158      138.460       34.220        0.462        0.012       94.333        5.454        0.003      336.782        8.316      871.842
01/24/2015  21:42:00      -26.646      105.197      -17.736        9.179       10.349        8.257       84.247      107.093       68.182        0.618        0.013      108.519        5.747        0.003      336.845        8.421      871.839
01/24/2015  21:43:00      -24.406      104.146      -12.203       17.254       32.358       14.683      297.705     1047.030      215.582        0.658        0.078      106.967        8.371        0.006      336.822        8.382      871.839
01/24/2015  21:44:00      -24.431       91.162      -12.224       21.671       44.700       14.261      469.652     1998.052      203.365        0.586        0.134       94.379       16.747        0.031      336.808        8.358      871.848
01/24/2015  21:45:00      -23.913      109.554      -16.763       17.863       29.800       15.761      319.104      888.041      248.394        0.716        0.073      112.134       14.611        0.017      336.893        8.500      871.861
01/24/2015  21:46:00      -24.302      141.315      -18.053       15.894       17.871        8.805      252.617      319.377       77.522        1.077        0.032      143.389        6.429        0.002      336.731        8.230      871.876
01/24/2015  21:47:00      -16.874      163.460      -21.800       14.183       21.269       10.566      201.153      452.389      111.643        1.412        0.038      164.329        9.526        0.003      336.800        8.346      871.896
01/24/2015  21:48:00      -23.205      164.547      -19.844       17.124       17.054       11.680      293.237      290.847      136.429        1.436        0.036      166.175        9.429        0.003      336.710        8.195      871.904
01/24/2015  21:49:00      -13.817      166.321      -23.822       20.505       20.647       10.347      420.453      426.282      107.057        1.469        0.048      166.894        7.890        0.002      336.716        8.205      871.903
01/24/2015  21:50:00      -26.767      164.290      -24.561       23.504       21.887       12.412      552.437      479.042      154.061        1.475        0.059      166.457        7.791        0.002      336.700        8.178      871.898
01/24/2015  21:51:00      -26.771      155.284      -22.239       17.741       29.086       15.079      314.730      846.010      227.387        1.336        0.069      157.575        8.929        0.003      336.781        8.312      871.892
01/24/2015  21:52:00      -37.055      161.571      -26.295       17.267       19.927       12.730      298.157      397.083      162.061        1.451        0.043      165.766        6.123        0.001      336.774        8.303      871.884
01/24/2015  21:53:00      -44.531      128.266      -17.396       22.036       31.242       17.552      485.570      976.032      308.068        1.025        0.088      135.776       12.910        0.009      336.809        8.360      871.889
01/24/2015  21:54:00      -53.329      121.578      -16.147       26.745       36.980       21.759      715.317     1367.523      473.457        1.022        0.128      132.760       18.064        0.019      336.858        8.442      871.897
01/24/2015  21:55:00      -45.908       88.799      -13.419       26.484       28.133       14.579      701.413      791.481      212.555        0.594        0.085       99.964       10.219        0.010      336.762        8.283      871.908
01/24/2015  21:56:00      -57.030      101.603      -14.383       30.702       29.906       20.356      942.617      894.353      414.359        0.802        0.113      116.514       17.102        0.022      336.722        8.215      871.915
01/24/2015  21:57:00      -32.404      127.885      -15.257       24.934       40.048       16.373      621.687     1603.849      268.071        1.007        0.125      131.926        6.114        0.002      336.833        8.400      871.918
01/24/2015  21:58:00      -41.811       80.544      -11.057       25.978       52.037       15.240      674.858     2707.838      232.256        0.599        0.181       90.750        4.232        0.002      336.594        8.002      871.920
01/24/2015  21:59:00      -43.278       83.155      -11.479       27.561       22.133       13.558      759.630      489.861      183.810        0.518        0.072       93.743        9.928        0.011      336.671        8.130      871.922
01/24/2015  22:00:00      -49.592      123.748      -13.235       31.738       45.201       19.738     1007.324     2043.086      389.570        1.069        0.172      133.315       21.374        0.026      336.636        8.071      871.914
01/24/2015  22:01:00      -32.451      107.359      -11.443       20.031       42.617       14.257      401.255     1816.174      203.259        0.756        0.121      112.157       14.895        0.018      336.626        8.055      871.912
01/24/2015  22:02:00      -28.953      101.804      -15.530       24.641       24.518       15.087      607.165      601.152      227.622        0.644        0.072      105.841       12.266        0.013      336.730        8.229      871.908
01/24/2015  22:03:00       -8.842       39.837       -2.005       15.907       31.405       11.189      253.039      986.261      125.183        0.152        0.068       40.807        8.154        0.040      336.448        7.756      871.905
01/24/2015  22:04:00      -13.160       68.821       -2.969       16.112       28.902       10.052      259.600      835.326      101.052        0.306        0.060       70.068        4.849        0.005      336.492        7.829      871.904
01/24/2015  22:05:00        1.247       80.148      -14.727       19.123       20.779        9.768      365.696      431.785       95.413        0.377        0.045       80.158        8.717        0.012      336.527        7.890      871.901
01/24/2015  22:06:00       -6.774       70.754       -5.372       19.785       35.344       18.715      391.440     1249.187      350.265        0.354        0.100       71.078       17.747        0.062      336.444        7.751      871.903
01/24/2015  22:07:00        8.174       67.195       -8.238       12.460       11.931        7.491      155.254      142.345       56.115        0.250        0.018       67.690        2.807        0.002      336.418        7.707      871.902
01/24/2015  22:08:00       13.590       55.791       -6.664       15.380       14.349        9.108      236.529      205.880       82.954        0.193        0.026       57.422        5.361        0.009      336.326        7.551      871.907
01/24/2015  22:09:00        4.589       76.629       -4.767       13.115       16.989       10.362      172.000      288.617      107.369        0.324        0.028       76.766       10.169        0.018      336.350        7.593      871.913
01/24/2015  22:10:00        2.116       30.403        3.549       10.131       26.243        7.851      102.628      688.672       61.641        0.090        0.043       30.477       10.217        0.112      336.250        7.425      871.916
01/24/2015  22:11:00        6.813       -6.896       -0.923        7.535        5.859        5.237       56.773       34.332       27.421        0.011        0.006        9.694        1.392        0.021      336.070        7.124      871.919
01/24/2015  22:12:00      -13.464       -7.487       -2.995       10.233        9.833        4.167      104.712       96.689       17.361        0.023        0.011       15.406        2.746        0.032      335.876        6.802      871.919
01/24/2015  22:13:00      -53.763      -26.922      -11.603       14.132        8.215        5.921      199.709       67.487       35.061        0.203        0.015       60.127        4.555        0.006      335.610        6.357      871.924
01/24/2015  22:14:00      -81.832      -23.521      -17.408       10.303        9.491       10.908      106.151       90.073      118.982        0.393        0.016       85.145        9.447        0.012      335.420        6.041      871.932
01/24/2015  22:15:00      -92.213      -29.497      -16.800       10.717       13.251        8.187      114.853      175.590       67.035        0.501        0.018       96.816        4.895        0.003      335.245        5.750      871.957
01/24/2015  22:16:00      -90.224      -38.842      -14.108        9.143        8.630        7.234       83.590       74.471       52.336        0.503        0.011       98.230        3.999        0.002      335.248        5.755      871.973
01/24/2015  22:17:00      -77.464      -33.907      -12.512       12.665       10.836        9.651      160.397      117.414       93.146        0.384        0.019       84.559        6.797        0.006      335.273        5.797      871.980
01/24/2015  22:18:00      -83.336      -25.950      -15.283       17.000       12.206       10.097      288.995      148.978      101.942        0.420        0.027       87.283        8.540        0.010      335.140        5.577      871.992
01/24/2015  22:19:00      -74.854      -20.830      -11.808       13.977       15.444       10.102      195.362      238.529      102.051        0.336        0.027       77.699        5.578        0.005      335.227        5.721      871.996
01/24/2015  22:20:00      -71.602      -14.603      -18.592       13.304       12.177        8.318      176.996      148.286       69.192        0.304        0.020       73.076        6.655        0.008      335.285        5.817      871.990
01/24/2015  22:21:00      -64.325      -16.663      -13.239       10.895       13.115       10.340      118.708      172.012      106.922        0.249        0.020       66.448        9.307        0.020      335.599        6.340      871.975
01/24/2015  22:22:00      -36.918      -30.543      -11.841       15.350       11.558        7.193      235.626      133.584       51.733        0.143        0.021       47.914        6.240        0.017      335.375        5.964      871.966
01/24/2015  22:23:00      -17.976      -10.571       -3.543        9.309       12.165        5.443       86.666      147.976       29.622        0.036        0.013       20.854        2.020        0.009      335.689        6.489      871.959
01/24/2015  22:24:00       -2.086       -6.017       -4.925       15.612       14.258        7.804      243.740      203.277       60.902        0.029        0.025        6.369        8.157        1.640      335.808        6.689      871.963
01/24/2015  22:25:00       10.992       21.042       -4.323       19.947       11.658        8.471      397.864      135.908       71.760        0.059        0.030       23.740        6.284        0.070      335.916        6.867      871.967
01/24/2015  22:26:00       -6.911      -13.192       -1.149        6.803       13.323        4.311       46.276      177.501       18.589        0.023        0.012       14.893        2.393        0.026      335.755        6.601      871.973
01/24/2015  22:27:00        9.559       12.227        4.105       13.517       12.547        6.992      182.700      157.427       48.889        0.032        0.019       15.521        7.347        0.224      336.038        7.073      871.977
01/24/2015  22:28:00       29.366       17.969        9.026       14.236       11.953       13.838      202.661      142.864      191.483        0.090        0.027       34.427        9.556        0.077      336.040        7.073      871.974
01/24/2015  22:29:00       35.039       13.333        7.410       10.539       10.042        7.061      111.061      100.843       49.859        0.086        0.013       37.490        4.517        0.015      335.842        6.745      871.992
01/24/2015  22:30:00       29.922        2.681        3.961       10.723        7.540        6.863      114.975       56.854       47.094        0.057        0.011       30.041        5.274        0.031      335.506        6.186      872.006
01/24/2015  22:31:00       18.967        0.419        4.299       10.794       11.703        8.889      116.507      136.952       79.019        0.036        0.017       18.972        8.157        0.185      335.272        5.794      872.015
01/24/2015  22:32:00        8.317       11.404       16.157       10.316       10.669       11.629      106.424      113.825      135.242        0.041        0.018       14.115        4.798        0.116      335.172        5.630      872.037
01/24/2015  22:33:00       18.029       -9.815        7.040       10.207       13.389        7.222      104.173      179.265       52.161        0.040        0.017       20.528        4.384        0.046      335.265        5.783      872.054
01/24/2015  22:34:00        8.951       -2.530        2.609       11.225       17.239        9.726      126.004      297.169       94.601        0.031        0.026        9.302       11.682        1.577      335.176        5.635      872.075
01/24/2015  22:35:00      -25.637      -13.826       -0.076       14.975        5.081        3.864      224.259       25.815       14.928        0.056        0.013       29.128        2.778        0.009      335.209        5.691      872.082
01/24/2015  22:36:00      -45.728      -11.814       -7.111        6.262        7.100        7.332       39.208       50.413       53.752        0.121        0.007       47.229        4.378        0.009      335.058        5.440      872.095
01/24/2015  22:37:00      -16.826       13.673       -2.056       18.409       13.362        8.961      338.888      178.537       80.297        0.054        0.030       21.681        9.391        0.188      335.430        6.057      872.114
01/24/2015  22:38:00      -10.077       -2.138        0.834       14.589        9.299        8.559      212.843       86.465       73.261        0.024        0.019       10.301        7.368        0.512      335.434        6.063      872.123
01/24/2015  22:39:00       21.912        2.438        0.718        7.966        6.423        4.879       63.460       41.250       23.808        0.031        0.006       22.047        3.391        0.024      335.458        6.105      872.143
01/24/2015  22:40:00       36.970       11.991        4.090        4.480        5.473        3.814       20.069       29.958       14.546        0.080        0.003       38.866        2.105        0.003      335.426        6.050      872.171
01/24/2015  22:41:00       43.978       20.829        6.038        6.570        5.302        3.639       43.162       28.106       13.245        0.124        0.004       48.661        2.047        0.002      335.489        6.157      872.200
01/24/2015  22:42:00       26.872       19.454        4.456       12.762        4.769        4.731      162.857       22.747       22.380        0.066        0.010       33.175        3.904        0.014      335.487        6.153      872.216
01/24/2015  22:43:00        0.642        5.660        5.096        8.172        6.166        4.545       66.779       38.023       20.654        0.009        0.006        5.697        3.685        0.418      335.336        5.902      872.210
01/24/2015  22:44:00       11.651       22.473        1.758        4.436        7.821        3.586       19.677       61.172       12.858        0.037        0.005       25.314        3.192        0.016      335.502        6.178      872.201
01/24/2015  22:45:00        6.289        8.537       10.013        9.567        9.390        6.951       91.530       88.164       48.318        0.022        0.011       10.603        5.326        0.252      335.483        6.146      872.203
01/24/2015  22:46:00       19.251        7.968        1.027        5.024        8.341        5.070       25.238       69.565       25.700        0.028        0.006       20.834        3.256        0.024      335.408        6.021      872.218
01/24/2015  22:47:00       10.733       28.668        2.675        6.159        6.211        4.197       37.928       38.579       17.613        0.052        0.005       30.611        3.229        0.011      335.476        6.134      872.239
01/24/2015  22:48:00       20.819       22.784        4.675       11.403       11.316        7.934      130.035      128.057       62.946        0.065        0.016       30.863        7.832        0.064      335.480        6.142      872.245
01/24/2015  22:49:00        7.094       35.931       -4.172        8.222        8.337        7.693       67.594       69.506       59.175        0.078        0.010       36.624        5.131        0.020      335.556        6.272      872.237
01/24/2015  22:50:00       -3.831       26.299       -6.631        5.834        6.810        4.888       34.036       46.370       23.891        0.043        0.005       26.577        3.862        0.021      335.573        6.302      872.230
01/24/2015  22:51:00       -4.511       47.774       -7.481        5.800       17.158        5.367       33.635      294.396       28.804        0.136        0.018       47.987        6.397        0.018      335.605        6.351      872.220
01/24/2015  22:52:00       -4.032       58.496      -11.223        6.450        8.720        6.185       41.600       76.044       38.251        0.186        0.008       58.635        4.282        0.005      335.620        6.377      872.216
01/24/2015  22:53:00        9.848       64.171      -12.181       11.229        7.049        6.012      126.099       49.694       36.146        0.229        0.011       64.922        4.185        0.004      335.590        6.325      872.224
01/24/2015  22:54:00        5.617       72.329      -13.397        9.355        8.496        5.117       87.509       72.190       26.183        0.281        0.009       72.547        3.029        0.002      335.588        6.325      872.230
01/24/2015  22:55:00       -6.890       68.105      -13.712        6.879       10.971        5.239       47.327      120.357       27.447        0.253        0.010       68.453        2.042        0.001      335.607        6.355      872.236
01/24/2015  22:56:00      -13.153       64.344      -11.572        9.654        9.461        7.500       93.194       89.516       56.248        0.234        0.012       65.674        2.458        0.001      335.665        6.450      872.239
01/24/2015  22:57:00       -7.813       68.047      -11.558        9.461       10.468        5.509       89.509      109.585       30.347        0.253        0.011       68.494        2.732        0.002      335.624        6.382      872.239
01/24/2015  22:58:00       -6.630       56.107       -9.552       11.901       11.445        5.459      141.633      130.982       29.796        0.179        0.015       56.497        5.197        0.008      335.646        6.420      872.243
01/24/2015  22:59:00      -17.093       46.692       -9.174        9.610        9.644        6.966       92.350       93.015       48.527        0.140        0.012       49.722        5.714        0.013      335.601        6.345      872.252
01/24/2015  23:00:00       -5.024       40.947       -5.185       15.669       19.082        8.025      245.528      364.112       64.404        0.120        0.034       41.254        6.879        0.028      335.467        6.121      872.260
01/24/2015  23:01:00       12.241       55.702       -9.844        9.254        8.102        6.102       85.633       65.638       37.240        0.177        0.009       57.032        4.256        0.006      335.591        6.325      872.261
01/24/2015  23:02:00        2.483       55.241       -3.754        6.971       10.776        6.082       48.595      116.112       36.995        0.164        0.010       55.297        6.048        0.012      335.575        6.302      872.260
01/24/2015  23:03:00       12.181       34.068       -3.210       11.543       12.141        7.792      133.232      147.409       60.708        0.083        0.017       36.180        6.628        0.034      335.488        6.155      872.250
01/24/2015  23:04:00       19.633       27.201       -5.065       17.027       12.642        8.289      289.932      159.816       68.712        0.083        0.026       33.546        8.954        0.071      335.507        6.187      872.257
01/24/2015  23:05:00       -5.230       38.561       -4.141        8.585        5.437        4.421       73.699       29.558       19.545        0.083        0.006       38.914        2.580        0.004      335.547        6.251      872.270
01/24/2015  23:06:00        4.063       28.227       -0.955        7.023        9.230        6.780       49.316       85.198       45.963        0.050        0.009       28.518        3.818        0.018      335.494        6.165      872.276
01/24/2015  23:07:00       22.640        3.994        8.861       17.531       16.527        9.788      307.329      273.130       95.812        0.064        0.034       22.989        8.238        0.128      335.205        5.685      872.288
01/24/2015  23:08:00       40.637       -4.675        4.496        6.392       10.110        4.565       40.860      102.215       20.843        0.093        0.008       40.905        2.035        0.002      335.435        6.068      872.296
01/24/2015  23:09:00       22.664       -9.770        2.187       11.676       12.036        9.774      136.332      144.869       95.524        0.050        0.019       24.680        8.853        0.129      335.303        5.847      872.298
01/24/2015  23:10:00       18.353       -6.931        4.638       15.659       15.339        9.767      245.202      235.299       95.393        0.049        0.029       19.618        8.249        0.177      335.214        5.699      872.298
01/24/2015  23:11:00       25.993       -0.200        8.153       24.910       13.879       10.997      620.527      192.613      120.933        0.084        0.047       25.994       13.132        0.255      335.233        5.731      872.298
01/24/2015  23:12:00      -39.738       -6.819       -2.134       12.331        9.831        9.234      152.065       96.651       85.266        0.098        0.017       40.318        8.420        0.044      334.962        5.279      872.315
01/24/2015  23:13:00      -14.099       -5.942       -2.944       11.571        5.642        5.753      133.878       31.828       33.096        0.022        0.010       15.300        5.910        0.149      334.919        5.210      872.340
01/24/2015  23:14:00        0.234       -3.236       -1.094        9.040       19.457        8.631       81.717      378.579       74.488        0.027        0.027        3.244        8.592        7.013      335.185        5.650      872.355
01/24/2015  23:15:00       18.135        9.271        3.794        9.300        9.639        5.487       86.492       92.909       30.111        0.032        0.010       20.367        4.502        0.049      335.345        5.915      872.366
01/24/2015  23:16:00       -2.265        6.798        7.331        4.853        5.946        6.818       23.554       35.359       46.486        0.011        0.005        7.165        4.876        0.463      335.258        5.771      872.372
01/24/2015  23:17:00       26.369       34.711       -3.159       12.713       12.664        9.931      161.633      160.389       98.633        0.117        0.021       43.592        9.435        0.047      335.405        6.017      872.375
01/24/2015  23:18:00       11.260       54.505      -10.928        6.756        6.279        5.547       45.648       39.429       30.766        0.167        0.006       55.656        4.587        0.007      335.446        6.086      872.375
01/24/2015  23:19:00       -6.352       66.082      -11.981       22.179       17.872        6.164      491.890      319.397       37.993        0.270        0.042       66.386        2.719        0.002      335.456        6.102      872.368
01/24/2015  23:20:00       -7.882       73.979      -12.784        6.967        8.108        5.633       48.534       65.736       31.727        0.292        0.007       74.398        3.992        0.003      335.440        6.076      872.355
01/24/2015  23:21:00       -7.836       76.879      -13.319        6.511        9.106        5.051       42.394       82.916       25.510        0.315        0.008       77.278        3.661        0.002      335.470        6.124      872.350
01/24/2015  23:22:00       -3.009       85.232      -12.484       10.275       10.656        4.976      105.566      113.545       24.758        0.384        0.012       85.285        3.799        0.002      335.501        6.175      872.355
01/24/2015  23:23:00       17.323       79.905       -8.143       14.660       17.968       11.361      214.907      322.841      129.074        0.371        0.033       81.762        8.883        0.012      335.438        6.072      872.377
01/24/2015  23:24:00       30.845       28.305       -2.449       13.424       14.010       10.833      180.195      196.290      117.357        0.113        0.025       41.864        8.311        0.039      335.178        5.638      872.398
01/24/2015  23:25:00       37.327       21.308       -2.165       13.305        7.908        9.262      177.034       62.531       85.793        0.109        0.016       42.980        6.070        0.020      335.111        5.528      872.406
01/24/2015  23:26:00       27.764       22.763       -5.991        8.947        9.665        5.833       80.051       93.408       34.021        0.077        0.010       35.902        3.579        0.010      335.088        5.490      872.406
01/24/2015  23:27:00        8.985       24.694       -4.770        5.860       10.529        6.152       34.336      110.857       37.848        0.045        0.009       26.277        5.598        0.045      335.157        5.604      872.398
01/24/2015  23:28:00        8.812       18.310       -1.348        4.916        7.820        3.336       24.165       61.157       11.129        0.026        0.005       20.320        1.791        0.008      335.215        5.699      872.380
01/24/2015  23:29:00       13.860       36.807       -3.246        7.631        8.261        5.195       58.238       68.238       26.989        0.086        0.008       39.330        3.168        0.006      335.217        5.706      872.372
01/24/2015  23:30:00       10.540       11.043        1.789        8.813       12.603        8.743       77.671      158.842       76.447        0.027        0.016       15.266        7.302        0.229      335.115        5.536      872.363
01/24/2015  23:31:00       23.589       10.740       -0.005        7.837        6.538        7.037       61.417       42.746       49.524        0.041        0.008       25.919        4.318        0.028      335.046        5.421      872.372
01/24/2015  23:32:00       14.745       13.058       -0.853        4.493        5.600        2.772       20.190       31.355        7.682        0.022        0.003       19.695        1.204        0.004      335.092        5.497      872.382
01/24/2015  23:33:00       18.653       16.893       -0.296        4.746        4.848        3.819       22.523       23.499       14.587        0.035        0.003       25.166        2.988        0.014      335.192        5.663      872.376
01/24/2015  23:34:00        3.463        3.747        1.607       10.033       10.788        5.128      100.657      116.374       26.295        0.014        0.012        5.102        6.347        1.547      335.126        5.552      872.364
01/24/2015  23:35:00      -19.514        0.978        2.313        8.404       11.443        4.660       70.625      130.949       21.715        0.031        0.011       19.539        3.949        0.041      334.802        5.014      872.357
01/24/2015  23:36:00      -20.901       -7.339       -2.919       10.666        9.423        4.146      113.759       88.784       17.190        0.036        0.011       22.152        2.837        0.016      334.877        5.139      872.350
01/24/2015  23:37:00      -42.035      -14.967       -8.569        8.436       11.740        5.625       71.174      137.825       31.643        0.115        0.012       44.620        4.877        0.012      334.625        4.722      872.359
01/24/2015  23:38:00      -44.895       -9.366      -13.113        8.299        6.911        5.838       68.876       47.758       34.080        0.121        0.008       45.862        4.686        0.010      334.538        4.574      872.363
01/24/2015  23:39:00      -39.682      -16.186       -4.628       10.858       10.436        7.667      117.889      108.917       58.786        0.107        0.014       42.856        6.523        0.023      334.707        4.856      872.375
01/24/2015  23:40:00      -57.776      -13.452      -13.083        6.670        7.832        6.397       44.486       61.340       40.919        0.192        0.007       59.322        4.017        0.005      334.480        4.481      872.380
01/24/2015  23:41:00      -59.709      -25.264      -16.940        8.942       10.570        8.093       79.958      111.733       65.498        0.237        0.013       64.834        4.820        0.006      334.425        4.389      872.385
01/24/2015  23:42:00      -60.252      -39.254      -17.149       12.967       14.215        8.784      168.132      202.068       77.158        0.296        0.022       71.911        4.776        0.004      334.272        4.135      872.381
01/24/2015  23:43:00      -84.638      -41.244      -20.279       19.561       14.729       12.310      382.628      216.957      151.528        0.501        0.038       94.152        5.548        0.003      334.152        3.937      872.371
01/24/2015  23:44:00     -105.417      -47.942      -10.294       17.048       13.114       11.109      290.640      171.968      123.409        0.705        0.029      115.806        8.952        0.006      334.024        3.725      872.365
01/24/2015  23:45:00     -113.436      -50.146       -0.676       36.032       23.962       16.411     1298.331      574.165      269.318        0.876        0.107      124.026       16.483        0.018      334.045        3.759      872.360
01/24/2015  23:46:00      -88.100      -71.491       -0.027       38.362       36.888       17.816     1471.658     1360.738      317.421        0.801        0.157      113.458       16.847        0.022      334.185        3.990      872.351
01/24/2015  23:47:00      -97.951     -106.398       -8.044       31.225       32.028       18.724      974.993     1025.764      350.605        1.167        0.118      144.620       14.314        0.010      334.295        4.173      872.334
01/24/2015  23:48:00      -83.194      -46.648       -0.794       30.098       28.909       19.990      905.893      835.740      399.607        0.562        0.107       95.380       16.349        0.029      334.234        4.072      872.330
01/24/2015  23:49:00      -90.739      -46.631        0.474       32.241       25.792       16.436     1039.459      665.252      270.127        0.619        0.099      102.019       13.241        0.017      334.205        4.024      872.319
01/24/2015  23:50:00     -101.732      -51.493        0.763       26.965       20.126       15.485      727.125      405.053      239.797        0.719        0.069      114.021       13.955        0.015      334.065        3.791      872.304
01/24/2015  23:51:00      -60.252      -36.427        7.686       44.366       24.608       21.234     1968.379      605.561      450.897        0.402        0.151       70.407       19.785        0.079      334.031        3.737      872.288
01/24/2015  23:52:00      -54.798      -27.047        9.803       45.199       29.775       20.278     2042.940      886.541      411.216        0.359        0.167       61.109       18.584        0.092      333.970        3.635      872.268
01/24/2015  23:53:00      -81.894      -55.789        0.401       35.967       32.993       21.840     1293.652     1088.525      477.003        0.634        0.143       99.091       21.511        0.047      333.961        3.620      872.267
01/24/2015  23:54:00      -72.454      -48.834        5.031       34.727       25.292       17.624     1205.945      639.666      310.595        0.491        0.108       87.375       15.964        0.033      333.861        3.453      872.246
01/24/2015  23:55:00      -84.853      -54.598        1.475       41.283       40.166       24.741     1704.284     1613.310      612.133        0.706        0.196      100.901       21.481        0.045      333.858        3.448      872.237
01/24/2015  23:56:00      -98.541      -55.014        0.975       37.500       23.605       20.457     1406.258      557.200      418.474        0.756        0.119      112.858       11.748        0.011      333.866        3.461      872.239
01/24/2015  23:57:00     -108.909      -50.934        7.077       49.236       37.364       22.501     2424.158     1396.053      506.290        0.942        0.216      120.230       20.020        0.028      333.853        3.442      872.250
01/24/2015  23:58:00     -100.748      -57.607        0.601       40.392       34.631       25.669     1631.534     1199.285      658.906        0.848        0.174      116.055       22.323        0.037      333.865        3.461      872.265
01/24/2015  23:59:00      -68.418      -44.673        6.704       43.142       35.147       23.446     1861.202     1235.305      549.717        0.518        0.182       81.711       23.102        0.080      333.876        3.479      872.268
